GFSMA_925_thetae_000.txt.gz
Theta_e
332 331 331 331 331 331 331 331 331 330 330 330 329 329 329 329 328 328 327 326 324 323 324 324 325 324 322 323 324 323 325 328 329 329 328 326 326 326 325 324 324 324 324
332 332 332 332 332 332 331 331 331 330 330 330 330 330 330 329 329 329 328 328 326 325 325 325 326 326 326 324 323 324 324 325 328 330 331 329 327 326 326 325 325 324 325
332 332 332 332 332 331 331 331 330 330 330 330 330 329 329 329 329 329 329 328 328 326 325 325 326 328 328 327 327 325 325 325 325 328 329 331 330 328 327 326 325 326 325
330 331 331 332 331 330 329 329 328 327 328 327 328 328 328 328 328 328 327 327 327 327 326 324 323 324 328 329 329 329 328 326 327 326 327 328 331 330 329 328 327 327 326
329 329 328 325 324 324 324 324 324 324 324 324 324 324 324 325 326 327 328 327 326 326 326 325 324 323 322 323 328 329 330 329 328 328 327 326 326 329 329 329 329 328 328
316 317 315 314 315 315 314 314 315 315 316 318 318 319 321 321 323 325 326 326 328 327 327 327 326 326 324 323 323 324 328 329 329 329 328 328 328 327 327 328 329 329 328
310 310 310 310 310 310 310 310 310 311 311 312 312 313 313 316 319 318 324 321 320 323 326 326 327 326 326 325 324 323 323 326 328 327 328 329 328 328 328 328 328 328 329
307 307 307 307 307 307 308 308 308 308 308 308 310 311 313 314 313 313 312 314 316 316 321 325 326 326 326 326 325 324 323 324 326 327 327 327 328 330 330 329 329 328 328
303 303 303 303 303 304 304 304 303 304 305 305 306 308 311 312 313 310 310 311 313 312 313 316 318 317 318 321 322 322 322 322 320 321 325 327 328 328 329 331 331 330 330
299 298 299 299 299 300 300 300 300 301 302 303 303 304 305 306 310 311 308 308 308 310 310 311 312 312 312 313 317 319 319 320 322 324 325 326 326 327 329 330 331 331 331
297 295 296 296 296 297 297 297 297 299 300 300 300 302 303 304 304 307 308 306 304 304 304 305 307 310 311 311 315 317 317 317 319 320 322 323 326 325 325 329 332 331 331
296 294 294 294 295 294 294 295 295 298 298 297 298 299 301 301 302 301 302 303 304 302 301 303 305 308 309 311 313 313 310 305 308 308 313 318 321 323 324 324 323 324 326
294 293 293 293 293 292 292 293 294 296 296 295 296 298 298 296 296 296 298 303 303 302 303 303 304 305 305 304 305 307 303 302 302 306 311 312 314 317 318 317 317 317 321
292 291 291 291 291 291 291 291 292 293 293 293 293 294 296 294 295 296 298 301 303 303 300 299 299 300 299 300 299 302 301 299 299 303 302 302 307 309 311 313 315 316 317
290 290 290 290 290 290 290 290 291 291 291 292 292 293 294 294 294 295 295 295 298 300 300 298 297 294 294 294 297 299 297 297 299 298 301 299 300 308 308 309 309 312 314
290 290 289 289 289 289 289 289 290 290 290 290 291 291 293 292 293 291 291 291 292 295 297 294 294 294 293 296 296 295 295 296 298 298 297 299 304 298 298 300 308 312 312
289 289 288 288 288 288 288 288 289 289 289 290 290 291 291 291 291 290 290 290 290 291 295 293 293 292 292 292 293 293 294 295 295 295 297 301 298 300 302 305 307 307 309
288 288 287 287 288 288 288 288 288 288 289 289 289 289 289 289 289 289 289 289 290 290 292 293 291 291 291 291 292 292 292 293 293 294 294 295 298 300 301 303 306 305 306
287 287 287 287 287 287 287 287 287 288 288 289 289 289 288 288 288 288 288 289 290 290 290 290 291 291 291 291 291 291 291 292 293 294 294 294 297 299 300 303 302 303 305
287 287 286 286 286 286 286 286 286 287 288 288 288 288 288 287 287 287 288 288 289 289 289 290 291 291 290 290 290 291 292 292 292 293 293 295 296 298 299 301 301 302 305
286 286 286 286 286 286 285 285 286 287 287 288 288 287 287 287 287 287 288 288 288 288 289 290 290 290 289 290 290 290 290 291 291 292 294 295 295 296 296 296 298 300 302
286 286 286 286 285 285 285 285 286 287 287 287 287 287 286 286 287 287 287 288 288 288 289 290 289 290 289 288 288 289 289 291 291 293 293 293 293 294 295 296 297 300 301
286 286 286 285 285 284 284 284 285 286 286 287 286 286 286 286 287 287 287 287 288 288 287 287 287 287 287 287 287 288 289 290 291 291 291 293 292 294 293 295 295 296 298
286 285 285 285 284 284 283 284 285 286 286 286 286 286 286 287 287 286 287 288 287 286 285 285 285 286 286 287 286 287 288 289 290 291 291 293 291 292 292 292 294 297 298
285 285 284 284 283 283 283 283 285 285 285 286 286 286 286 287 286 286 288 287 286 284 283 284 285 285 284 284 286 286 288 290 290 291 289 290 290 291 291 290 291 295 295
284 284 284 283 283 283 283 284 285 285 285 285 286 286 286 286 286 287 286 285 285 283 284 284 283 282 283 284 285 285 286 287 288 289 288 289 288 290 290 292 291 290 291

GFSMA_925_thetae_003.txt.gz
Theta_e
334 334 334 334 334 334 334 333 333 333 333 332 332 332 331 331 331 331 331 331 330 329 328 328 328 330 330 328 326 325 326 327 328 329 330 331 329 328 328 326 325 326 326
334 335 335 335 334 333 333 332 332 331 331 331 330 331 330 331 331 331 331 331 330 330 329 328 329 329 332 331 330 328 325 326 327 327 329 330 331 330 329 329 327 326 326
334 334 334 333 332 331 331 330 329 328 327 327 327 327 327 328 329 328 329 329 330 330 329 329 328 329 329 332 333 332 330 328 327 327 327 328 330 332 331 330 329 329 327
332 333 331 328 325 325 324 322 320 320 321 321 322 324 324 324 324 325 326 327 328 328 328 328 328 327 327 329 330 332 331 331 331 328 328 328 329 330 332 332 330 330 329
323 322 318 315 315 315 315 314 314 314 315 315 317 317 316 319 321 321 322 325 326 327 328 329 328 328 327 327 327 328 330 332 331 331 330 330 329 329 329 329 330 330 330
313 313 312 312 311 312 312 312 312 312 312 313 313 313 315 314 315 317 322 319 317 317 318 319 327 329 328 329 329 328 328 329 329 330 331 331 330 330 330 329 329 329 330
309 309 309 309 309 309 309 308 307 307 308 308 309 310 310 312 311 313 311 311 314 316 315 317 320 325 325 324 326 326 326 328 329 329 326 327 328 331 331 330 329 329 329
305 305 305 305 304 305 304 304 303 304 304 304 306 307 310 309 309 308 309 310 310 313 312 315 316 316 317 317 319 318 321 323 325 325 326 325 325 326 327 330 331 330 330
301 301 301 301 301 301 301 301 300 301 303 303 303 304 307 307 308 308 306 308 306 306 309 308 309 310 310 311 310 310 313 316 318 320 321 322 324 324 325 324 328 332 333
299 298 298 299 299 299 299 299 299 300 301 301 301 301 302 303 305 305 304 304 304 304 303 306 304 304 304 308 310 308 310 317 316 317 319 319 320 322 325 328 326 327 329
298 297 297 297 297 297 297 297 297 298 300 299 298 299 300 302 301 302 301 301 301 301 302 301 303 302 304 306 310 312 310 309 311 311 311 313 316 320 321 322 323 325 327
298 296 295 295 296 295 295 295 295 296 298 297 297 297 297 299 300 299 299 300 300 301 302 300 302 303 303 305 304 302 303 300 303 305 306 307 309 313 311 312 315 316 318
296 295 294 294 294 294 293 293 294 295 295 295 295 295 295 297 297 297 298 299 300 299 299 298 297 299 297 300 297 297 296 296 301 301 302 303 305 305 306 306 305 310 315
294 293 293 293 293 293 292 292 292 293 293 293 293 294 294 295 295 296 297 297 298 296 296 295 297 295 295 296 294 296 295 299 298 299 299 299 299 302 302 301 305 309 307
292 292 292 292 292 291 291 291 291 292 292 292 292 293 293 293 294 294 295 294 294 295 294 294 294 293 295 293 295 294 293 293 295 295 295 297 298 299 297 300 305 303 303
291 291 291 291 290 290 290 290 290 291 291 291 291 292 292 292 292 293 293 293 292 293 293 293 293 293 293 293 292 293 293 293 293 294 293 294 295 295 299 298 298 300 301
290 290 290 290 290 290 290 290 290 290 290 290 290 291 291 291 291 291 291 291 291 291 292 291 291 292 291 291 292 291 292 292 293 292 292 293 294 295 296 298 298 299 302
289 289 289 289 289 289 289 289 289 289 289 289 289 290 290 290 290 290 290 290 290 289 290 291 290 290 290 291 291 291 290 291 291 292 292 292 293 295 295 296 298 300 301
289 289 289 289 289 289 288 288 288 288 288 288 289 289 289 289 289 289 289 288 288 289 289 289 289 289 290 290 290 290 290 290 290 291 291 291 292 293 294 296 297 299 301
288 288 288 288 288 288 288 288 287 287 287 288 288 288 289 289 288 288 287 288 288 289 289 289 289 289 289 290 289 289 288 288 289 289 289 290 291 292 295 295 294 295 296
288 288 288 288 288 288 287 287 286 286 287 287 287 288 288 288 287 287 288 288 288 288 288 289 289 289 289 288 288 287 287 287 288 288 289 290 291 292 292 293 293 294 296
288 288 288 288 288 287 287 287 286 286 286 287 287 288 287 287 287 287 287 287 288 288 288 288 289 288 287 286 286 286 287 288 288 287 288 289 289 291 292 293 293 295 295
288 288 288 287 287 286 286 286 286 286 286 287 287 287 287 287 287 287 287 287 287 287 287 287 286 285 285 285 286 286 287 286 286 287 288 289 290 291 292 291 291 292 294
287 287 287 286 286 285 285 285 285 285 286 286 286 286 286 287 287 287 287 287 287 286 285 285 285 284 285 285 285 285 285 286 286 287 287 289 289 290 289 290 289 291 291
287 286 286 285 285 285 284 285 285 285 286 286 286 286 286 287 287 288 287 286 284 284 284 284 284 284 284 283 283 284 285 286 286 286 286 287 287 287 287 288 288 290 289
286 285 285 285 284 284 284 285 285 285 285 286 286 286 286 286 287 287 286 284 284 284 284 284 283 282 282 282 283 284 284 285 285 284 284 285 285 286 288 287 288 287 287

GFSMA_925_thetae_006.txt.gz
Theta_e
334 334 334 335 334 333 333 332 331 331 330 330 330 329 328 329 330 330 330 330 331 331 331 331 332 332 332 331 332 333 331 328 328 328 328 329 330 331 331 329 328 327 327
334 334 333 333 332 331 330 329 327 326 326 325 325 325 326 325 325 325 326 327 327 328 329 330 330 332 332 332 331 331 331 332 330 328 328 329 329 329 331 331 330 329 328
333 332 331 326 323 323 321 320 315 315 316 316 316 319 321 322 320 322 323 323 324 325 328 328 328 328 328 331 332 331 330 330 330 331 330 329 329 329 328 329 330 330 330
328 325 318 315 314 314 313 313 312 313 313 313 314 313 313 313 315 316 315 317 319 317 319 323 327 326 328 327 328 329 329 330 329 330 330 331 330 329 329 328 328 329 330
314 313 312 311 311 311 311 310 309 309 308 308 309 307 310 311 309 311 312 308 308 310 313 314 315 316 321 324 327 326 328 327 328 329 328 329 330 330 330 330 329 329 329
310 310 309 308 307 308 306 305 304 303 304 304 304 306 304 307 305 307 306 305 308 307 309 311 310 315 312 314 315 318 320 322 321 324 324 326 326 326 328 330 331 330 329
306 305 304 303 303 304 302 301 301 301 303 302 303 302 304 304 305 303 302 307 304 306 305 304 308 306 305 307 307 307 307 309 310 313 319 320 322 324 326 326 326 330 330
301 301 300 300 300 301 299 299 299 300 301 301 301 301 301 301 302 302 304 301 304 301 302 301 301 301 304 302 302 303 304 309 312 314 316 319 320 322 323 324 325 325 325
299 298 298 299 298 299 298 298 298 299 300 300 299 299 299 300 299 302 300 301 299 301 299 299 299 301 300 301 301 299 301 309 311 312 314 316 317 317 318 319 320 323 325
298 297 297 297 297 297 296 296 296 296 298 299 299 298 297 298 298 299 300 298 297 298 298 299 298 299 299 296 301 303 304 301 304 305 306 308 311 312 313 314 316 318 316
297 296 295 295 295 295 294 294 294 295 296 297 297 296 296 296 295 295 297 296 296 296 297 297 298 297 295 296 296 297 297 298 299 300 301 304 307 308 309 309 310 309 311
296 295 294 294 294 293 293 293 293 293 293 295 294 294 295 294 294 294 295 295 295 295 296 295 296 293 294 294 293 294 294 296 297 297 299 300 302 303 304 303 302 304 307
294 293 293 292 293 292 292 292 292 292 292 293 293 292 292 294 293 294 294 294 294 294 294 293 292 293 293 291 292 293 293 295 294 294 295 296 297 297 297 298 299 301 302
293 292 292 292 292 291 291 291 291 291 291 292 292 291 292 292 292 293 292 293 293 293 292 292 292 291 290 292 292 291 292 292 292 293 294 294 294 295 296 295 296 298 298
292 291 291 291 291 290 290 290 290 290 290 290 290 290 291 291 291 291 292 291 292 291 291 290 290 290 290 290 290 291 290 291 291 291 292 293 293 294 294 294 294 295 296
291 290 290 290 289 289 289 289 289 289 289 289 289 289 289 290 290 290 290 291 290 290 289 289 290 289 288 289 289 289 289 290 290 291 290 291 292 292 293 294 294 294 296
290 289 289 289 289 289 289 289 289 288 288 288 288 288 288 289 289 290 289 289 289 289 289 288 288 288 288 288 288 288 289 289 290 290 290 290 290 291 292 292 293 294 296
289 289 289 289 289 289 288 288 288 288 288 287 287 287 288 288 288 288 289 288 288 287 287 287 288 288 287 288 288 288 288 289 289 288 287 288 288 289 290 291 291 292 294
288 288 288 288 288 288 288 288 288 287 287 286 286 287 287 287 288 288 288 287 287 287 287 288 288 288 288 288 288 288 288 287 286 286 286 287 288 288 290 291 291 292 294
288 288 288 288 288 288 288 288 287 287 287 286 286 286 287 287 288 288 287 287 287 288 288 287 288 288 287 288 287 287 285 285 285 285 285 287 287 287 288 289 289 291 292
288 288 288 288 288 288 288 288 288 287 286 286 286 286 286 287 287 287 288 288 288 287 288 288 287 287 287 287 285 284 284 284 284 285 286 284 285 286 287 288 289 290 292
288 288 288 288 287 287 287 287 287 287 286 285 285 286 286 286 286 287 287 287 287 288 288 287 287 286 285 285 285 284 284 284 286 284 284 284 285 286 287 289 288 291 292
287 287 287 287 286 286 286 286 286 286 285 285 285 285 285 286 286 286 286 287 288 287 286 285 284 283 284 285 284 284 285 285 284 284 284 285 286 286 286 286 287 289 290
287 287 286 286 285 285 285 285 286 286 285 285 285 285 285 285 285 286 287 288 287 285 284 283 283 284 284 284 284 283 283 283 283 284 284 285 285 284 284 286 286 286 288
286 286 285 285 285 284 284 285 286 286 285 285 285 285 285 286 286 286 287 286 285 284 283 283 284 284 282 282 282 283 283 283 283 283 283 283 283 283 284 284 285 286 289
285 285 284 284 284 284 284 285 286 285 285 285 285 285 285 285 285 286 286 285 284 282 283 284 281 280 281 281 282 282 282 283 282 282 282 282 283 284 284 285 285 285 286

GFSMA_925_thetae_009.txt.gz
Theta_e
332 333 333 334 333 331 329 327 322 321 320 320 320 319 319 322 323 322 320 321 322 323 323 325 328 329 330 331 332 331 330 330 329 331 331 330 329 328 328 330 330 330 329
334 332 332 326 322 320 318 316 315 314 314 314 313 314 313 314 314 314 315 314 314 317 318 321 328 328 329 330 330 329 328 330 329 328 328 331 331 330 329 328 328 329 330
332 325 317 314 314 314 314 313 311 311 311 308 309 310 310 309 311 309 311 310 307 308 309 312 316 318 322 323 326 327 326 328 327 328 328 329 330 331 331 330 329 329 328
317 317 314 312 311 312 311 309 307 306 304 305 304 304 306 305 306 308 306 303 307 305 306 307 306 313 311 314 316 319 321 320 320 319 321 324 325 327 329 330 331 330 329
312 311 310 308 308 308 306 303 301 300 303 301 302 301 299 304 302 304 300 303 305 302 304 302 304 301 302 305 309 310 310 311 309 309 312 314 316 320 323 325 326 328 330
309 308 306 303 303 303 300 299 298 298 300 300 301 298 300 305 300 300 297 303 300 303 300 300 299 297 297 303 303 305 307 306 306 307 311 314 317 319 321 322 324 324 326
303 302 302 300 300 299 298 299 297 298 298 299 300 298 300 300 299 296 299 302 299 300 297 296 296 296 299 299 299 301 302 303 307 310 311 313 315 317 318 319 321 322 322
301 301 300 298 298 298 296 297 296 297 299 298 298 298 297 298 299 296 296 296 299 296 298 296 296 298 297 298 298 296 300 303 305 305 307 309 310 310 312 315 317 317 319
299 298 298 297 297 296 295 295 295 295 296 296 296 297 295 296 295 298 294 296 294 296 295 296 296 296 297 296 295 293 296 298 300 301 303 305 306 307 309 311 313 314 315
298 297 296 296 295 294 294 293 293 293 293 294 295 295 295 295 294 293 295 293 295 294 294 295 294 296 294 295 292 293 295 295 297 299 300 302 303 304 306 307 309 309 310
297 295 294 294 294 293 293 292 292 292 292 292 294 293 293 293 293 292 292 292 293 293 293 294 294 293 293 292 293 292 293 295 296 296 298 299 299 299 301 302 303 304 305
295 294 293 292 292 292 292 292 291 291 291 291 291 292 292 292 291 292 291 291 292 292 292 293 292 292 292 291 291 290 293 293 293 294 295 296 297 297 298 298 298 299 301
293 292 292 292 291 291 291 291 291 290 290 290 290 290 290 290 291 291 291 291 291 291 291 290 291 291 290 289 290 291 291 290 292 292 293 294 294 294 294 295 296 296 297
292 292 291 291 290 290 290 290 290 290 289 289 289 289 289 290 289 290 290 290 290 290 290 290 290 289 289 290 289 288 288 290 289 290 290 292 292 293 293 293 294 294 294
291 291 290 290 290 289 289 289 289 289 289 288 288 288 288 288 288 288 289 289 289 290 289 289 289 288 288 287 287 288 288 288 288 289 290 290 291 292 291 293 292 292 293
290 290 289 289 289 289 289 289 288 288 288 288 287 287 287 286 287 287 288 289 288 288 288 288 288 287 287 287 287 287 287 287 288 288 289 290 291 290 290 290 291 291 292
289 289 289 289 289 289 288 288 288 288 288 287 287 286 286 286 286 287 287 287 288 288 287 287 287 286 287 287 287 287 287 287 287 288 289 288 288 288 288 288 290 291 291
289 288 288 288 288 288 288 288 288 288 287 287 287 286 286 286 286 286 287 287 287 287 286 286 287 287 287 287 287 287 287 287 287 287 286 286 286 286 287 288 288 290 291
288 288 288 288 288 288 288 288 288 287 287 287 286 286 286 285 285 286 286 287 287 287 287 287 287 287 287 288 287 286 286 286 285 284 284 284 285 285 287 287 286 287 289
288 288 288 288 288 287 287 287 287 287 287 287 286 285 285 285 285 286 287 287 287 287 287 287 287 288 287 286 285 284 283 284 284 284 284 284 285 286 285 285 286 287 288
288 287 287 287 287 287 286 287 287 287 287 286 285 285 285 285 286 286 287 286 286 286 287 288 288 286 285 284 283 283 284 284 284 284 284 284 283 283 283 284 285 286 287
287 287 287 286 286 286 286 286 287 287 286 286 285 285 285 285 285 285 285 286 287 287 288 287 286 284 284 283 283 284 284 285 284 283 283 283 283 283 284 284 285 286 286
286 286 286 286 285 285 285 286 286 286 286 285 285 285 285 285 285 285 285 286 286 287 287 286 284 283 283 283 284 284 283 283 283 283 283 283 283 283 283 284 284 284 286
286 286 285 285 284 284 284 285 285 286 286 285 285 285 284 285 285 285 286 286 286 286 285 284 283 283 284 284 282 282 282 282 282 282 282 282 282 282 282 282 283 284 285
285 285 284 284 283 283 283 284 285 285 284 284 285 285 285 285 285 285 285 286 285 283 282 283 284 283 281 281 281 282 282 282 282 282 281 281 281 281 282 282 283 284 286
285 284 284 283 283 282 283 284 285 284 284 284 284 284 284 284 284 285 286 284 282 282 283 283 280 279 280 280 281 281 281 281 281 281 281 281 281 282 283 283 284 284 285

GFSMA_925_thetae_012.txt.gz
Theta_e
331 332 332 330 327 325 319 319 319 318 317 316 314 313 313 312 312 312 312 312 312 312 312 318 320 323 328 330 330 329 328 328 328 329 329 329 329 330 331 331 329 327 329
333 330 326 318 316 316 316 315 313 311 310 309 307 308 308 307 306 309 309 306 307 305 308 313 314 318 317 319 321 323 324 324 324 321 321 324 327 329 330 331 332 331 330
330 321 318 316 314 314 312 310 308 305 303 303 302 302 302 302 305 306 303 303 305 302 304 306 310 307 307 308 313 314 315 314 314 314 314 316 317 317 320 323 327 329 331
321 323 316 312 310 310 307 304 301 300 299 299 299 300 298 303 301 302 298 301 300 302 300 302 299 300 301 306 307 309 310 311 310 310 310 311 313 317 320 322 323 324 326
315 312 309 306 305 304 301 299 297 298 297 297 299 298 298 303 300 299 296 301 296 300 297 297 295 296 300 302 303 304 305 305 307 308 311 313 313 315 317 318 319 320 322
309 307 304 302 302 300 298 297 296 296 297 296 298 296 299 302 299 297 298 294 297 299 296 296 294 294 297 299 300 301 302 303 303 306 307 308 310 311 312 313 316 318 320
303 303 302 300 299 297 297 296 295 295 297 295 297 296 298 297 298 295 296 294 297 294 295 296 294 294 295 295 297 297 297 297 299 302 303 305 307 307 309 309 310 312 313
302 301 299 298 297 296 295 294 294 294 295 295 296 295 295 296 297 294 295 293 295 295 295 293 293 294 294 296 295 294 294 296 298 299 301 302 303 304 305 306 308 311 312
300 299 297 296 295 294 293 293 293 293 293 293 295 294 293 293 293 294 292 294 292 293 291 293 292 293 294 293 292 292 293 295 295 295 299 301 301 302 303 304 305 306 307
298 297 296 295 294 293 293 292 292 292 291 292 293 293 292 293 291 291 293 291 292 290 291 292 291 293 292 292 291 292 292 293 293 297 298 298 298 300 300 301 302 302 303
296 295 294 293 293 292 292 291 291 291 291 291 290 290 290 291 291 290 290 290 290 290 291 291 291 291 290 291 291 290 291 292 294 294 294 295 297 297 298 299 300 301 301
295 294 293 292 292 291 291 291 290 290 290 290 289 289 289 289 289 289 289 289 288 289 290 290 290 290 290 291 289 289 290 291 290 291 293 294 294 295 296 297 298 298 298
294 293 292 291 290 290 290 290 290 289 289 289 288 288 288 288 288 289 288 287 288 288 289 289 289 290 289 289 288 289 288 289 289 290 290 292 292 293 294 294 295 297 297
292 291 291 290 289 289 289 289 289 289 289 288 288 288 287 287 287 287 287 287 287 287 288 288 288 288 288 288 288 287 287 287 288 288 289 290 291 291 291 292 293 294 294
291 290 290 289 289 289 289 289 288 288 288 288 287 287 286 286 286 286 286 286 287 287 287 287 287 288 287 287 287 287 287 287 288 288 288 289 289 290 291 292 293 292 292
290 289 289 289 289 289 288 288 288 288 288 287 287 286 287 286 286 285 285 286 286 287 287 287 287 287 287 286 286 287 287 287 287 287 287 288 288 288 290 290 289 290 291
289 289 288 288 288 288 288 288 288 287 287 287 287 287 286 286 285 285 285 285 286 286 286 287 287 286 286 286 287 287 287 287 287 286 286 287 287 287 288 288 288 288 289
289 288 288 288 288 288 287 287 287 287 287 287 287 286 286 285 284 284 285 285 285 286 286 286 286 287 287 287 286 287 287 285 285 284 284 285 286 285 286 286 287 288 288
288 288 288 288 287 287 287 286 286 287 287 287 287 286 285 285 284 284 285 285 286 286 287 286 286 286 286 287 286 285 284 283 283 283 284 284 284 285 285 287 287 288 286
288 287 287 287 287 286 285 286 287 287 287 286 286 285 285 285 285 285 285 286 286 285 285 286 286 287 287 286 284 283 283 282 282 283 284 284 283 284 284 284 284 285 285
287 287 287 286 286 285 284 286 287 287 286 286 285 285 285 285 285 285 286 286 286 286 287 287 286 286 286 284 283 283 282 283 284 282 282 282 282 282 282 283 283 283 284
287 287 286 285 284 284 285 286 286 286 286 285 285 285 284 284 284 285 285 285 286 286 286 286 287 285 284 283 283 283 283 282 282 282 282 282 282 282 282 282 282 283 284
286 286 285 284 284 283 284 285 286 286 285 284 284 284 284 284 284 284 284 285 285 285 286 284 283 283 283 283 284 283 282 282 282 282 282 282 282 282 282 282 282 283 284
286 285 284 284 283 283 284 285 285 285 284 284 284 284 284 284 284 284 285 285 286 283 282 282 282 283 283 282 282 282 282 282 282 281 281 281 281 281 281 281 281 282 284
285 284 284 283 283 283 283 284 285 284 284 284 284 284 284 284 284 285 286 284 283 281 281 282 283 282 281 281 281 282 281 281 280 280 280 280 280 280 281 281 281 282 284
284 283 283 283 283 283 283 283 284 284 284 284 284 284 284 284 284 285 284 282 281 280 282 281 279 279 279 279 280 280 280 280 280 280 280 280 281 281 282 282 283 283 282

GFSMA_925_thetae_015.txt.gz
Theta_e
330 329 331 329 326 319 317 316 317 315 312 309 308 307 307 306 306 308 307 307 306 309 313 315 318 316 316 317 320 320 320 320 320 319 319 319 320 323 327 329 330 331 332
330 329 324 320 317 314 312 311 310 307 305 303 302 302 301 300 305 303 301 304 302 303 307 311 309 309 309 313 315 314 315 315 315 315 314 315 317 320 321 321 322 323 327
329 324 321 317 313 310 308 306 303 301 300 299 299 300 298 303 303 300 298 302 298 301 301 302 302 303 305 308 309 311 310 310 310 311 312 314 315 314 315 317 319 321 323
325 320 318 312 308 306 303 301 299 298 298 297 298 298 297 301 299 296 298 297 295 299 297 296 297 298 302 304 304 306 307 307 307 308 310 312 312 314 315 317 318 320 320
316 317 308 305 303 302 300 298 297 296 296 296 296 297 297 301 299 298 296 295 297 296 295 295 293 293 298 298 301 303 303 302 302 303 305 307 309 310 311 312 313 313 315
307 305 303 302 301 299 298 296 295 295 296 294 295 295 297 300 300 298 295 294 294 294 294 294 292 292 294 296 298 299 299 299 300 302 303 304 305 306 307 308 309 310 311
303 303 302 301 299 297 295 294 294 293 294 293 295 295 296 296 296 297 294 293 294 294 292 293 291 292 291 293 294 295 296 296 299 301 301 301 303 304 305 306 307 308 309
302 302 300 299 297 295 294 293 293 292 292 293 293 294 293 294 296 295 294 293 293 293 292 290 290 291 291 293 292 293 293 295 297 297 298 300 300 302 303 304 305 306 307
301 300 299 297 295 294 293 292 292 291 291 291 293 291 290 291 291 293 293 292 291 291 291 289 290 290 291 290 290 291 292 293 294 295 298 300 300 301 301 301 303 304 304
299 298 297 295 294 293 292 291 291 290 290 290 291 290 290 291 290 290 291 290 290 289 289 289 289 290 290 290 290 290 291 292 292 295 297 297 297 298 300 301 301 302 302
297 296 294 293 292 292 291 291 290 290 290 289 289 289 289 289 290 288 288 288 288 288 287 288 289 289 289 289 290 290 290 291 292 293 294 295 296 298 298 298 299 300 300
295 294 293 292 291 291 290 290 289 289 289 289 288 288 288 288 288 287 287 287 287 287 287 287 287 288 288 289 289 289 289 290 290 291 292 293 295 295 295 296 296 297 298
294 293 292 291 290 289 289 289 289 289 288 288 288 287 287 287 287 286 286 286 286 286 286 287 287 288 288 288 288 288 288 289 289 289 290 292 293 293 293 293 294 295 295
294 292 291 290 289 289 289 289 289 288 288 288 287 287 287 286 286 286 285 285 285 285 285 286 286 286 287 287 287 288 287 287 287 288 290 290 291 291 291 291 292 292 294
292 290 290 289 289 288 288 288 288 288 288 287 287 287 286 286 286 285 285 285 285 285 285 286 286 286 287 287 286 287 287 287 287 288 289 289 289 289 289 289 290 291 291
290 289 289 288 288 288 288 288 287 287 287 287 287 286 286 286 285 285 285 284 285 285 285 286 286 286 286 286 286 286 286 287 287 288 288 288 288 287 287 288 289 289 290
289 289 288 288 288 288 287 287 286 286 287 287 287 286 286 286 285 285 284 284 284 285 285 285 286 286 286 286 286 286 286 286 286 286 286 286 285 286 286 287 288 288 289
288 288 288 288 288 287 287 286 286 286 286 287 286 286 286 285 285 285 284 284 284 284 284 285 286 285 285 285 285 286 287 285 285 284 284 284 285 286 286 287 287 287 287
288 287 287 287 287 286 285 285 286 286 287 286 286 285 285 285 285 284 285 285 284 285 286 285 285 285 285 286 285 285 283 283 283 282 283 283 284 285 285 285 285 286 287
287 287 287 287 286 285 284 285 287 287 286 286 285 285 285 284 284 285 285 285 286 285 285 285 286 286 285 285 285 283 282 282 282 282 283 283 283 283 283 284 284 284 285
287 287 287 286 285 284 284 286 287 286 286 285 284 284 284 284 285 285 285 285 285 285 285 286 285 285 283 283 282 282 282 282 283 282 281 281 281 281 282 282 282 283 283
287 286 285 284 284 283 284 286 287 286 285 284 284 283 283 283 284 284 284 284 285 286 286 286 283 283 281 281 282 282 283 282 282 281 281 282 281 281 281 281 281 283 284
286 285 285 284 283 283 284 285 286 286 284 284 284 283 283 283 284 284 284 284 285 285 284 283 282 281 281 282 283 282 282 282 282 282 281 281 281 280 280 281 281 282 283
285 285 284 283 283 283 284 284 285 285 284 284 284 284 283 284 284 284 285 285 283 282 281 281 281 282 283 282 282 282 281 282 281 281 280 281 280 280 280 280 281 282 283
285 284 283 283 283 283 283 284 285 284 284 284 284 284 284 284 283 285 285 283 282 281 280 282 283 281 281 281 281 282 281 280 280 280 280 280 280 280 280 281 281 282 283
284 283 283 283 283 282 282 283 284 284 284 284 285 284 283 283 284 285 283 282 280 280 281 282 279 278 279 279 280 280 280 280 280 280 280 280 280 281 282 282 282 282 282

GFSMA_925_thetae_018.txt.gz
Theta_e
329 328 329 328 323 317 316 314 312 310 307 304 302 302 301 301 305 304 304 305 304 309 314 312 312 312 314 317 316 317 317 317 317 317 316 317 318 320 322 323 324 325 325
330 326 324 320 315 312 311 308 306 303 301 300 300 300 298 302 302 299 301 301 301 303 306 307 307 307 310 311 311 312 312 312 312 313 314 315 317 317 317 318 319 321 322
329 323 320 315 310 308 305 302 300 300 299 299 298 298 297 301 298 298 298 298 297 298 299 301 302 302 305 306 307 309 310 309 308 309 310 312 313 313 315 317 318 320 321
324 323 316 309 304 302 301 300 299 298 297 297 297 297 296 299 297 296 296 295 296 296 296 295 294 296 299 300 303 305 306 305 304 305 305 307 309 310 311 313 314 315 315
320 317 309 304 301 301 300 298 297 296 295 295 296 296 295 298 298 297 295 295 294 295 294 293 292 291 293 297 300 301 301 302 302 302 304 305 306 307 308 308 310 311 312
313 307 304 302 300 300 298 296 295 294 293 293 295 295 296 298 299 297 296 294 294 294 294 292 291 290 291 293 296 297 297 299 299 301 303 303 303 304 305 307 308 308 309
304 303 303 301 299 299 295 294 293 293 292 292 293 294 295 295 295 295 294 293 293 293 292 291 290 290 289 290 293 293 295 296 298 300 301 301 301 303 304 304 306 307 307
302 302 302 300 298 295 294 293 292 292 291 292 291 291 291 292 294 294 293 294 293 292 291 291 289 289 289 289 290 292 292 294 296 297 298 299 301 303 303 304 304 304 305
301 301 300 298 296 294 293 292 291 291 291 291 292 290 288 289 290 291 293 291 292 291 290 289 288 288 288 288 289 289 290 293 294 295 297 298 300 301 301 301 302 303 304
299 298 297 296 295 293 292 291 290 290 290 289 290 289 289 290 289 288 290 290 289 288 288 287 287 287 287 288 288 288 290 291 292 294 295 297 297 298 299 300 302 302 302
297 296 295 295 293 292 291 290 290 289 289 289 288 288 288 288 288 287 287 287 287 287 286 286 286 286 287 287 288 289 290 290 292 293 294 295 296 297 298 299 299 300 300
295 295 294 293 291 290 290 289 289 289 289 288 288 287 287 287 287 286 285 286 286 286 286 285 286 286 287 287 287 288 288 289 290 291 292 293 294 295 296 297 297 297 298
294 293 292 291 290 289 289 289 289 289 288 288 287 287 287 286 286 286 285 285 285 285 285 285 285 286 286 286 286 287 288 289 289 289 290 291 292 293 294 294 294 295 295
294 292 291 290 289 289 289 288 288 288 288 287 287 287 286 286 286 286 285 285 284 284 284 285 285 286 286 286 286 287 287 287 287 288 289 290 290 291 292 292 292 292 292
292 291 290 289 288 288 288 288 288 287 287 287 287 286 286 286 286 286 285 285 284 284 284 285 285 285 285 285 285 286 286 286 287 287 288 289 290 290 290 290 290 290 289
291 290 289 288 288 288 288 288 287 286 286 286 286 286 286 286 286 285 285 284 284 283 284 284 284 284 285 285 285 285 285 286 286 286 287 288 288 288 288 288 288 288 288
289 289 288 288 288 288 287 286 286 286 286 286 286 286 286 286 285 285 285 284 284 284 284 284 284 284 285 285 284 284 285 285 285 286 286 287 286 286 286 286 287 288 289
288 288 288 288 288 287 286 285 285 286 286 286 286 285 285 285 284 284 284 284 284 284 283 283 284 285 284 284 285 285 285 285 285 283 284 284 284 285 285 286 287 287 287
288 287 287 287 287 286 285 285 286 287 286 286 285 284 284 284 284 284 284 284 284 284 284 285 284 284 284 285 285 284 283 282 282 282 282 283 283 284 284 285 285 286 286
287 287 287 286 286 285 284 285 287 287 286 286 285 284 283 283 283 284 284 284 285 284 284 284 284 285 285 283 282 281 281 281 282 282 282 282 282 282 283 283 283 284 284
287 287 286 286 285 284 284 286 287 287 286 285 284 283 283 283 284 285 285 284 284 284 285 286 284 283 283 282 281 281 281 282 282 282 281 281 281 281 281 281 282 282 282
286 286 286 285 284 283 283 286 287 286 286 284 284 284 284 283 283 284 284 284 285 287 284 284 283 282 281 281 281 282 282 282 282 282 282 282 282 281 281 281 281 282 283
286 285 285 284 283 283 284 285 286 286 285 284 284 284 283 283 283 284 284 284 285 284 283 283 281 281 281 281 282 282 282 282 282 282 281 281 281 280 280 280 281 282 283
285 285 284 283 283 283 283 284 285 285 284 284 284 284 284 284 284 284 284 285 283 282 281 281 281 282 283 282 281 282 282 282 281 281 280 281 280 280 280 280 281 282 283
285 284 283 283 283 282 282 283 284 284 284 284 284 284 284 283 283 284 285 283 282 281 280 281 283 282 281 281 281 282 281 280 280 280 280 280 280 280 280 280 281 282 283
283 283 283 282 282 282 282 283 284 284 284 283 284 283 283 283 283 285 283 282 280 280 281 282 279 278 278 279 280 280 280 280 280 280 280 280 280 280 281 281 281 281 281

GFSMA_925_thetae_021.txt.gz
Theta_e
328 328 327 327 324 318 317 315 311 307 304 301 301 301 300 301 302 303 304 304 306 311 311 312 310 312 315 315 314 315 315 315 315 315 316 317 319 319 319 320 321 323 325
328 327 325 320 316 314 311 308 303 301 300 299 299 299 298 301 301 300 301 301 301 304 306 306 306 307 309 309 310 312 312 311 311 312 312 313 316 316 317 319 320 321 322
329 324 322 316 313 308 304 301 300 299 299 298 297 297 296 299 298 298 297 297 297 297 299 301 301 300 302 304 305 308 308 308 308 307 308 308 309 312 313 314 316 317 317
326 323 321 313 305 302 301 300 299 298 297 297 297 296 296 297 296 296 295 295 295 295 294 294 293 293 297 299 301 303 304 304 304 305 305 306 307 309 310 310 311 313 314
322 320 313 305 301 301 301 299 297 296 295 296 296 295 295 296 297 296 295 294 294 293 293 293 292 291 291 295 297 300 301 301 302 303 303 305 306 306 307 307 308 310 311
317 311 307 302 301 302 299 297 295 294 293 294 295 295 296 297 298 297 296 293 293 293 292 291 291 290 290 290 294 296 297 298 299 300 301 303 304 304 304 305 307 307 309
306 304 304 302 301 301 297 295 294 293 292 292 294 295 294 294 295 295 295 293 293 292 292 291 290 290 290 289 289 292 294 296 296 298 300 301 302 302 303 306 306 307 307
302 304 304 302 299 298 295 294 293 292 291 291 292 293 296 295 294 293 292 293 292 291 291 290 289 289 289 289 289 291 291 293 294 297 298 299 300 301 302 304 304 305 305
302 303 302 300 297 295 294 292 291 291 292 290 291 292 294 294 292 292 292 291 291 290 289 289 288 288 288 288 288 289 290 291 293 295 297 298 299 300 301 302 302 303 304
300 300 299 297 295 293 292 291 290 290 290 291 290 289 289 290 292 292 291 291 289 288 288 288 288 287 287 287 288 288 289 290 292 294 295 297 298 299 300 300 301 302 303
298 297 297 295 293 292 291 290 290 289 289 289 289 289 289 289 289 290 290 290 288 288 288 287 287 287 287 287 287 287 289 290 291 292 294 295 296 297 298 299 299 300 301
296 295 294 293 292 291 290 290 289 289 289 288 288 287 288 288 288 288 289 289 288 288 287 286 286 286 286 287 287 287 287 288 290 291 292 293 294 295 295 296 297 298 299
294 293 293 292 291 290 289 289 289 289 288 288 287 287 287 287 287 287 287 288 288 287 286 286 286 286 286 286 286 286 287 287 288 289 290 291 292 292 293 293 294 295 296
294 292 292 291 290 289 289 289 289 288 288 287 287 287 286 286 286 286 286 287 288 288 287 287 286 286 286 285 285 286 286 286 286 287 288 289 290 290 290 290 292 293 293
293 291 290 290 289 289 289 289 288 287 287 287 286 286 286 286 286 286 286 286 286 287 287 286 286 285 285 285 285 285 285 286 286 287 287 287 288 288 290 290 291 290 291
292 291 290 289 288 288 288 288 287 286 286 286 286 286 286 285 285 285 285 285 285 285 287 286 286 285 285 285 285 285 285 285 285 286 286 287 287 288 287 288 289 289 289
291 290 289 288 288 288 288 287 286 286 286 286 286 285 285 285 285 285 285 285 285 285 286 285 285 285 285 285 285 285 285 285 285 285 285 285 285 286 286 286 287 287 288
289 289 288 288 288 287 287 286 286 286 286 286 286 285 285 284 284 284 284 284 284 284 285 286 285 285 285 285 285 285 285 284 283 282 283 284 284 285 285 286 286 287 287
288 288 288 288 287 286 286 285 286 286 286 286 286 285 284 283 283 283 284 284 284 284 284 285 285 285 285 285 284 283 283 282 282 282 282 283 283 284 285 285 286 286 286
287 287 287 287 286 286 285 285 286 287 286 286 286 284 283 283 283 284 284 285 285 285 285 285 285 286 284 284 283 282 282 282 282 282 283 283 283 283 283 284 284 284 284
287 287 287 286 285 285 284 286 287 287 286 286 285 284 283 284 284 285 285 285 284 285 286 287 285 284 284 283 282 282 282 283 283 282 282 282 282 282 282 283 283 283 283
287 286 286 285 285 284 284 286 287 286 285 285 284 284 284 284 283 284 284 284 285 285 287 285 284 284 283 282 282 283 283 283 283 282 283 282 282 282 282 282 282 282 283
286 286 285 284 283 283 284 285 286 286 285 284 284 284 283 283 283 283 283 284 285 286 284 283 283 282 282 282 283 283 282 283 283 282 282 282 282 282 282 281 282 282 283
285 285 284 283 283 283 283 284 285 285 284 284 284 283 283 283 283 284 284 285 285 283 282 282 282 282 283 283 282 282 282 282 282 281 281 283 281 282 281 281 281 282 283
284 284 283 283 282 282 282 283 284 284 284 284 283 283 283 283 283 284 285 284 283 282 281 282 283 283 281 281 281 281 282 281 282 281 280 281 281 282 281 282 282 282 283
284 283 282 282 282 282 281 283 284 284 284 283 284 283 283 283 283 284 284 283 282 281 282 283 280 279 279 279 280 280 280 280 280 281 281 281 281 282 283 282 283 282 283

GFSMA_925_thetae_024.txt.gz
Theta_e
330 329 325 322 325 320 314 312 310 307 305 303 304 303 304 304 303 305 307 305 311 312 312 311 311 312 313 312 313 315 314 314 314 314 314 315 316 319 320 321 322 322 323
329 327 326 325 319 315 313 307 305 303 302 301 302 302 301 303 302 303 303 304 304 306 306 306 305 305 306 307 308 310 311 311 311 310 310 311 311 312 315 316 317 318 319
328 326 324 321 316 311 305 304 302 302 302 301 301 301 300 300 301 300 301 300 300 298 298 300 300 300 300 302 303 305 306 307 306 306 307 307 308 309 311 312 313 314 315
328 324 322 318 312 304 302 302 302 302 301 301 301 301 300 300 299 299 299 298 298 298 297 294 294 293 293 297 299 301 303 304 303 304 305 306 307 308 309 309 309 310 311
326 324 320 310 303 302 302 300 300 300 300 300 299 299 300 300 299 298 298 297 297 297 296 295 293 293 292 294 297 299 300 301 301 302 303 304 305 306 308 308 308 308 309
323 322 311 302 302 302 300 299 299 298 298 298 298 299 300 301 299 299 299 296 296 295 295 295 294 294 293 293 295 296 297 298 299 300 300 302 303 305 305 306 306 307 309
319 312 305 301 301 301 299 298 298 297 297 296 298 300 299 298 299 300 298 296 296 295 294 294 293 293 293 292 293 293 295 296 297 298 299 301 302 303 304 304 305 306 308
310 303 302 301 300 299 298 297 297 297 296 295 296 298 301 300 298 298 296 295 295 294 294 293 292 292 292 292 291 292 292 293 295 296 298 300 301 302 302 303 304 305 306
303 301 301 300 299 298 297 296 296 296 297 295 294 295 299 300 296 296 296 295 295 293 293 292 292 291 291 291 291 291 291 291 293 295 297 298 299 300 301 302 303 304 304
299 299 299 298 298 297 296 294 294 294 294 295 294 293 293 293 296 296 295 294 294 292 292 292 291 291 290 290 290 290 290 290 292 293 295 296 297 299 299 300 301 302 303
297 297 298 297 296 295 294 293 293 293 293 293 293 293 293 293 292 293 295 295 293 293 292 291 290 290 290 289 289 289 289 289 290 292 293 294 296 297 297 298 299 299 300
296 296 295 295 294 294 293 292 292 292 292 291 291 291 291 292 292 292 293 293 292 292 291 290 289 289 289 289 288 288 288 288 289 290 291 292 293 294 295 296 296 297 298
296 295 294 294 293 292 292 292 292 291 291 291 291 291 290 290 290 290 290 291 292 291 291 290 290 289 288 288 288 287 287 288 288 288 289 291 292 292 292 293 293 294 294
296 294 293 293 292 291 291 291 291 291 290 290 290 290 290 289 289 289 289 289 291 291 290 290 289 289 288 287 287 287 287 287 287 288 288 289 289 290 290 290 291 292 293
294 293 292 292 291 290 290 290 290 290 289 289 289 289 289 289 289 288 288 288 289 290 290 289 289 288 287 287 287 286 287 287 287 287 287 288 288 288 288 289 290 290 291
292 292 291 291 290 290 290 289 289 289 289 289 289 289 289 288 288 288 288 287 287 288 290 288 288 287 287 287 286 287 287 287 286 286 287 287 287 287 287 288 288 289 289
292 291 291 290 290 290 289 289 288 288 289 289 289 288 288 287 287 287 286 286 286 286 288 287 287 287 286 286 287 287 286 286 286 285 285 285 285 286 287 287 288 288 289
291 290 290 289 289 288 288 288 288 288 289 288 288 288 287 286 286 286 286 286 286 286 286 288 287 286 286 287 287 286 286 285 284 284 284 285 285 286 286 287 287 287 288
290 289 289 289 288 287 287 287 287 288 288 288 288 287 287 286 285 286 285 286 286 286 286 286 287 287 287 287 286 286 285 284 284 284 284 284 285 285 286 286 286 287 287
289 289 288 287 287 286 286 286 287 288 288 288 287 287 286 285 285 285 286 286 286 286 286 286 287 287 288 286 285 285 284 284 284 284 284 284 285 285 285 285 285 286 286
288 288 287 287 286 286 285 287 288 289 288 288 287 286 285 285 285 285 285 285 286 285 286 287 287 288 286 286 285 284 284 284 285 284 284 284 285 284 284 285 285 285 285
287 287 286 286 286 285 284 286 287 287 287 287 286 286 285 285 285 285 285 285 285 285 286 287 287 286 285 284 284 284 284 285 286 284 284 284 284 284 284 284 284 285 285
287 286 286 285 285 285 284 286 286 286 286 286 285 285 285 285 285 284 284 284 285 286 286 285 285 284 284 284 284 285 285 284 284 284 284 284 284 284 284 284 284 284 285
286 286 285 284 284 284 283 285 285 286 286 285 285 285 285 285 284 284 284 285 286 284 284 284 283 283 283 284 284 283 283 283 283 283 283 285 283 284 284 284 284 284 285
285 285 284 284 284 284 282 284 285 285 285 285 285 285 285 284 284 284 285 285 284 283 283 282 283 284 284 283 282 282 283 283 284 283 282 283 284 284 283 283 284 285 286
284 284 284 284 283 283 283 283 284 284 285 285 285 285 284 284 284 284 284 283 283 283 282 283 284 282 282 282 282 282 282 282 282 283 282 283 282 282 284 283 284 284 285

GFSMA_925_thetae_027.txt.gz
Theta_e
329 329 330 326 321 321 317 317 315 312 308 306 306 305 305 306 305 306 309 307 311 312 312 311 310 310 310 310 310 312 313 313 312 312 312 312 313 314 315 317 318 319 321
330 329 326 320 324 320 318 311 309 306 305 305 304 304 303 304 304 305 305 306 304 305 307 306 305 304 304 305 305 306 308 309 309 308 308 309 310 310 311 313 315 315 316
329 324 322 324 322 319 309 308 306 305 305 304 303 303 303 302 302 302 303 303 302 300 297 296 296 296 298 301 302 303 304 305 306 306 306 307 308 308 309 311 311 311 312
326 324 324 323 318 313 306 306 305 305 304 303 303 303 302 302 301 301 301 300 300 299 299 298 296 294 294 296 300 302 303 303 304 304 304 305 306 307 308 309 310 310 310
323 324 324 320 310 306 306 304 303 302 302 302 301 301 301 302 302 300 300 300 299 298 298 298 296 295 295 296 298 299 300 301 301 302 303 303 304 305 306 308 308 309 309
326 325 322 309 306 305 304 303 302 301 300 300 301 301 302 302 302 301 301 300 298 297 297 297 296 295 295 295 295 296 298 299 300 300 301 302 303 304 305 306 307 307 307
323 321 313 306 305 305 303 302 301 301 300 299 301 302 302 300 300 301 301 299 298 297 296 296 295 294 294 294 294 294 295 296 298 299 300 300 301 303 304 304 305 306 306
321 315 307 305 304 302 301 301 301 301 299 298 298 300 304 302 300 300 299 298 297 296 296 295 294 294 293 292 292 293 293 294 295 297 298 299 300 302 302 303 304 305 305
315 307 305 304 303 302 301 300 299 299 300 298 296 297 302 303 298 299 298 297 296 296 295 294 294 293 293 292 292 292 292 292 293 295 296 298 299 300 300 301 302 303 304
305 304 303 302 302 301 300 298 298 297 297 298 297 295 295 295 297 297 297 297 297 294 294 294 293 292 292 291 291 291 291 291 292 293 295 296 297 298 299 299 300 301 301
303 303 301 301 300 299 298 297 296 296 295 296 295 295 295 295 295 295 296 296 295 295 294 294 293 292 291 291 290 290 290 291 291 292 293 294 295 296 297 297 298 298 299
302 301 299 299 298 297 296 296 295 295 294 294 294 294 294 294 294 294 294 294 294 293 293 293 292 291 291 290 290 290 290 290 290 291 292 293 294 295 295 295 295 296 296
298 298 298 298 297 296 295 295 294 294 294 293 293 293 292 292 292 292 292 293 293 292 292 292 292 292 291 290 289 289 289 289 289 290 291 292 292 292 292 292 293 293 294
298 298 297 297 295 294 294 294 294 293 293 293 292 292 292 292 291 291 291 291 292 292 291 291 291 291 290 289 289 289 288 288 288 289 290 290 290 290 290 290 291 291 291
299 297 296 295 294 293 293 293 293 292 292 292 292 292 291 291 291 290 290 290 290 291 290 290 290 290 289 288 288 288 287 287 288 289 289 289 289 289 289 289 290 290 290
297 296 295 294 293 293 292 292 292 291 291 291 291 291 291 290 290 289 289 289 289 289 289 289 289 288 288 288 288 287 287 288 288 287 287 288 288 288 288 288 289 289 290
295 295 294 293 293 292 291 291 291 291 291 291 291 290 290 289 289 288 288 287 287 288 288 288 288 288 288 287 287 287 288 287 287 287 286 287 287 287 288 288 288 289 289
294 294 293 292 292 291 290 290 290 290 290 290 290 290 289 289 288 287 287 287 287 287 287 288 288 287 287 287 287 288 287 287 286 286 286 286 287 287 287 288 288 288 289
293 292 292 291 291 290 289 289 289 290 290 290 290 289 289 288 287 287 287 287 287 288 287 288 287 287 287 287 287 288 286 286 285 285 285 286 286 286 287 287 288 288 288
292 291 291 290 289 288 288 288 289 290 290 290 289 289 288 288 287 286 286 286 287 286 287 286 286 286 287 287 287 286 286 285 285 285 285 286 285 286 286 286 286 287 287
291 290 289 288 288 288 287 287 289 289 289 289 289 288 288 287 286 286 286 286 286 286 286 286 286 287 287 286 285 285 285 285 284 285 285 284 285 285 285 285 285 286 286
289 289 288 288 287 287 286 285 288 288 288 288 288 287 287 286 286 286 286 286 286 286 286 286 287 287 286 285 285 284 284 284 286 284 284 284 284 284 285 285 285 286 286
289 288 287 287 287 286 285 285 286 287 287 287 287 286 286 286 286 285 285 285 285 285 286 286 286 285 285 284 284 284 285 285 284 283 283 284 284 284 284 284 285 286 286
288 288 287 286 286 286 285 284 285 286 286 286 286 286 286 285 285 285 285 285 285 285 285 285 284 284 284 284 285 285 284 283 283 283 284 284 284 283 283 284 284 285 286
287 286 286 286 286 286 285 284 285 285 285 286 286 286 285 285 285 285 285 285 285 284 283 283 284 284 285 285 284 284 283 283 283 283 283 283 283 284 283 283 283 285 286
286 286 286 286 285 284 284 284 284 284 285 285 285 285 285 285 285 285 285 285 284 283 283 283 284 283 283 282 283 283 283 284 283 282 282 282 282 282 283 283 283 283 284

GFSMA_925_thetae_030.txt.gz
Theta_e
326 327 331 329 325 323 318 317 314 311 308 306 305 305 304 305 305 306 307 307 310 312 312 311 310 309 308 308 308 308 309 310 310 310 310 310 311 311 312 313 315 317 318
328 330 327 326 325 321 317 312 310 307 305 305 304 303 303 303 303 304 305 305 303 305 306 305 304 304 304 304 305 305 306 307 308 308 307 308 309 309 310 311 312 313 313
330 329 327 325 324 320 311 310 307 306 305 304 303 303 303 302 302 302 303 302 301 300 298 297 296 297 298 301 303 304 305 305 305 306 306 307 307 307 308 309 310 311 312
331 329 325 323 321 314 309 307 306 305 303 303 302 302 302 302 301 301 301 300 300 299 299 299 297 296 296 298 301 302 303 304 304 304 305 305 306 306 307 308 309 310 311
331 327 324 323 319 309 306 304 304 303 302 301 301 300 301 301 302 301 300 300 299 299 298 297 297 296 296 297 298 300 301 302 302 302 303 304 304 305 306 307 308 309 309
328 324 322 321 310 307 305 304 303 302 301 300 301 301 302 302 302 301 300 300 299 298 297 296 295 295 294 296 297 297 298 299 300 301 301 302 303 304 304 305 306 307 307
326 322 321 310 308 306 304 303 302 301 301 299 301 301 302 301 301 301 301 301 298 298 297 296 295 294 294 293 294 294 296 297 298 299 300 301 301 302 303 304 305 305 306
322 320 316 309 306 305 303 302 302 301 299 298 297 298 299 299 299 300 300 298 297 296 296 295 295 294 293 293 292 294 294 294 295 297 299 299 300 301 301 302 303 303 304
318 316 311 307 305 304 302 302 301 301 299 298 296 296 296 297 295 298 298 298 297 296 296 295 294 294 293 292 292 291 292 293 294 295 297 298 298 299 300 301 301 302 303
312 310 307 306 303 303 302 301 300 299 299 298 296 296 295 295 293 293 296 296 296 295 295 295 294 294 293 292 291 291 291 292 293 295 296 296 297 298 299 299 300 300 301
307 306 305 304 303 302 300 299 298 298 296 296 296 295 295 295 295 293 292 293 294 294 293 293 293 293 292 292 291 291 291 292 293 293 294 295 296 297 297 298 298 299 298
303 303 303 302 301 301 299 298 297 296 295 294 294 294 293 293 292 292 290 290 291 292 292 292 292 292 292 292 291 290 290 291 291 292 292 293 294 295 296 296 295 296 296
301 301 301 300 300 299 297 297 296 295 294 294 294 293 293 292 292 292 291 290 289 291 291 291 291 291 291 290 290 289 290 290 290 290 291 292 293 293 293 293 293 293 294
301 300 300 299 299 297 296 296 295 294 293 293 293 292 292 292 292 291 291 290 289 289 289 290 290 289 289 289 289 289 288 288 289 289 290 291 291 291 291 291 292 292 292
300 299 298 297 296 295 295 294 294 293 292 292 292 292 291 291 291 291 290 290 289 288 288 289 289 289 288 288 288 288 288 287 288 289 290 289 289 290 290 290 290 290 291
299 298 297 296 294 294 294 293 293 292 291 291 291 291 291 291 290 290 289 289 288 288 287 287 287 287 287 288 288 287 287 287 287 288 288 288 289 289 289 289 290 290 290
298 297 295 294 293 293 292 292 292 291 291 291 291 291 290 290 289 289 288 287 287 287 286 286 286 287 287 287 287 287 286 287 287 287 287 287 288 288 289 289 289 289 290
296 295 294 293 292 292 291 291 290 290 290 290 290 290 290 289 289 288 287 287 287 287 287 286 287 286 286 286 286 286 286 287 287 286 286 287 287 287 288 288 289 289 289
294 294 293 292 291 291 290 290 289 289 290 290 290 290 289 289 288 288 287 286 286 286 286 286 286 286 285 285 286 286 287 286 285 285 285 285 285 286 287 287 288 288 288
293 292 291 291 290 290 289 289 289 289 290 290 290 289 289 288 288 287 286 286 286 286 286 285 285 285 285 285 286 286 284 284 284 284 284 284 286 286 285 286 286 286 287
291 291 290 290 289 289 288 288 288 289 289 289 288 288 288 287 287 287 287 287 287 286 286 285 285 285 285 286 284 285 284 284 283 283 284 285 284 284 283 284 284 285 286
290 290 289 289 288 287 287 286 287 287 286 287 287 287 287 286 286 286 286 286 286 286 286 285 286 286 285 284 284 283 283 283 284 284 284 283 283 283 283 283 284 285 286
289 289 288 288 287 287 287 285 286 286 285 286 286 286 286 286 286 285 285 286 285 285 285 285 285 284 284 284 284 283 284 284 285 284 283 283 283 283 283 283 283 284 286
289 288 287 287 287 287 286 285 285 284 285 285 286 286 286 285 285 286 286 286 285 285 285 284 284 283 284 284 285 285 285 284 283 283 283 283 283 283 282 282 283 284 284
288 287 287 287 286 286 285 284 285 284 284 284 285 285 285 285 285 286 286 285 285 284 283 283 283 284 284 284 284 283 283 283 283 283 283 282 282 282 282 281 282 283 284
287 287 286 286 285 285 284 285 285 284 284 284 284 284 284 285 285 285 285 285 284 283 283 283 283 282 282 282 282 282 282 282 282 282 282 282 281 281 281 281 282 281 281

GFSMA_925_thetae_033.txt.gz
Theta_e
329 329 327 329 328 325 320 316 314 311 309 306 304 304 304 304 304 305 306 306 310 313 312 310 309 308 307 307 307 307 308 308 309 310 309 309 310 310 311 311 313 314 316
327 326 328 330 324 323 317 315 313 310 306 305 304 303 303 303 303 304 305 304 303 305 305 305 304 304 304 305 306 307 307 307 307 308 308 308 309 309 309 310 311 312 313
326 326 330 326 324 322 316 312 310 306 305 304 303 303 302 302 302 302 303 302 301 299 299 299 300 301 301 302 303 305 305 306 306 306 307 307 307 308 308 309 309 310 311
326 328 327 326 325 319 312 311 308 306 304 303 302 301 302 302 301 301 301 300 300 299 299 298 297 298 299 300 301 303 303 304 304 304 305 305 306 306 307 308 309 309 310
329 329 329 326 324 315 308 309 306 304 303 302 301 300 300 301 301 301 300 300 299 299 298 297 296 295 296 298 299 301 301 301 302 302 303 304 304 305 306 306 307 308 308
330 330 329 325 320 311 309 306 305 303 302 301 301 301 301 301 302 301 300 300 300 298 298 296 296 295 295 294 297 297 298 299 300 301 301 302 303 303 304 305 305 306 307
331 331 327 322 314 312 308 305 304 303 301 301 300 300 301 300 301 301 301 300 300 298 297 296 295 295 294 294 293 294 296 297 298 299 300 301 302 302 303 303 304 304 305
331 330 325 318 310 308 304 304 304 302 301 299 299 298 297 299 299 299 300 301 298 296 296 295 295 294 294 294 293 293 293 294 296 297 298 300 300 301 301 302 303 303 304
330 328 323 315 310 308 305 304 304 304 301 298 297 297 296 297 293 298 298 297 296 296 296 295 294 294 293 293 293 292 291 293 294 296 297 299 299 299 300 301 302 302 303
327 323 317 311 309 306 304 304 303 302 302 299 297 296 295 295 293 292 296 296 295 295 294 294 293 293 293 292 292 292 291 292 293 295 296 297 298 298 299 300 300 301 302
321 319 309 308 307 304 304 303 301 301 300 299 298 296 295 295 294 292 291 292 294 294 293 293 292 292 292 292 291 291 291 292 293 294 295 296 296 297 297 298 299 299 299
311 308 307 307 305 303 303 302 301 299 297 296 295 294 294 293 292 291 289 289 290 291 292 291 291 291 290 290 290 290 291 291 292 292 293 293 294 295 296 297 296 296 296
306 305 305 304 304 302 301 300 299 298 296 295 294 293 293 292 292 292 291 289 288 290 290 290 290 290 289 289 288 289 289 290 290 290 291 292 293 294 294 294 294 294 294
305 304 304 304 302 300 299 298 297 296 295 294 293 293 292 292 292 291 291 290 287 287 289 289 289 288 288 288 287 288 288 288 288 289 290 291 291 291 291 291 292 293 293
303 303 303 301 300 298 298 297 296 295 293 293 292 292 292 291 291 291 290 289 288 287 286 287 288 288 287 286 287 287 288 287 287 288 288 289 290 290 290 291 291 291 292
301 301 301 299 299 296 296 295 294 293 292 292 292 291 291 291 290 290 289 289 288 287 285 287 286 286 286 287 287 287 286 286 286 287 288 289 288 289 289 290 290 290 291
300 300 299 298 297 295 294 293 293 292 291 291 291 291 291 290 290 289 288 288 287 287 285 286 286 286 286 286 285 285 285 285 285 286 287 287 288 288 288 289 289 289 290
299 298 298 295 294 294 293 292 292 291 290 291 290 290 290 290 289 289 288 287 287 286 286 285 285 285 285 285 285 285 285 285 286 285 285 286 286 287 287 287 288 289 289
298 297 295 296 293 292 291 291 290 290 290 290 290 290 290 289 289 288 287 287 286 286 286 286 285 285 285 285 284 284 285 285 284 284 284 284 285 286 287 287 288 287 288
294 294 293 292 291 291 290 290 289 289 290 290 290 289 289 288 288 287 287 287 287 286 286 286 285 284 285 285 285 285 284 284 284 283 283 284 284 285 286 285 285 286 286
293 293 293 291 290 289 289 289 290 289 288 288 288 287 287 287 287 288 288 287 287 286 286 285 284 284 285 285 284 284 283 283 283 283 283 283 284 284 283 283 283 284 285
291 291 291 290 289 289 291 289 287 287 286 285 286 286 286 286 286 286 287 286 287 286 286 285 285 285 284 284 283 283 283 283 283 284 284 284 283 282 282 282 283 284 285
292 292 289 290 293 289 287 286 286 285 284 285 285 285 285 285 286 285 285 286 286 286 286 286 285 284 284 283 283 283 283 284 285 284 283 283 282 282 282 282 283 283 284
289 292 292 287 287 287 286 285 286 284 284 284 284 285 285 285 285 285 286 286 286 285 285 285 284 284 283 283 284 285 284 283 282 282 282 282 282 282 282 282 282 283 284
291 287 287 286 286 286 285 285 285 284 284 283 284 284 284 284 284 285 286 285 285 285 284 283 283 284 284 284 283 283 282 281 281 281 281 281 281 281 281 281 281 282 283
287 286 286 286 286 285 285 285 285 284 284 284 284 284 284 284 284 285 286 285 284 283 283 283 283 283 281 281 281 281 281 281 280 281 281 281 281 281 281 281 281 281 281

GFSMA_925_thetae_036.txt.gz
Theta_e
331 332 330 325 328 325 322 319 316 312 309 307 305 304 304 305 305 306 306 308 313 314 313 311 309 308 308 308 308 308 308 309 309 310 309 309 310 310 311 311 312 313 314
330 332 328 325 329 326 320 317 313 310 308 305 304 303 303 303 304 304 305 305 305 308 308 306 305 304 305 305 306 307 307 308 308 308 308 308 308 309 309 310 311 311 312
329 330 327 328 328 323 319 315 311 309 306 304 303 302 302 302 302 303 303 303 302 300 301 302 302 302 302 303 305 305 305 306 306 306 307 307 308 308 308 309 309 310 311
327 327 326 328 327 320 316 313 311 308 305 303 302 302 302 301 301 301 302 301 300 299 299 298 297 298 300 301 302 304 304 304 304 304 305 306 306 307 307 307 308 309 309
327 326 326 329 324 319 315 313 310 306 304 303 301 300 300 301 301 301 300 300 299 299 298 297 296 296 295 297 299 301 301 301 302 303 304 304 305 305 305 306 306 307 308
327 325 327 327 322 317 314 310 308 304 304 303 301 301 301 301 301 300 300 299 299 299 298 297 296 295 295 294 295 297 298 299 300 301 301 302 303 303 304 304 305 305 306
327 326 327 325 321 319 316 309 305 304 302 302 301 301 301 301 301 300 300 299 299 299 297 296 295 295 294 294 294 294 296 297 298 299 300 301 302 302 303 303 304 304 305
328 328 327 325 321 318 310 308 305 304 302 300 300 299 297 299 299 299 300 300 299 297 296 295 294 294 294 293 293 293 293 294 296 297 298 300 301 301 302 302 303 304 304
329 329 328 327 322 317 312 308 305 306 303 299 299 299 296 298 294 296 298 298 296 296 295 294 294 293 293 293 292 292 292 293 294 296 298 299 300 300 301 301 302 302 303
329 329 329 325 322 317 313 308 304 305 305 301 297 296 296 296 293 294 295 296 295 295 294 294 293 292 292 291 291 291 291 293 294 295 297 298 299 299 299 300 301 301 302
326 328 327 323 320 316 311 307 304 304 304 302 300 296 295 294 294 292 292 293 294 294 294 293 292 291 291 291 290 290 292 293 294 294 296 297 297 297 298 298 299 300 300
322 324 323 319 315 314 308 305 304 303 302 302 299 297 296 294 292 292 289 289 290 292 292 292 291 290 290 289 289 288 290 291 292 293 293 294 295 295 296 296 297 298 298
317 318 317 312 308 310 305 303 303 301 300 299 298 296 295 294 293 292 291 289 288 290 291 291 290 289 289 288 288 287 288 289 290 290 291 292 293 294 294 294 295 294 295
315 314 309 307 306 305 303 302 300 298 297 297 296 294 293 292 292 292 291 290 287 287 288 289 289 288 288 287 286 287 287 287 288 289 290 291 290 291 291 292 292 292 293
314 308 306 307 305 303 302 299 298 297 296 295 294 293 293 292 292 291 291 290 289 287 285 287 288 288 287 286 286 286 286 286 287 287 288 288 289 290 291 291 291 292 292
311 307 305 305 302 302 299 297 297 295 294 293 293 292 292 291 291 290 290 289 288 288 285 286 286 286 286 285 285 285 285 285 285 286 287 288 288 289 289 290 290 291 291
307 304 303 301 301 299 296 296 295 295 292 292 292 291 291 291 290 290 289 288 288 287 284 285 286 286 286 286 285 285 284 284 285 285 286 287 288 288 289 289 289 289 290
303 300 299 299 297 296 295 299 294 292 291 291 291 290 290 290 290 289 289 288 287 287 286 284 285 286 286 285 285 284 284 285 285 284 285 286 287 287 287 288 288 289 289
299 298 298 297 297 297 293 292 293 291 290 290 290 290 290 290 289 289 288 287 287 286 286 285 285 285 285 285 284 284 284 284 283 284 284 284 285 285 286 287 288 288 288
296 296 296 297 294 294 293 290 289 289 290 290 291 291 289 289 288 288 287 287 287 286 286 286 285 285 285 285 284 284 283 283 283 283 283 284 284 285 285 286 286 286 286
295 295 295 293 291 289 289 289 290 292 292 290 288 287 287 287 287 288 288 287 287 287 286 286 284 284 284 284 284 283 283 282 282 283 283 283 284 284 283 283 283 284 284
293 294 292 291 290 290 290 292 292 290 287 286 285 286 286 286 286 287 287 287 287 287 287 286 285 285 284 284 283 283 282 282 283 284 284 284 283 282 282 282 282 284 285
295 294 292 291 290 293 293 289 287 286 284 284 285 284 284 285 285 285 285 286 286 286 286 286 285 284 284 284 283 283 282 283 284 283 282 282 282 282 282 282 282 283 284
292 292 293 293 292 289 288 288 286 284 284 284 284 284 284 284 284 285 285 286 286 285 285 285 285 284 284 283 284 284 284 283 282 282 281 281 281 281 281 281 282 283 283
293 293 291 287 286 288 286 285 285 285 284 284 284 284 284 284 284 285 285 285 285 285 284 284 284 284 284 284 284 283 282 281 281 281 281 280 281 281 281 280 281 282 283
289 286 286 286 286 285 286 286 285 285 284 284 284 284 283 283 284 285 286 285 283 283 283 283 283 282 281 281 281 281 281 280 280 280 281 281 281 280 281 281 281 282 281

GFSMA_925_thetae_039.txt.gz
Theta_e
332 331 330 326 327 328 328 319 317 314 310 308 306 304 304 305 305 306 308 312 316 315 313 311 310 309 308 308 309 309 309 309 309 309 310 310 310 311 311 312 312 312 313
331 332 331 329 327 328 324 319 317 313 309 306 305 304 303 303 305 305 305 307 309 310 309 307 306 305 306 306 307 308 307 308 308 308 309 309 309 309 310 310 311 311 312
328 330 331 330 325 328 323 318 314 310 308 305 303 303 302 302 303 304 304 303 303 303 304 304 303 303 303 305 306 306 306 306 306 306 307 307 307 308 308 309 309 310 310
328 328 329 330 326 328 322 316 312 309 307 304 303 302 302 301 301 303 303 302 301 299 299 298 297 300 301 301 302 304 304 304 304 304 306 306 306 306 307 307 307 308 308
324 327 329 329 327 327 319 314 311 308 306 303 302 301 301 301 301 301 302 301 299 299 298 297 297 296 295 297 299 300 301 302 302 303 303 304 305 305 305 306 306 306 307
326 326 327 327 326 325 317 312 310 308 305 303 301 300 300 301 300 300 300 300 299 299 298 297 296 295 295 295 295 297 299 299 300 301 301 302 303 304 304 305 305 305 306
328 327 326 325 325 326 320 314 308 307 303 302 301 300 300 301 300 299 299 299 299 299 298 296 295 295 294 294 293 294 296 297 298 299 300 301 302 303 304 304 304 305 305
331 328 326 325 326 324 317 311 310 305 302 301 300 299 298 298 300 300 299 299 299 299 297 296 295 294 294 293 293 293 293 295 296 297 299 300 301 302 303 303 303 304 304
333 330 327 325 326 324 318 313 311 309 303 300 300 300 296 298 295 297 298 299 299 297 295 294 294 293 293 292 292 292 292 292 295 296 298 300 301 301 302 302 303 303 304
332 330 327 325 326 323 317 315 312 309 305 302 298 298 298 298 294 294 295 296 295 295 295 294 293 292 292 291 291 291 292 294 295 297 298 299 300 300 301 301 301 302 302
330 330 328 326 324 322 317 315 312 307 305 305 302 296 295 295 294 292 292 292 294 294 294 293 292 291 290 290 289 289 291 292 294 295 296 297 297 298 299 299 300 300 300
328 326 326 325 323 321 317 314 312 307 305 305 303 301 300 296 293 292 290 290 290 293 292 292 291 290 290 289 288 288 288 290 291 292 293 294 296 296 297 297 297 298 298
324 325 323 323 322 320 317 313 307 304 304 302 302 299 297 296 295 293 292 289 289 290 291 291 291 290 289 288 288 287 287 288 289 290 292 293 294 294 294 294 294 295 296
326 324 321 321 319 315 314 309 304 302 301 299 298 296 295 294 293 293 292 290 287 287 288 290 289 289 288 288 287 286 286 286 287 288 289 290 291 291 291 292 293 293 294
323 323 321 319 314 310 307 303 301 299 297 296 295 295 295 293 292 292 292 291 290 287 286 288 288 288 288 287 286 286 286 285 286 287 288 288 289 289 290 291 291 292 292
317 316 313 311 308 305 303 301 299 296 296 295 294 294 292 292 291 291 290 290 289 289 286 288 287 287 287 286 286 286 285 285 284 286 287 288 288 288 289 290 290 291 291
313 311 306 306 305 303 300 298 296 295 295 295 295 293 291 291 291 290 290 289 289 288 285 286 286 286 286 286 286 285 285 284 284 284 285 286 287 288 289 289 289 289 290
308 306 305 303 300 298 296 296 296 296 297 294 292 292 291 290 290 290 289 289 288 287 286 284 285 286 286 286 286 285 285 284 284 283 285 286 287 287 287 288 288 288 289
304 302 300 297 296 296 295 296 298 295 293 291 290 290 289 290 289 289 289 288 287 287 286 285 284 285 285 285 285 285 284 283 283 283 284 284 285 285 286 287 288 288 288
298 296 296 296 296 296 297 294 293 291 290 290 290 290 291 291 289 288 288 287 287 287 286 286 285 285 285 285 285 284 283 283 282 283 283 283 284 285 285 285 286 286 286
295 295 295 296 295 294 293 291 289 290 290 291 292 291 287 286 287 288 288 288 287 287 286 286 284 284 284 284 284 284 283 282 282 282 283 283 283 283 283 283 283 284 284
293 294 294 293 292 290 291 291 290 292 292 291 287 285 285 285 285 285 286 287 287 287 287 286 286 284 284 284 284 283 283 282 283 283 283 283 282 282 282 282 282 284 285
294 294 292 292 292 292 292 292 291 289 285 284 284 284 284 284 284 284 284 285 285 286 286 286 285 284 284 284 284 283 283 282 282 283 282 282 281 281 281 281 282 283 284
292 291 292 292 292 291 290 289 287 284 284 284 283 283 283 284 284 284 285 285 285 285 285 285 285 284 284 284 284 284 284 283 282 281 281 281 281 281 281 281 281 283 284
292 292 292 292 291 289 289 288 285 285 284 284 284 284 284 284 283 285 285 285 285 284 283 283 283 284 284 284 283 282 281 281 281 280 280 280 280 280 280 280 281 283 283
292 291 287 286 287 287 287 286 286 285 285 284 284 284 283 283 283 285 285 285 282 282 282 283 282 282 281 281 281 281 280 279 279 280 281 280 280 280 280 281 281 282 281

GFSMA_925_thetae_042.txt.gz
Theta_e
331 331 332 329 325 328 328 325 319 317 313 310 308 305 305 305 306 308 317 318 316 316 314 312 311 310 309 309 310 310 310 310 310 310 310 310 310 311 311 312 312 313 313
330 332 331 329 325 327 328 326 318 315 311 308 306 304 303 304 305 306 309 313 312 312 311 309 307 307 307 308 308 308 308 308 308 308 309 309 309 309 310 310 311 311 311
329 331 330 330 328 326 327 323 318 313 309 307 305 303 302 303 304 304 305 306 307 307 307 306 305 304 305 306 306 307 306 306 306 306 307 308 308 308 308 309 309 309 310
328 329 331 330 330 326 326 322 317 311 307 306 304 302 302 302 302 304 304 303 302 301 302 300 299 302 302 302 303 304 303 304 304 304 305 305 306 307 307 307 307 308 308
327 328 328 330 331 326 327 323 315 310 307 306 303 302 301 301 301 302 303 302 300 299 299 298 297 296 296 298 300 300 301 302 302 303 303 303 304 305 306 306 306 307 307
324 326 328 328 329 327 327 322 315 308 307 305 301 300 300 300 300 301 302 301 299 299 298 297 296 295 295 295 296 297 299 300 300 301 301 302 303 304 305 305 306 306 306
328 322 322 325 328 328 327 321 311 308 306 302 300 300 300 300 300 300 301 300 299 299 298 297 296 295 295 295 294 294 297 298 298 299 300 301 302 303 304 305 305 305 306
332 326 324 325 327 327 325 319 312 307 304 302 301 299 297 298 299 299 299 299 299 298 298 297 296 295 294 294 294 293 293 294 297 298 299 300 302 303 303 304 305 305 305
333 330 328 327 326 326 325 321 314 312 305 301 302 302 296 298 296 297 298 299 298 298 298 296 295 294 294 293 292 292 291 292 296 298 299 300 301 302 303 303 304 304 304
335 333 331 328 326 325 323 323 315 311 309 305 300 300 299 300 296 294 294 296 297 297 296 294 294 293 293 292 291 291 292 293 296 297 299 300 300 301 301 302 302 303 303
334 334 333 330 327 325 322 322 317 311 308 309 304 297 296 296 295 294 293 292 294 294 294 294 293 292 292 291 290 289 289 292 293 294 296 297 298 299 300 300 301 301 301
329 330 331 331 328 326 323 321 317 313 309 306 304 303 300 296 294 293 292 291 292 293 293 293 292 291 290 290 289 288 288 290 291 292 293 295 296 297 298 298 298 299 298
327 328 328 327 327 325 323 318 315 313 309 304 304 301 301 300 298 296 294 290 290 291 292 292 291 291 290 289 288 288 287 287 289 290 291 293 294 294 294 295 295 295 296
328 329 329 327 326 323 319 315 311 310 308 303 302 300 298 296 297 295 293 291 288 288 289 291 290 290 289 289 288 287 286 286 287 288 290 290 291 291 291 292 293 293 294
327 324 322 320 319 317 316 313 310 307 303 301 300 297 296 295 293 294 293 292 292 288 288 288 289 288 288 288 287 286 286 286 287 287 287 288 289 289 290 290 291 292 292
325 322 320 316 314 312 311 308 306 303 300 298 296 295 292 292 291 292 291 291 290 289 287 289 288 288 288 287 287 286 286 285 285 285 286 287 287 288 289 289 290 291 291
320 318 315 313 310 307 306 305 301 298 296 294 293 293 293 293 292 291 290 290 289 288 287 287 287 287 287 287 286 286 286 285 285 284 285 286 287 288 288 289 289 290 290
314 313 310 308 305 304 302 299 296 294 295 295 296 294 292 292 291 290 289 288 288 288 287 285 286 286 286 286 286 286 286 285 284 283 284 285 286 287 287 288 288 289 289
309 307 304 302 300 298 296 295 295 295 296 295 293 291 289 289 290 291 291 291 290 287 287 285 285 285 285 286 286 285 285 284 283 283 283 284 285 285 286 287 288 288 288
301 300 298 297 296 295 295 296 296 294 292 291 290 290 290 291 291 291 289 288 287 287 287 286 285 285 285 285 285 284 284 283 283 283 283 283 284 284 285 285 286 286 286
296 296 295 294 294 295 295 295 294 292 291 290 290 292 292 290 288 287 288 288 288 287 286 286 285 285 284 284 284 284 283 282 282 283 283 283 283 283 283 283 283 284 284
293 293 292 293 294 293 293 292 291 291 292 292 290 287 285 285 285 285 286 287 287 287 287 286 286 284 284 284 284 283 283 282 283 283 283 283 282 282 282 282 283 283 285
292 292 292 293 292 293 293 292 293 292 291 287 285 284 284 284 284 284 284 285 285 286 286 286 285 285 284 284 284 283 283 283 282 283 282 282 281 281 281 282 282 283 284
292 292 292 292 292 291 292 292 289 286 284 284 283 283 284 284 284 284 285 285 285 285 285 285 284 284 284 284 284 284 283 282 281 281 281 281 281 281 281 281 281 282 283
292 292 291 291 290 289 288 285 285 284 284 284 284 284 284 283 283 284 285 285 285 284 283 283 283 283 283 283 282 282 281 280 280 280 280 280 280 280 280 280 281 282 283
290 290 289 288 288 288 288 287 286 285 284 284 284 283 282 283 284 285 286 285 282 282 282 282 282 282 281 281 281 280 280 279 278 279 281 280 280 279 280 281 281 281 281

GFSMA_925_thetae_045.txt.gz
Theta_e
330 329 330 331 325 328 329 328 325 318 316 313 310 307 306 306 308 316 321 320 316 318 315 314 313 311 310 311 311 310 311 311 310 311 311 311 311 311 312 312 312 313 313
328 328 330 332 329 326 328 327 323 318 314 311 309 306 304 305 306 310 315 317 314 314 313 311 309 308 309 310 309 309 309 308 309 309 310 310 310 310 310 311 311 311 312
328 328 331 332 330 324 327 327 321 316 312 309 307 305 303 304 305 306 309 311 312 310 309 308 307 306 307 308 307 308 307 306 306 307 308 308 308 308 308 309 309 309 310
330 329 330 331 329 327 326 327 322 315 310 308 307 304 302 303 304 304 306 306 307 306 306 304 303 304 303 303 304 304 304 304 304 304 305 306 306 307 307 307 308 308 308
329 329 329 330 330 329 326 326 320 316 311 307 305 303 302 301 302 304 304 304 303 302 301 299 298 299 297 299 301 301 302 302 302 303 304 304 304 305 306 307 307 307 308
327 328 328 328 330 330 328 325 321 314 309 308 304 301 301 300 300 302 303 303 301 300 299 298 297 296 296 296 296 298 300 301 301 301 302 302 303 304 305 306 307 307 307
331 327 326 328 328 330 330 326 322 311 307 305 301 299 299 300 300 300 302 302 300 299 299 298 297 296 295 295 295 295 295 300 300 300 301 302 302 303 305 305 306 306 307
334 331 327 326 327 327 327 327 324 310 306 305 302 301 304 301 299 299 300 301 300 299 298 298 297 296 295 295 295 294 293 293 297 299 300 301 302 303 304 305 305 306 306
335 334 332 328 324 325 326 327 324 316 305 303 303 305 303 308 300 298 298 298 299 298 298 298 297 296 295 294 294 293 292 293 297 299 300 302 303 303 304 304 305 305 305
333 333 333 331 325 323 324 326 325 318 310 306 301 302 303 302 305 301 295 297 298 298 297 297 296 294 294 293 292 291 292 292 295 297 298 299 301 301 302 303 303 304 304
331 331 331 332 328 325 324 324 323 317 312 308 307 298 296 297 298 300 302 295 295 296 296 296 294 293 293 292 291 290 290 290 294 295 296 297 298 299 300 301 302 302 303
331 329 329 329 328 327 326 325 322 319 315 308 309 306 303 298 295 296 296 295 296 293 293 293 292 292 292 291 290 289 289 289 291 292 294 295 297 297 298 299 299 299 300
327 328 329 328 326 326 323 321 318 317 314 309 308 307 304 300 300 297 296 292 293 291 291 292 292 291 291 290 289 288 288 287 288 290 292 294 294 294 294 295 295 296 297
328 327 326 326 328 326 323 317 315 313 312 309 308 306 301 299 298 297 298 296 293 291 290 291 290 290 290 289 289 288 288 287 287 289 290 290 290 291 291 292 293 294 294
328 328 325 322 321 320 318 314 312 309 309 307 306 303 300 297 295 298 299 297 295 293 292 289 290 289 289 289 288 287 287 287 287 288 288 288 288 289 290 290 291 291 292
324 325 323 320 319 317 315 312 309 307 306 305 302 300 296 295 296 294 293 293 292 291 292 289 288 288 288 288 287 287 287 286 286 287 287 287 288 288 289 289 290 291 291
319 320 321 319 316 314 312 309 307 306 304 301 298 295 294 293 293 292 290 290 291 292 290 289 290 290 288 287 287 287 286 286 286 285 286 286 287 287 288 289 289 290 290
316 317 317 315 312 309 307 306 304 300 298 294 292 293 293 293 292 292 292 292 290 290 289 289 287 286 286 287 287 286 286 286 285 285 285 286 286 287 287 288 288 289 289
311 310 311 308 305 304 302 300 298 295 294 293 294 294 293 292 292 291 290 291 291 290 289 286 286 285 286 286 286 285 285 285 284 284 284 284 285 286 286 287 288 288 288
303 300 299 299 298 297 296 295 294 294 295 294 294 293 292 292 292 291 291 289 288 287 286 286 286 286 285 285 285 284 285 285 284 284 283 284 284 285 285 285 286 286 286
297 296 296 295 294 293 293 293 295 295 294 292 291 292 292 291 290 289 288 288 288 287 287 286 286 286 286 285 285 285 284 284 284 283 284 284 283 283 283 283 284 284 284
293 293 293 293 293 294 295 296 295 293 292 292 291 290 289 288 286 286 287 287 287 287 287 286 286 286 286 285 284 284 284 284 284 284 283 283 283 283 283 283 283 284 285
293 293 294 294 294 293 292 291 292 292 291 290 288 286 284 284 284 284 284 285 286 286 286 286 286 285 285 284 284 284 284 283 283 283 283 283 283 283 283 282 283 283 284
291 292 292 292 292 291 291 292 292 291 287 284 283 283 284 284 284 284 284 285 284 284 285 285 284 284 283 284 284 283 283 283 282 282 282 282 283 283 282 282 282 282 283
292 292 292 291 290 289 287 286 284 284 284 284 284 284 284 283 282 284 285 285 285 284 284 283 283 283 283 283 282 282 282 282 281 281 281 281 281 282 281 281 281 282 283
290 289 288 288 288 288 287 285 285 285 284 284 284 283 282 283 284 285 286 285 283 282 282 282 282 281 280 281 281 280 280 280 280 280 281 280 281 281 281 282 282 281 281

GFSMA_925_thetae_048.txt.gz
Theta_e
332 333 333 331 329 330 331 330 327 320 316 313 312 313 313 313 315 318 320 322 320 319 317 315 314 313 312 313 312 312 312 311 311 312 312 312 312 312 313 313 313 313 314
331 332 333 333 331 329 329 328 326 319 315 312 310 310 311 311 312 315 316 319 316 316 315 314 311 311 311 311 310 311 309 309 309 310 310 310 311 311 311 311 311 311 312
330 330 331 332 333 331 328 327 324 318 314 311 310 308 310 310 311 313 314 314 315 314 313 311 309 308 309 310 309 309 307 306 307 307 308 308 308 309 309 309 309 310 310
331 331 331 332 332 332 328 326 322 317 314 311 310 308 308 309 309 310 312 312 311 310 309 309 307 306 307 306 306 305 304 305 304 304 305 306 306 307 308 308 308 309 309
332 331 331 331 332 331 328 326 322 319 315 312 310 308 306 307 308 308 309 309 309 308 307 305 302 305 302 302 303 302 303 303 303 303 304 304 305 305 306 307 308 308 308
333 331 331 330 331 331 329 325 321 317 316 313 308 306 305 304 305 307 307 307 306 306 305 303 301 301 297 297 298 299 300 301 302 302 302 303 303 305 305 306 307 308 308
333 333 331 330 330 330 330 326 322 317 312 311 307 306 305 304 303 303 306 306 304 304 303 302 301 300 297 296 296 296 295 300 301 301 302 302 303 304 305 306 307 307 308
333 333 332 331 330 329 329 328 323 316 315 309 312 313 313 306 302 302 303 304 304 302 301 300 300 298 298 297 297 295 294 294 296 300 301 302 303 304 305 306 306 307 307
333 332 332 331 330 329 328 328 323 318 316 309 310 317 315 317 307 303 302 302 303 302 301 300 299 298 297 296 295 294 293 293 295 300 302 303 303 304 304 305 306 306 306
332 332 332 331 330 329 327 326 323 320 320 313 307 307 306 307 310 304 300 300 301 301 301 300 298 296 295 295 295 295 294 292 294 298 299 300 301 302 302 303 304 304 305
331 330 330 329 330 328 326 325 321 319 320 318 310 307 303 302 302 306 308 300 299 298 299 298 297 295 294 294 294 294 291 291 293 296 296 298 299 300 301 302 302 303 304
331 329 328 328 328 328 326 324 320 317 317 318 311 310 309 309 306 304 306 301 300 298 297 296 295 294 293 293 293 292 290 290 290 293 294 296 297 298 298 299 299 299 300
330 328 327 327 327 326 325 324 321 317 316 315 313 311 307 308 305 301 301 296 298 292 293 293 293 292 292 292 291 290 290 289 288 290 293 294 295 295 294 294 295 296 297
330 328 327 326 326 325 324 323 321 318 315 314 314 311 307 307 306 303 301 297 298 294 292 293 292 293 291 290 289 289 289 289 288 289 291 292 292 292 292 292 293 294 294
327 327 327 324 323 323 323 321 317 316 314 313 312 310 305 305 304 300 298 299 302 298 298 290 290 289 289 289 288 288 288 288 288 289 290 290 290 290 290 291 291 292 292
321 324 324 324 322 322 321 318 315 314 312 311 309 303 301 300 297 296 297 298 298 295 295 290 288 288 288 288 288 290 291 288 287 288 289 289 289 289 289 290 290 291 291
317 318 319 319 318 317 317 315 313 312 309 306 304 301 298 295 295 294 293 293 294 295 293 290 290 290 291 292 291 288 287 287 287 287 287 288 288 288 288 289 289 290 290
314 314 315 315 313 311 311 310 309 307 305 301 298 295 294 293 292 292 292 292 293 293 293 292 290 289 289 288 287 287 287 287 286 286 287 287 287 287 288 288 288 289 289
307 309 310 311 307 305 304 303 302 299 297 295 294 294 293 294 294 294 294 293 292 291 290 289 288 288 287 287 287 287 287 286 286 286 286 285 286 286 287 288 288 288 289
300 299 299 299 298 297 297 296 296 294 293 293 293 294 294 294 294 292 292 291 290 289 289 288 288 288 288 287 287 286 287 287 286 286 285 286 286 286 286 286 287 287 287
295 295 296 295 294 294 294 294 294 293 294 294 294 294 293 292 292 292 291 289 289 288 289 289 289 288 288 288 287 287 286 286 285 285 285 286 286 286 286 286 286 286 286
294 295 294 294 293 293 293 293 294 294 293 292 291 290 290 289 288 288 289 289 289 288 288 288 288 288 287 287 286 286 285 285 286 285 285 285 286 286 286 286 286 286 286
293 294 294 294 294 294 293 292 293 292 292 290 289 289 287 286 285 284 284 286 286 287 287 287 287 287 286 286 285 285 285 285 285 285 285 285 285 285 285 285 285 285 285
292 291 292 292 291 291 291 291 291 290 288 285 284 285 285 285 284 285 285 285 286 285 285 285 286 285 285 285 285 285 285 284 285 285 285 285 285 285 285 285 285 285 285
291 290 289 289 288 287 288 288 286 285 285 284 285 285 285 284 283 285 286 286 286 286 285 284 283 283 284 284 283 283 284 284 284 284 284 284 284 284 284 284 283 284 284
289 289 289 288 287 287 286 285 285 285 285 284 284 283 282 284 285 286 286 286 285 284 283 283 283 283 282 282 282 282 283 283 283 283 284 283 283 283 283 283 284 284 283

GFSMA_925_thetae_051.txt.gz
Theta_e
333 334 332 331 329 331 331 333 332 327 323 319 318 318 316 316 316 319 324 322 323 321 319 317 316 315 314 314 313 313 312 312 312 313 312 312 313 313 313 313 314 314 314
333 333 334 333 331 329 330 331 330 327 321 318 316 315 316 315 314 317 320 321 321 317 317 316 314 313 313 313 312 312 310 309 310 310 311 311 311 310 311 311 311 312 312
331 332 332 333 333 332 330 330 329 326 321 317 315 314 314 314 313 314 316 318 318 316 315 315 312 311 312 311 311 310 307 306 307 307 308 308 308 309 309 310 310 310 310
332 331 331 332 332 332 332 330 328 325 320 316 315 313 312 313 313 312 314 314 316 314 313 312 310 309 310 309 309 307 305 305 304 305 305 305 306 307 308 309 309 309 310
335 332 331 331 331 332 331 330 328 324 320 318 315 314 311 312 311 311 311 312 312 312 311 309 308 306 307 305 307 305 304 303 303 303 304 305 305 306 306 307 308 309 309
336 334 333 332 331 332 331 331 328 325 322 319 316 313 310 309 310 310 310 310 310 309 309 307 305 304 303 301 304 302 302 302 302 303 303 303 304 305 306 306 308 308 309
337 336 334 333 332 331 332 331 329 326 321 319 315 310 310 309 307 307 309 309 308 308 307 306 303 303 301 298 299 300 298 300 302 302 303 303 304 305 305 306 307 308 308
338 336 336 334 333 332 332 331 329 326 321 318 314 314 316 311 307 306 306 308 307 306 305 304 304 302 301 299 296 296 296 295 295 300 302 303 304 305 306 307 307 308 308
338 337 335 335 334 332 332 331 330 326 322 317 315 318 320 321 310 307 305 305 306 305 304 303 302 302 300 299 298 297 295 295 294 300 302 303 304 304 305 305 306 306 307
334 334 335 334 334 333 332 331 331 328 322 319 313 315 319 314 315 308 304 304 304 305 304 302 301 300 299 298 297 296 297 296 294 297 300 301 301 302 303 304 304 305 305
334 333 332 332 332 333 332 331 330 329 323 322 313 314 313 309 307 310 307 303 302 302 303 302 301 299 298 297 296 296 295 294 293 296 298 299 300 301 302 302 303 303 303
332 333 331 329 330 330 331 330 330 328 324 323 320 316 313 312 308 307 310 305 302 301 300 300 300 298 296 295 296 295 294 292 291 293 295 297 298 299 300 299 299 299 300
331 332 330 328 327 327 328 329 328 327 324 322 322 316 315 314 316 311 311 302 300 296 298 298 298 297 295 294 293 293 292 290 290 291 294 295 296 297 296 296 296 297 297
327 329 331 328 326 326 327 327 327 326 323 321 320 321 316 312 312 311 308 300 299 294 294 293 294 294 293 292 292 292 291 290 290 290 292 293 293 293 293 293 293 294 295
322 325 327 328 327 324 325 326 325 324 323 319 319 318 315 311 307 305 305 306 306 303 296 292 291 291 292 292 291 290 289 289 289 291 292 292 292 292 291 292 292 292 293
319 319 322 324 324 323 323 323 324 322 320 318 317 315 313 308 304 302 299 298 300 300 298 292 291 289 289 289 289 290 289 289 292 292 291 291 291 291 291 291 291 291 292
315 317 318 319 319 319 319 320 320 318 317 314 313 312 309 304 300 296 296 297 299 299 296 290 291 290 289 289 289 291 292 293 292 289 289 289 290 290 290 290 290 290 291
311 312 313 315 316 315 315 314 313 313 312 310 307 304 300 296 295 295 296 296 297 297 296 293 292 292 291 291 291 291 291 288 288 288 288 288 289 289 289 289 289 289 290
304 305 306 307 305 304 306 306 307 305 304 301 298 296 295 295 294 294 295 295 295 294 294 292 290 290 290 289 288 288 288 288 287 287 288 288 287 287 288 288 289 289 289
298 298 298 298 298 299 298 297 298 298 296 295 295 294 293 294 295 294 294 293 292 291 290 290 290 290 289 289 288 288 287 288 287 287 286 286 287 287 288 288 288 288 288
296 296 296 295 294 294 295 295 294 294 293 292 293 293 293 294 293 293 292 291 290 290 289 289 290 289 289 289 289 288 287 287 286 286 286 286 286 286 286 287 287 287 287
295 295 295 295 294 294 294 292 293 293 293 292 291 291 290 290 290 290 290 289 289 290 289 289 289 289 288 288 288 287 287 286 286 286 286 286 286 286 286 286 286 287 287
293 293 293 293 292 292 291 292 292 292 291 289 289 289 288 288 287 286 286 286 287 288 288 288 288 287 287 287 286 285 285 285 285 285 285 285 285 286 286 286 286 287 287
292 291 291 290 289 289 290 291 291 290 289 287 287 286 286 286 285 286 286 286 286 286 286 286 286 286 286 285 285 285 285 285 285 285 286 286 285 286 285 285 286 286 286
290 290 289 289 288 287 288 287 287 286 286 286 286 286 285 285 283 285 286 286 286 286 286 285 284 284 284 284 285 284 284 284 285 285 285 284 285 285 284 284 285 285 286
289 289 289 289 288 287 287 286 286 286 286 285 285 283 283 284 285 286 286 286 286 285 284 283 284 284 283 283 283 283 283 284 284 283 285 283 284 283 284 284 284 284 283

GFSMA_925_thetae_054.txt.gz
Theta_e
333 333 330 329 327 331 330 332 331 330 324 321 319 319 318 317 317 319 322 323 322 322 320 319 317 316 315 315 315 313 313 313 314 313 313 313 313 313 313 313 313 313 314
333 334 333 331 329 329 331 332 333 331 325 322 318 317 317 316 315 318 320 322 321 321 318 317 317 315 315 314 314 312 311 311 311 311 311 311 311 311 311 311 311 312 312
333 333 333 334 332 330 329 330 331 330 327 321 318 315 315 315 314 315 318 320 319 320 315 317 315 314 314 313 313 311 308 308 307 308 308 308 308 309 310 310 310 310 311
332 332 332 332 333 333 331 329 330 329 326 321 317 315 314 314 314 313 315 317 318 316 315 316 314 312 312 313 312 310 307 306 304 303 302 304 306 307 307 309 310 310 310
335 332 332 332 332 332 333 331 330 329 326 321 317 315 313 313 313 312 313 314 316 315 313 312 311 310 310 311 310 309 306 304 302 302 303 304 305 306 307 307 308 309 310
337 335 333 331 331 331 332 332 331 329 327 322 318 315 313 311 312 311 311 312 313 313 312 311 309 308 307 307 308 307 306 304 301 300 302 304 305 305 306 307 308 309 309
338 337 335 333 332 331 331 332 331 329 327 322 319 316 312 311 310 310 310 310 311 311 310 309 309 307 304 304 305 305 304 303 303 301 303 304 304 305 306 307 308 309 309
339 338 337 335 333 332 332 332 331 330 327 323 318 312 308 310 309 308 309 309 309 310 309 308 306 305 302 302 301 302 302 302 302 301 302 304 304 305 307 308 308 308 309
338 339 338 337 335 333 332 331 332 329 326 323 320 314 314 314 307 308 307 307 308 308 308 307 306 304 303 302 300 297 297 296 297 301 303 304 304 305 305 306 306 307 307
334 333 336 336 336 335 334 332 332 330 327 321 319 316 319 317 309 305 306 306 306 307 307 306 305 304 303 301 299 299 298 296 296 299 301 302 303 303 304 305 305 306 306
333 334 333 331 333 333 333 333 331 331 330 324 318 315 314 315 312 307 303 303 304 305 306 305 304 303 302 301 299 298 298 296 298 299 300 300 301 302 303 304 304 304 304
330 331 332 333 331 329 331 331 332 331 330 326 320 316 315 316 310 306 308 303 302 303 304 304 303 302 301 300 298 297 296 296 297 298 298 298 299 300 301 301 301 301 301
327 329 330 329 330 329 327 328 329 330 330 328 324 318 316 315 315 312 309 305 303 299 301 302 301 300 299 298 297 296 296 295 294 294 295 297 298 298 298 298 298 298 298
317 321 324 326 326 328 326 326 326 327 328 328 326 322 318 315 314 314 312 308 301 295 295 296 298 299 298 298 295 295 294 293 291 291 293 295 295 296 296 296 295 295 296
318 318 319 321 326 325 327 324 324 325 326 327 325 323 321 318 314 313 310 309 308 305 300 294 294 295 293 292 293 293 293 293 291 291 292 294 294 296 294 294 294 294 294
315 316 318 319 320 322 322 321 322 323 325 325 324 321 320 318 314 311 309 305 305 305 298 293 293 293 293 294 294 294 291 291 290 290 292 294 294 293 293 292 292 293 293
310 310 311 313 316 317 318 317 318 318 321 320 319 317 316 312 307 305 302 301 300 301 297 293 294 293 293 293 290 291 291 291 291 293 294 292 291 291 291 291 291 291 291
305 305 307 309 310 312 312 312 312 314 314 313 311 310 308 303 300 298 298 298 299 300 300 293 291 290 290 290 290 290 291 292 293 290 289 290 290 290 290 290 290 290 290
301 302 301 301 302 301 302 304 305 305 305 305 304 302 301 299 296 295 296 296 295 295 296 295 290 290 290 291 291 291 290 289 288 288 288 289 288 288 288 289 290 290 290
299 299 299 298 297 298 298 298 298 299 298 298 298 297 296 295 295 294 294 294 293 292 292 291 290 290 290 290 289 288 288 288 288 287 287 287 287 287 288 288 289 288 288
295 296 296 296 295 295 295 295 294 293 294 293 293 293 294 294 294 293 293 292 292 291 291 290 290 289 289 289 288 289 288 287 287 286 286 286 286 286 286 286 286 286 287
295 294 294 294 293 293 293 291 293 292 292 292 291 291 292 291 291 291 291 290 290 290 290 290 290 289 289 288 288 287 287 286 284 285 285 285 285 285 285 286 286 287 288
293 292 292 291 291 292 293 293 293 292 291 290 290 290 290 289 288 288 287 288 288 289 289 288 288 288 287 286 286 286 285 285 285 285 285 285 285 285 285 285 286 286 287
291 291 289 290 290 290 291 291 291 291 289 288 287 286 286 285 285 286 286 286 286 286 286 286 286 286 286 285 285 285 285 284 284 284 284 285 285 285 285 285 285 286 286
290 289 289 289 288 287 288 287 286 286 286 286 286 285 285 284 285 286 286 286 286 286 286 286 285 285 284 285 285 285 284 284 283 284 283 283 284 285 284 285 285 285 286
288 289 289 288 287 287 288 287 286 286 285 285 284 283 284 285 286 286 286 285 285 284 284 284 283 284 283 283 283 284 283 282 283 283 283 283 283 283 283 283 283 283 283

GFSMA_925_thetae_057.txt.gz
Theta_e
329 329 330 328 325 323 327 329 330 329 323 321 319 319 319 319 318 318 321 323 322 322 322 320 319 317 317 316 316 314 314 315 314 314 315 314 314 314 314 314 314 314 314
331 331 332 330 329 327 328 330 331 331 328 323 322 319 318 318 317 316 320 321 322 321 320 320 318 317 317 316 315 314 313 314 313 313 313 312 312 312 312 312 312 312 313
331 333 333 332 331 330 329 331 331 332 332 324 323 319 317 316 316 315 319 320 321 321 320 318 318 317 316 315 315 312 311 311 311 310 310 310 310 311 311 311 311 311 312
332 332 333 333 333 331 329 329 330 332 330 326 323 319 316 315 315 314 315 318 319 319 319 316 318 316 316 315 315 313 310 309 308 308 307 307 308 308 309 310 310 310 311
337 332 331 332 332 332 332 331 329 329 329 327 323 319 316 314 314 314 313 315 317 317 316 314 316 314 314 315 315 313 310 308 307 306 306 306 306 307 307 308 309 309 310
338 336 334 332 331 332 332 332 331 329 329 328 323 319 317 314 313 313 313 313 315 316 315 314 313 312 311 313 313 313 310 308 305 304 305 305 306 306 307 307 308 309 310
338 337 336 336 333 331 331 331 332 331 330 328 322 318 315 315 312 312 313 312 313 314 314 313 312 311 309 309 311 311 310 308 306 305 305 305 305 306 306 307 308 309 310
337 338 336 336 335 332 331 331 331 331 330 328 321 312 309 310 310 310 311 311 311 312 313 312 311 310 309 307 306 308 308 307 306 306 304 305 305 306 307 308 309 309 309
332 331 336 337 336 335 332 331 331 331 328 327 324 318 310 310 308 311 310 309 310 310 311 311 310 309 308 307 305 304 305 305 305 305 304 305 305 306 307 307 307 308 308
334 335 333 332 332 334 334 333 332 330 329 325 321 320 318 315 309 309 307 308 308 309 309 310 309 308 306 305 303 302 301 301 302 302 304 305 305 305 305 306 306 307 307
327 334 334 333 331 331 330 332 333 332 330 328 324 321 316 316 312 306 307 305 306 306 308 308 308 307 306 304 303 301 299 298 299 302 303 304 304 304 304 305 306 306 306
318 327 330 330 331 332 330 329 328 329 331 329 326 322 320 318 316 307 307 305 305 305 305 307 306 306 305 304 302 300 299 299 300 301 302 302 302 302 302 303 304 303 303
316 317 321 327 328 328 327 327 327 327 326 328 328 323 319 317 317 315 310 306 305 302 302 303 304 304 304 304 300 298 298 299 299 299 299 299 300 300 300 300 300 301 301
317 317 318 319 322 325 326 326 324 325 324 324 325 326 322 319 315 315 314 311 304 298 298 300 301 301 301 299 299 300 298 297 297 297 296 296 297 298 298 298 299 299 298
314 315 316 317 319 324 326 326 326 323 323 322 323 323 323 320 318 316 315 314 313 313 301 296 297 298 298 298 299 300 299 299 296 296 295 295 295 295 296 297 297 296 296
310 310 311 312 314 318 319 319 319 319 319 319 321 323 322 320 318 315 309 307 308 310 307 296 295 296 298 299 299 298 295 295 295 294 293 294 294 295 296 295 295 294 294
306 306 307 308 310 311 313 314 314 315 315 316 318 318 317 313 311 307 305 304 304 304 300 295 295 295 295 296 293 293 293 294 294 293 292 294 295 295 294 293 293 293 293
303 304 305 306 307 307 308 309 309 310 311 310 309 311 311 307 305 303 301 300 300 300 301 294 292 292 291 292 292 292 292 292 291 292 292 292 292 291 291 292 292 291 291
301 300 301 303 302 302 303 303 303 303 303 303 303 301 300 300 300 298 297 297 297 297 297 295 291 290 290 291 291 291 292 291 291 289 289 290 290 290 289 289 290 290 291
298 297 297 297 297 297 298 298 298 298 297 297 297 297 296 295 295 295 294 294 294 294 294 294 292 290 291 290 290 290 289 288 288 288 287 287 287 287 288 288 289 288 288
295 295 294 295 295 295 294 295 296 295 294 293 293 293 293 294 294 294 294 293 292 292 291 291 290 290 290 289 289 288 288 288 287 287 286 285 285 285 285 285 286 286 286
293 293 293 293 293 293 293 293 293 293 293 293 292 292 292 292 292 292 291 291 291 290 290 290 290 289 288 288 288 287 287 286 285 285 285 284 284 285 286 286 286 287 288
291 291 291 292 292 292 292 293 292 292 291 290 290 290 290 289 289 287 288 288 288 289 289 288 288 287 286 286 286 286 285 285 284 284 284 284 284 285 285 285 285 286 287
290 290 290 291 290 290 290 290 290 289 288 287 286 286 286 285 285 286 285 286 286 286 286 286 286 285 285 285 285 285 284 284 284 284 283 284 285 284 285 285 285 285 286
288 287 287 287 288 288 288 286 285 285 285 284 284 284 284 284 286 287 286 286 286 286 286 286 285 285 285 285 285 285 284 284 283 283 283 283 283 283 284 285 285 285 285
289 288 287 287 287 287 288 286 285 284 284 284 283 283 284 285 286 286 285 285 284 284 284 284 283 283 283 283 283 283 283 283 282 282 283 283 283 282 282 283 283 283 283

GFSMA_925_thetae_060.txt.gz
Theta_e
328 329 329 328 327 324 323 327 328 328 327 321 320 322 320 320 320 319 322 324 323 323 324 324 321 319 318 318 317 316 316 316 316 316 316 316 316 316 316 316 316 316 316
328 329 329 329 329 327 322 323 327 329 330 326 320 319 319 319 319 318 318 322 322 322 322 322 321 319 318 318 317 316 315 316 315 315 315 314 314 315 314 314 314 314 314
330 330 330 329 332 331 329 326 329 330 331 330 324 322 320 318 318 317 316 319 321 322 321 322 321 320 319 318 317 315 315 315 314 314 313 313 313 313 313 313 312 313 313
334 331 331 331 332 332 330 329 329 330 330 331 331 325 323 319 317 316 315 317 320 321 321 320 320 320 319 318 318 315 314 313 313 311 311 311 311 311 311 311 311 311 312
334 332 331 332 332 332 332 330 328 330 330 331 332 327 322 320 317 315 315 315 318 319 319 318 318 317 318 318 317 317 314 312 310 310 309 309 309 309 309 310 310 311 311
336 335 336 334 331 332 332 332 330 329 328 329 329 325 322 319 317 315 314 314 314 317 318 317 317 316 315 316 317 317 315 312 310 308 308 308 308 308 308 309 309 310 310
338 337 335 334 334 331 331 331 332 331 329 328 326 323 320 318 316 315 313 313 313 313 317 317 316 314 314 313 314 316 316 313 310 307 307 307 307 307 308 308 309 310 310
337 336 335 334 335 334 332 331 331 330 330 329 324 314 315 317 316 316 314 312 312 312 313 316 316 314 313 312 311 313 314 313 311 308 307 307 307 307 307 308 309 310 310
337 336 335 333 331 335 334 332 330 330 329 328 326 324 311 314 309 314 315 313 311 312 311 312 315 314 313 312 310 309 309 311 311 309 308 307 307 307 307 309 309 309 309
329 333 334 334 333 332 333 332 331 331 329 328 325 323 322 314 310 311 311 311 309 309 310 310 312 313 313 311 310 308 307 308 309 308 308 306 307 307 308 307 307 308 308
315 318 322 333 333 331 330 330 330 330 331 329 327 324 320 316 312 310 317 310 309 310 308 308 309 310 311 310 309 308 306 305 306 305 304 305 307 307 307 306 306 307 307
316 317 322 327 330 332 330 330 329 328 328 328 328 327 323 318 318 315 310 311 308 309 308 307 308 308 309 309 308 306 304 303 303 303 304 305 306 305 305 305 305 305 305
316 316 317 319 323 326 327 328 328 326 326 326 325 325 325 322 322 320 316 316 307 305 303 304 305 306 306 306 306 305 304 303 303 303 302 303 303 302 302 302 301 302 303
314 314 315 316 318 320 323 326 326 326 326 325 323 322 323 324 322 319 317 317 307 302 302 305 305 302 303 303 304 305 303 301 301 301 302 301 301 300 299 299 299 300 301
310 310 311 312 315 317 322 324 324 324 322 320 319 319 321 321 321 321 317 315 313 312 304 301 299 299 298 300 302 302 302 300 299 301 300 299 299 298 298 298 298 299 300
306 307 308 308 310 312 315 316 316 315 315 315 315 315 316 317 318 315 312 311 311 308 308 304 299 301 297 297 298 298 298 299 300 299 297 297 297 296 296 297 298 298 298
304 305 305 306 307 308 309 310 310 311 311 312 312 312 311 309 309 308 307 306 306 305 303 298 296 297 297 297 296 297 298 297 297 296 296 296 295 295 296 297 297 295 295
302 302 303 303 304 304 305 306 306 306 306 305 304 304 304 303 302 300 300 300 301 301 301 296 293 292 292 293 294 294 294 294 294 294 292 292 293 294 294 294 293 293 293
299 299 300 299 300 300 302 303 302 302 302 300 299 299 299 299 298 297 296 296 296 297 298 297 292 292 292 292 292 292 292 292 290 291 291 291 292 292 292 291 291 290 291
297 297 296 296 296 296 297 297 298 298 298 297 296 295 295 295 295 295 295 295 295 295 295 294 292 290 290 290 290 290 290 291 290 288 288 288 288 288 288 288 289 289 289
293 294 294 294 294 294 293 294 295 294 294 294 294 294 294 294 294 293 293 293 293 293 292 291 291 290 290 290 290 289 289 287 287 287 287 287 286 285 285 285 285 286 287
293 293 293 293 293 293 293 294 294 293 293 292 292 292 293 293 293 292 292 291 291 290 290 290 289 289 288 288 288 288 287 286 285 285 285 285 284 284 285 285 286 286 287
291 292 292 292 292 292 292 293 292 292 291 290 289 289 288 287 287 287 286 286 287 288 288 288 288 287 286 286 286 286 286 285 285 285 284 283 283 284 285 285 285 286 287
290 290 291 289 288 288 288 286 286 286 286 285 285 285 284 285 286 286 285 285 286 285 286 285 285 285 285 285 285 285 285 284 284 284 283 283 284 284 285 285 285 285 286
288 287 287 288 288 288 288 286 285 285 284 283 284 285 284 284 286 287 285 285 285 285 286 285 285 285 285 285 285 285 284 284 283 282 283 283 283 283 284 285 285 285 286
287 287 287 286 286 287 287 286 284 284 283 283 283 283 284 285 286 285 284 284 283 284 284 284 283 283 283 282 283 283 283 283 283 281 283 283 283 282 282 283 284 284 284

GFSMA_925_thetae_063.txt.gz
Theta_e
321 325 324 324 325 323 320 322 325 328 327 325 322 322 321 320 320 320 321 324 325 325 327 327 324 321 320 319 318 318 318 317 317 317 318 318 318 318 318 317 317 317 317
323 326 328 328 328 328 326 324 322 326 327 327 327 321 320 320 319 319 319 321 323 324 323 326 325 322 320 320 319 317 317 317 316 317 317 316 316 316 316 316 316 316 316
334 328 329 329 329 330 329 327 325 325 327 329 330 327 321 320 319 319 318 317 319 321 322 324 324 323 321 320 319 318 317 317 316 316 315 315 315 315 314 314 314 314 314
336 335 331 330 330 330 331 330 328 327 328 329 330 331 329 324 322 319 318 317 316 319 320 321 321 323 322 320 320 318 317 316 315 315 314 314 313 313 313 313 313 313 313
336 336 336 332 330 330 330 331 330 328 329 329 330 330 330 331 327 322 318 317 316 316 319 320 320 319 320 321 320 319 317 315 314 313 312 312 311 312 312 312 312 312 312
337 335 336 335 331 330 331 331 330 330 329 329 328 329 329 330 329 322 319 317 316 315 316 318 319 319 318 318 319 319 319 316 313 312 311 310 310 310 310 310 310 311 311
336 335 334 332 331 331 332 331 331 330 329 328 326 325 326 326 324 323 319 316 315 315 314 315 318 318 318 316 316 318 318 319 315 312 310 310 309 309 309 309 310 310 311
337 337 337 336 335 335 334 333 331 329 329 329 326 318 322 324 325 325 322 318 316 314 313 313 315 317 318 316 316 314 316 317 316 313 310 309 309 309 309 309 309 310 311
334 336 336 336 335 334 332 331 333 331 328 328 327 326 318 318 312 321 322 320 318 316 313 312 312 315 317 316 315 314 313 315 316 315 311 309 308 308 309 309 310 311 310
318 320 326 332 334 333 333 332 331 332 330 327 326 325 325 321 317 320 316 316 314 312 311 311 311 311 312 315 315 314 313 312 313 314 313 311 309 308 309 309 309 309 309
313 314 317 319 324 331 333 332 330 330 330 329 328 327 324 321 317 311 320 318 315 314 313 310 309 309 309 311 314 314 313 310 311 312 311 310 309 309 309 309 308 308 309
315 316 317 319 323 325 330 332 331 330 328 327 327 326 324 321 317 315 313 315 315 315 316 314 312 311 307 307 309 311 312 310 309 309 310 308 307 309 308 306 305 305 306
314 315 315 316 318 320 324 327 328 328 327 326 326 326 325 324 323 322 319 317 313 311 312 313 313 310 310 307 306 306 308 308 307 307 307 306 305 305 304 305 305 305 305
311 311 311 312 314 316 320 323 325 326 326 325 323 321 323 321 321 321 320 318 311 305 304 310 311 309 308 306 306 307 304 305 305 305 306 307 305 305 304 303 303 302 302
308 308 308 308 309 312 315 318 320 320 320 319 317 315 316 317 316 317 318 317 316 312 307 308 307 306 305 305 303 303 303 305 305 305 304 304 305 304 302 301 301 300 300
304 305 306 306 307 308 309 311 313 313 312 311 311 311 312 312 312 312 311 310 312 311 309 306 301 302 302 300 300 301 302 303 304 303 302 301 301 301 300 299 299 299 299
303 303 303 304 305 305 306 307 308 308 308 307 306 306 307 307 306 305 305 305 305 304 303 301 300 299 299 296 298 299 300 301 301 300 301 299 298 297 297 297 298 299 298
300 300 301 301 301 302 302 303 304 304 304 303 303 303 302 302 302 301 302 302 302 301 300 298 295 294 294 294 295 296 296 297 296 298 297 296 296 296 295 296 296 295 295
298 299 299 298 298 298 299 299 300 300 300 299 298 298 298 298 298 298 298 298 298 297 297 296 293 292 291 291 291 292 292 292 293 293 292 292 293 293 293 294 294 293 292
295 295 295 294 294 295 296 297 297 297 296 295 295 295 295 295 295 294 295 295 295 295 294 294 292 291 291 291 290 291 290 291 291 291 290 289 289 289 289 290 290 290 290
293 294 294 293 293 293 293 295 294 294 293 293 294 294 294 294 294 293 293 292 293 293 292 292 291 291 290 290 290 289 289 288 287 287 287 287 287 287 286 286 285 285 287
293 293 293 293 293 293 293 293 294 293 292 292 291 291 292 292 292 290 290 291 291 290 289 289 289 288 287 287 287 287 287 286 285 285 285 285 285 284 284 284 284 285 286
293 292 292 292 291 291 290 290 290 289 288 286 286 285 285 286 286 285 285 285 285 286 288 287 287 286 286 286 286 285 285 285 285 285 284 283 283 283 284 285 285 286 287
291 290 288 288 288 288 287 285 285 284 284 284 284 284 283 285 287 286 285 285 285 285 286 285 285 285 285 285 285 285 285 284 284 284 283 283 283 284 284 285 285 285 286
288 287 287 287 288 287 287 285 284 284 283 283 283 284 285 285 287 286 285 284 284 285 285 285 284 285 285 285 285 285 284 284 283 282 283 283 282 283 284 285 284 285 286
287 286 286 286 286 287 288 286 284 284 283 283 283 283 283 286 285 285 284 283 282 282 283 283 283 282 282 282 282 283 283 283 283 281 282 282 282 282 282 283 283 284 284

GFSMA_925_thetae_066.txt.gz
Theta_e
329 319 318 318 323 325 322 321 322 324 326 326 325 322 321 321 320 320 320 321 323 325 328 328 327 325 322 320 320 318 318 318 318 318 318 318 319 319 319 319 319 319 319
331 324 323 326 326 327 328 326 324 323 324 326 326 326 325 320 320 320 319 319 319 322 324 327 327 326 323 321 320 319 319 318 317 317 318 318 317 317 317 317 317 317 317
331 333 325 327 328 328 329 329 328 327 325 325 326 328 329 328 322 320 319 318 318 318 320 322 326 326 324 322 321 320 318 317 317 317 317 316 316 316 316 315 316 316 316
334 334 334 332 330 329 329 329 330 329 328 327 328 329 329 330 330 327 323 322 319 317 317 319 320 325 325 323 322 321 319 317 317 316 316 315 315 315 315 314 314 314 314
332 334 335 335 335 333 330 329 329 329 329 329 329 329 329 329 329 330 330 326 321 318 316 317 318 319 321 323 323 322 320 318 317 316 315 314 314 314 314 313 313 313 313
333 333 333 335 335 335 333 329 329 329 329 329 328 328 328 328 328 328 329 330 325 321 317 316 317 319 320 320 321 322 321 320 317 315 314 313 312 312 312 312 312 312 312
337 336 335 335 334 333 333 331 330 330 329 329 326 326 328 328 327 328 327 327 326 322 318 315 315 316 319 320 319 319 320 320 320 316 314 312 311 311 311 311 311 311 312
338 337 337 337 336 334 333 333 331 329 329 329 327 321 325 325 326 326 325 325 325 321 317 314 313 314 316 319 319 318 317 319 319 319 315 313 311 311 310 310 311 311 311
336 336 336 336 336 335 335 334 333 331 328 328 327 326 322 322 315 325 325 324 323 321 317 314 313 312 312 314 318 318 317 316 317 318 318 314 311 310 310 310 311 311 312
314 316 319 322 327 331 333 333 332 332 330 328 327 327 325 322 320 321 321 322 322 322 321 320 316 313 311 311 312 314 317 316 316 316 316 317 312 310 310 310 310 311 311
313 313 315 316 318 321 325 329 332 332 330 328 328 327 326 322 320 315 321 319 319 320 320 319 318 317 314 314 310 310 312 316 315 315 314 315 315 313 310 310 311 310 309
314 314 315 316 317 319 322 323 327 330 330 329 328 326 323 322 319 316 314 314 315 317 318 318 317 316 315 312 311 309 308 311 314 313 313 312 314 312 310 310 309 308 308
313 313 313 314 314 316 318 322 325 327 327 326 326 322 321 322 322 321 319 318 316 314 315 316 315 314 312 309 307 306 306 307 310 312 313 312 311 309 309 309 308 307 308
309 309 310 310 311 313 315 318 322 323 323 322 322 322 321 319 318 318 318 316 314 308 309 313 311 310 307 307 305 305 304 305 306 310 312 312 309 308 307 306 307 307 306
306 306 306 307 307 309 311 314 317 318 319 319 317 316 315 316 314 313 313 312 314 314 309 307 306 305 304 305 304 303 303 303 304 308 310 309 308 307 307 306 305 305 304
304 304 304 305 305 306 307 309 311 312 313 312 311 310 309 308 308 309 310 310 311 309 309 306 304 304 302 300 300 301 301 301 302 305 306 304 307 305 303 302 303 302 301
302 302 302 303 303 304 304 305 306 306 306 303 303 303 303 304 305 306 306 306 306 306 303 303 301 300 299 298 297 298 300 301 302 303 304 302 302 301 301 300 300 299 299
300 300 300 300 300 301 301 301 302 301 302 301 300 300 300 300 301 301 301 301 300 301 301 299 296 297 296 295 295 295 297 298 299 299 299 300 299 298 298 298 297 297 297
297 297 298 297 298 298 298 298 299 298 299 298 297 297 297 297 296 296 296 296 296 296 297 297 294 293 293 292 293 293 293 294 295 295 296 296 296 295 295 296 296 296 295
295 294 294 294 294 296 296 296 297 296 296 295 295 295 295 295 294 294 294 294 294 294 294 294 292 292 291 291 291 291 291 291 291 292 292 292 292 293 292 291 292 291 291
295 294 294 294 293 292 294 294 294 294 293 294 294 294 294 294 294 293 292 291 291 291 291 291 291 290 290 289 289 289 289 288 287 287 287 287 288 288 287 288 288 288 287
293 293 293 293 293 292 292 293 293 292 291 291 290 291 291 289 290 288 288 288 289 288 288 288 287 286 286 286 286 286 286 286 285 285 285 285 285 285 285 284 284 284 284
292 292 292 291 290 289 288 287 287 286 285 284 284 284 285 287 287 284 284 285 285 285 286 285 285 285 285 285 285 285 284 284 284 284 284 283 283 283 284 284 284 285 287
291 288 288 288 288 288 287 284 284 283 283 284 284 285 284 287 288 285 284 284 284 285 286 285 285 285 284 285 285 284 284 284 283 283 282 282 282 283 284 284 284 285 285
288 287 287 287 287 287 286 284 284 283 283 283 283 284 285 285 286 286 284 283 282 283 284 284 284 284 284 284 284 284 284 283 283 282 282 282 282 283 283 284 284 285 286
287 286 286 286 287 287 288 287 285 284 283 283 283 283 283 285 285 285 284 283 282 282 283 283 282 281 281 282 282 282 283 282 282 281 282 282 282 281 282 282 283 283 285

GFSMA_925_thetae_069.txt.gz
Theta_e
329 325 319 318 318 324 325 323 321 321 322 325 326 326 323 322 321 320 320 320 320 322 325 330 329 328 325 322 321 319 319 318 318 318 318 319 319 319 320 320 320 320 320
329 330 325 321 323 324 326 327 327 325 325 324 324 325 326 327 326 321 319 320 319 319 321 324 328 328 327 324 322 321 319 319 318 318 318 319 318 318 318 318 318 318 318
331 330 332 325 326 327 328 328 329 329 328 327 327 327 327 328 329 329 326 322 321 320 318 320 326 328 327 326 324 322 320 319 318 318 318 318 317 317 317 317 317 317 317
332 332 332 334 333 330 328 328 328 328 329 329 329 329 329 328 329 329 329 329 328 324 321 318 318 323 327 327 325 324 322 320 318 317 317 317 316 316 316 316 315 315 316
332 332 332 333 334 334 334 333 330 329 328 329 329 329 329 329 329 329 329 329 329 329 327 322 317 318 321 324 325 324 323 322 319 318 316 316 316 315 315 315 314 314 315
333 332 332 332 333 334 335 334 334 332 329 328 327 328 329 329 330 329 329 329 328 328 328 326 319 316 318 321 323 324 323 323 322 319 317 316 315 314 314 314 314 314 313
332 335 336 336 334 334 334 333 332 331 328 329 326 327 329 329 328 328 328 327 326 326 325 323 319 316 315 317 321 322 323 322 322 321 318 317 315 314 313 313 313 313 313
337 337 336 336 336 336 335 334 331 328 328 330 328 324 329 327 326 326 326 325 324 323 324 322 319 317 315 314 315 318 320 322 321 321 321 317 315 313 312 312 312 312 312
335 335 335 335 335 334 334 334 334 332 328 330 328 327 327 327 319 324 323 324 324 323 321 319 318 319 316 313 312 314 318 320 320 320 321 320 317 314 313 312 312 312 312
314 315 317 319 321 324 328 330 331 331 330 328 327 326 326 324 325 324 322 322 322 321 320 319 319 318 318 315 312 311 312 316 318 320 319 320 319 315 313 312 312 312 312
313 313 313 314 315 316 318 323 327 328 329 328 325 325 325 322 320 319 321 320 320 318 318 318 319 317 315 314 313 312 310 309 311 317 320 320 319 316 313 313 311 310 312
314 314 314 314 314 316 318 320 322 324 325 326 327 325 325 322 320 318 317 316 317 317 317 316 317 314 313 311 311 311 311 310 309 313 316 319 319 317 315 314 313 312 312
312 312 312 312 312 313 314 316 322 322 324 324 324 323 322 322 322 321 320 319 318 315 315 314 313 311 309 308 309 308 309 308 307 309 313 316 317 317 313 314 312 311 310
309 309 309 309 309 309 311 314 317 319 321 322 322 321 321 321 319 318 318 316 315 312 311 311 310 308 307 307 306 307 307 306 306 306 309 311 313 316 312 312 311 310 308
305 305 305 306 306 307 308 312 314 315 317 318 318 316 316 315 314 314 313 311 313 313 310 307 307 307 307 306 306 305 304 302 303 304 306 310 310 311 310 308 308 308 307
303 303 304 304 305 305 306 308 310 312 312 312 311 311 310 309 308 308 308 308 308 310 312 306 303 302 302 301 301 300 300 301 301 304 306 306 304 306 306 306 306 306 306
302 302 302 302 303 303 304 305 306 306 306 304 304 305 304 304 305 304 304 304 304 305 305 301 299 298 298 298 297 298 299 300 301 301 303 303 304 305 304 303 302 301 301
300 300 300 300 300 301 301 302 302 302 302 301 301 301 300 300 300 299 300 301 300 300 301 300 297 296 296 295 295 295 296 297 298 298 299 300 301 301 300 300 299 299 299
298 298 297 298 298 298 298 298 298 298 298 297 297 297 297 297 296 296 297 297 297 296 297 297 294 293 293 294 293 293 294 294 295 295 296 297 298 298 298 298 298 297 297
295 295 295 295 296 296 296 296 296 296 296 296 296 295 295 295 294 294 294 294 294 294 294 294 293 292 291 291 291 291 292 291 292 292 292 293 294 294 295 295 295 294 294
295 294 293 293 292 294 295 296 295 295 295 294 294 294 294 293 293 292 291 290 291 290 291 291 291 291 289 289 288 287 288 287 287 287 287 287 287 288 288 288 289 290 290
294 294 294 293 292 292 293 294 294 293 293 292 292 291 291 290 289 288 288 287 288 287 286 288 287 287 286 285 285 285 286 286 288 285 285 286 285 285 285 285 285 285 284
293 293 293 292 291 290 289 288 287 287 286 285 284 285 286 287 286 284 284 284 285 287 285 285 285 285 285 284 284 284 284 284 285 284 284 284 283 283 283 284 284 283 285
292 290 288 288 288 288 285 284 284 284 284 284 285 285 286 287 287 285 284 283 284 285 285 285 285 285 285 285 285 285 284 284 283 283 282 283 282 283 284 284 284 284 285
288 287 288 287 287 287 285 284 284 283 283 283 283 285 285 286 287 286 284 283 282 282 284 284 284 284 284 284 284 284 284 284 283 282 282 282 282 282 282 282 283 284 286
287 287 287 287 287 287 287 285 285 284 283 283 283 283 284 286 286 285 284 283 281 283 283 282 282 281 281 281 282 282 282 282 282 283 281 282 282 282 283 282 283 283 284

GFSMA_925_thetae_072.txt.gz
Theta_e
331 330 328 326 326 326 329 331 330 328 328 327 328 328 326 325 324 323 323 321 320 320 322 327 330 330 329 325 323 322 320 319 319 319 318 319 319 320 320 320 320 320 320
333 331 331 326 326 327 330 331 331 331 331 330 330 329 329 329 328 327 325 323 321 319 320 320 326 329 328 328 325 323 321 320 319 319 319 319 319 318 319 319 319 319 319
335 332 332 331 328 330 330 330 331 331 332 332 332 331 331 331 331 330 329 326 325 325 324 322 319 327 328 328 327 325 323 321 320 319 318 319 318 318 318 318 318 318 318
335 335 334 334 334 332 332 332 332 332 332 332 333 333 332 332 331 331 330 329 327 325 326 328 325 319 325 328 328 326 325 323 321 319 318 318 317 317 317 317 317 317 317
337 335 334 334 334 334 334 334 333 333 334 333 333 332 332 332 332 331 330 330 329 327 327 327 326 325 319 320 326 327 326 325 323 321 319 318 317 317 317 316 316 316 316
337 336 335 335 335 334 334 335 334 335 333 333 332 331 332 332 331 330 330 330 329 328 326 325 325 325 323 318 319 325 325 325 325 323 321 319 318 317 316 316 316 315 315
335 334 335 335 336 335 335 335 335 334 333 332 331 332 332 330 329 328 328 328 327 325 323 322 323 323 323 321 318 318 324 325 325 324 323 321 319 318 316 315 315 315 314
337 337 337 337 337 336 336 335 334 333 333 333 332 332 331 327 326 327 326 325 324 323 321 320 320 320 320 320 320 319 319 323 324 324 324 323 321 319 317 315 314 314 314
334 334 334 335 335 334 334 333 333 332 331 331 330 331 332 327 326 325 325 323 322 321 318 318 317 317 317 318 317 315 314 316 320 323 323 323 323 321 319 317 314 314 314
317 318 320 321 322 326 327 328 329 329 329 330 329 328 327 327 328 328 324 323 320 322 320 320 318 316 316 316 316 315 314 312 312 316 321 321 322 322 321 318 315 314 314
313 313 313 313 315 316 320 321 322 324 325 327 328 326 326 325 323 323 323 323 322 320 319 319 317 316 314 312 312 312 313 313 312 313 316 318 320 322 320 317 316 314 314
313 313 313 313 313 314 316 317 320 322 321 323 326 326 326 324 324 322 320 320 320 319 317 316 315 312 310 309 309 311 310 310 309 310 313 316 318 320 321 318 316 315 314
312 311 311 311 311 312 312 315 317 319 321 321 323 324 324 323 323 322 320 321 320 318 315 314 311 310 309 308 307 308 308 308 308 307 309 313 314 316 317 317 317 316 314
308 308 308 308 308 308 309 312 316 318 318 321 322 322 322 321 320 319 320 318 318 315 314 315 306 305 305 307 307 307 306 306 305 306 305 307 309 310 312 314 317 316 314
305 305 305 305 306 306 307 309 312 314 315 317 317 316 316 315 314 314 312 313 315 315 314 310 309 305 304 303 304 304 303 301 302 305 305 307 308 310 313 314 314 313 310
303 303 303 304 304 305 305 306 308 309 310 308 310 309 308 307 306 306 307 308 308 311 313 307 303 303 302 299 300 301 301 300 300 302 306 305 305 306 306 306 307 309 308
301 301 301 302 302 302 303 303 304 305 305 305 305 304 304 304 304 304 304 304 305 305 308 302 301 299 299 298 297 297 299 300 300 300 302 302 302 303 303 304 304 305 305
299 299 299 299 299 300 300 301 301 301 302 301 301 301 300 300 300 300 300 300 300 300 301 304 297 296 296 295 295 296 295 296 296 298 299 299 299 300 300 300 300 300 300
297 297 297 297 297 297 298 298 299 299 299 298 298 298 297 297 297 297 296 297 298 298 299 300 298 296 294 294 295 295 294 294 293 295 296 296 297 298 299 299 299 298 298
296 296 296 295 295 295 295 296 296 296 296 295 295 295 295 295 295 294 294 294 295 297 297 298 297 295 294 292 292 293 296 293 291 290 291 292 294 295 295 296 296 297 297
295 295 295 295 294 294 294 295 295 295 295 294 293 292 293 293 293 292 293 293 292 293 294 295 295 295 293 292 291 290 291 290 290 288 289 289 289 289 289 289 291 293 293
294 294 294 294 293 293 293 294 293 292 292 293 292 291 290 290 288 288 287 287 288 289 289 290 290 289 289 288 288 287 288 288 290 287 287 287 286 287 287 286 285 285 285
294 293 293 293 293 292 291 292 292 291 289 287 286 286 287 287 286 286 285 285 285 287 286 287 287 287 287 286 285 286 287 287 287 286 284 286 285 285 285 285 285 284 284
293 292 291 290 289 288 285 284 284 284 284 285 285 286 288 288 288 286 286 285 285 286 286 286 286 286 286 286 286 286 285 285 285 285 284 286 285 286 286 286 285 284 285
291 289 288 288 288 288 284 284 284 284 284 284 285 286 286 287 287 286 285 284 284 283 283 283 283 283 284 284 284 285 286 285 286 285 284 284 286 285 285 285 285 284 286
289 287 287 287 287 287 285 284 284 284 285 284 284 284 284 286 286 286 285 284 283 284 284 284 283 281 281 282 281 283 284 284 285 286 284 284 284 284 286 285 284 285 285

GFSMA_925_thetae_075.txt.gz
Theta_e
332 331 329 327 327 326 329 331 331 329 328 328 328 328 328 327 327 326 326 325 323 320 320 321 330 331 331 329 326 324 322 320 319 319 319 318 319 320 320 320 321 319 320
334 332 332 328 326 327 330 332 333 333 332 332 332 331 331 330 331 330 329 328 326 325 322 322 321 330 330 330 328 326 324 322 321 320 319 319 319 320 320 320 319 319 319
337 334 333 334 329 331 331 331 332 333 333 333 333 333 333 332 332 332 332 331 329 327 327 327 325 323 328 329 329 329 326 324 322 321 320 319 319 319 319 319 319 318 319
337 337 336 336 336 334 334 334 334 334 334 334 334 334 334 334 333 333 332 332 331 329 328 327 327 326 323 329 329 329 329 327 324 322 321 319 319 318 318 318 318 318 318
339 337 336 336 336 336 336 336 335 336 336 335 335 334 334 333 333 333 332 332 332 331 330 329 328 327 326 323 327 328 328 328 326 324 322 321 319 318 317 317 317 317 317
340 339 338 337 336 336 336 336 336 336 336 335 335 334 333 333 333 332 332 330 329 329 329 327 327 327 326 325 323 324 327 327 326 326 324 322 321 319 318 318 317 317 316
339 339 338 337 337 337 337 337 336 335 335 335 334 333 333 333 332 331 329 328 327 327 326 323 324 324 324 323 322 321 320 323 325 325 325 324 323 321 320 319 317 317 316
338 337 337 337 337 337 336 336 335 335 334 333 333 332 332 329 327 328 327 327 326 325 323 321 320 320 320 321 321 319 319 319 323 325 325 324 323 323 321 320 319 317 316
335 335 335 335 334 334 333 333 333 333 332 332 332 331 332 330 327 326 326 325 324 323 321 321 319 319 318 318 319 318 317 315 314 316 321 323 323 324 324 322 321 318 317
321 322 323 323 324 325 328 328 328 328 330 329 330 330 330 328 330 327 325 324 323 322 323 321 319 318 316 316 316 316 315 315 314 313 317 318 320 322 323 323 323 320 317
313 313 313 314 317 318 320 321 322 323 323 323 325 327 327 327 326 326 326 324 324 323 321 319 319 317 314 312 312 311 312 312 312 312 315 317 319 320 321 321 322 319 315
316 314 313 313 314 315 316 318 319 318 320 320 321 323 324 326 324 323 323 323 322 320 319 318 315 312 310 309 309 308 309 309 309 309 311 314 315 316 318 318 321 320 316
315 313 311 312 312 311 311 313 316 318 318 320 321 321 323 323 324 323 322 321 320 320 318 316 312 310 308 308 308 307 307 308 308 308 309 311 311 311 312 314 316 318 315
310 309 308 308 308 308 309 310 313 316 317 318 318 321 322 322 322 321 321 320 319 317 316 315 309 307 305 306 307 305 305 305 304 307 308 307 308 308 310 312 312 315 317
306 305 305 305 306 306 306 308 311 314 313 314 315 316 315 315 316 316 316 316 317 317 315 310 309 304 304 302 303 301 302 300 302 304 306 305 305 306 307 310 313 315 315
303 304 304 304 304 304 305 306 308 310 311 310 310 310 310 309 309 308 309 310 310 312 313 309 303 303 302 300 299 299 300 300 299 301 303 304 303 305 305 307 308 310 309
302 302 302 302 302 302 303 305 305 306 307 307 306 306 306 306 306 305 305 306 306 306 308 305 303 301 299 298 298 298 297 298 299 298 299 301 301 302 303 303 305 306 306
301 300 300 300 300 300 301 302 303 303 304 303 303 303 302 302 302 302 302 301 301 301 303 305 299 298 297 296 296 296 296 296 296 296 298 299 299 299 300 301 301 301 302
300 299 299 299 299 299 300 300 301 301 301 300 300 299 299 299 299 298 298 299 299 300 300 301 299 297 295 294 295 295 295 295 294 292 293 295 296 297 297 298 299 299 299
299 298 298 297 297 297 298 298 299 298 298 297 297 296 296 296 296 296 296 296 296 298 299 299 297 295 294 294 294 294 295 294 292 291 291 290 291 292 293 295 295 296 297
297 297 296 296 296 296 296 296 297 297 296 294 294 294 294 294 293 293 293 292 292 293 294 295 296 295 293 292 290 290 290 290 290 289 288 289 288 289 289 289 288 289 292
296 296 296 295 295 294 294 295 295 294 293 293 292 291 290 289 287 286 285 286 287 289 289 289 290 290 289 288 288 287 287 287 290 288 286 286 287 287 287 286 286 285 285
295 295 295 294 294 292 292 294 294 294 293 290 287 288 288 288 287 287 286 286 286 285 285 288 288 287 287 287 286 287 287 287 287 286 285 286 286 286 286 286 286 285 284
294 294 294 293 291 290 288 287 286 285 285 285 286 288 288 289 288 287 286 285 285 286 287 287 287 287 287 287 287 286 285 285 286 286 284 286 286 286 286 286 286 285 285
292 291 291 290 289 288 285 284 285 285 285 285 286 287 287 287 287 286 286 285 284 284 284 283 283 283 283 283 283 284 286 285 286 286 285 284 286 285 285 286 285 285 285
292 291 288 288 289 288 285 284 285 285 286 285 285 285 284 287 286 287 286 285 284 285 284 285 283 282 282 282 281 283 284 285 285 287 284 283 283 283 284 287 285 285 285

GFSMA_925_thetae_078.txt.gz
Theta_e
332 329 328 327 327 327 327 330 331 330 329 328 327 328 328 328 327 327 326 326 326 325 323 321 322 331 331 330 328 326 324 321 320 318 317 316 316 319 320 321 321 319 320
333 331 331 328 326 326 327 330 332 332 332 332 332 331 331 331 330 330 330 329 329 328 327 325 323 326 331 331 331 329 326 325 323 320 318 318 319 319 319 320 319 319 319
335 332 332 332 327 328 329 331 332 332 332 332 333 333 333 333 332 332 332 332 331 330 329 328 327 326 328 331 330 330 328 326 324 322 321 320 319 319 319 319 319 318 319
337 337 335 335 335 332 332 333 333 333 334 334 334 334 334 333 333 333 333 332 332 332 331 330 329 328 327 327 330 330 329 329 327 325 323 321 320 319 319 318 318 318 318
337 337 336 336 336 336 336 335 335 335 335 334 334 334 334 334 333 333 333 332 332 331 331 329 329 328 327 326 326 329 329 328 328 327 325 323 322 320 319 319 318 318 317
339 339 338 337 336 336 336 336 336 336 334 334 334 334 334 333 333 333 332 332 330 328 327 328 327 326 326 325 324 323 326 328 327 326 326 325 323 322 320 320 319 318 317
339 339 338 337 337 336 336 337 336 335 335 334 334 334 333 332 332 333 332 330 328 326 326 325 322 322 322 321 321 322 321 323 325 326 326 325 325 324 322 321 320 319 318
338 338 337 336 336 336 335 335 334 333 333 333 333 332 328 328 327 327 329 327 326 325 323 322 320 319 319 319 319 319 319 319 318 318 322 324 324 323 324 323 322 320 319
338 337 336 335 334 334 334 333 332 333 332 332 331 331 328 325 326 326 326 326 324 323 322 321 320 319 317 317 318 318 317 316 316 315 318 319 321 323 322 324 325 324 320
326 325 325 326 327 326 327 327 327 328 328 329 329 327 330 329 324 323 324 325 324 323 323 320 319 317 317 315 315 315 314 313 313 314 316 318 320 320 321 322 322 324 322
314 313 313 313 314 316 317 319 320 322 323 322 322 322 322 325 325 324 321 323 324 323 322 319 318 317 315 312 312 311 310 310 310 311 314 316 317 318 319 321 321 321 321
316 315 313 313 313 314 315 315 317 318 317 318 319 319 320 322 325 324 323 323 323 321 319 317 315 314 311 311 309 308 309 308 309 309 313 314 313 313 313 314 316 319 320
315 314 313 311 311 311 311 311 312 315 318 317 318 320 320 321 321 323 322 321 320 320 317 313 311 311 310 309 308 306 305 305 305 309 312 311 310 310 310 311 314 315 319
312 311 309 309 308 308 308 308 310 313 316 315 315 317 317 319 320 322 321 321 318 317 316 313 308 309 308 308 305 305 304 302 304 307 307 307 306 306 308 309 312 313 316
308 307 306 306 306 306 306 306 308 312 313 312 312 312 315 315 316 316 317 315 317 315 311 308 308 305 305 304 302 302 301 300 301 303 304 304 303 305 308 309 311 313 315
305 304 304 304 304 304 304 305 307 309 309 310 309 310 310 310 310 310 310 310 311 311 310 307 304 303 302 300 299 299 299 299 299 300 301 301 302 302 304 306 308 309 312
304 303 303 303 302 303 303 304 305 306 307 307 306 306 306 307 307 307 307 307 306 306 307 304 303 300 299 298 298 297 296 296 297 298 298 300 301 301 302 303 304 306 307
302 302 301 301 301 301 301 302 303 303 304 303 303 303 303 303 303 302 302 302 302 302 303 303 300 298 296 295 296 296 295 296 295 294 296 297 299 299 300 300 300 301 303
300 300 300 299 299 299 300 300 301 301 301 301 300 300 299 300 299 299 300 299 299 300 300 301 299 297 296 295 295 294 296 294 293 292 291 291 293 295 297 297 298 299 299
299 299 299 298 298 298 298 299 299 299 299 298 297 297 297 297 296 296 296 296 297 298 298 299 297 296 294 294 293 291 291 291 290 291 290 290 289 290 290 291 294 295 297
298 298 298 297 296 297 296 297 298 297 296 295 295 294 294 293 293 294 294 293 293 294 295 295 295 294 291 290 289 288 288 288 289 288 288 288 287 287 288 288 288 289 291
297 297 296 296 295 295 296 296 296 296 295 293 292 291 290 287 286 286 286 287 287 289 289 290 290 288 288 287 287 286 287 287 287 287 286 285 286 286 286 286 286 285 284
297 296 296 295 294 294 293 293 295 295 294 293 289 288 288 287 287 286 287 287 286 286 287 288 287 287 287 287 286 287 286 286 286 285 285 285 286 286 286 286 286 286 285
295 295 295 294 293 291 290 291 290 289 286 285 287 288 288 289 288 286 286 285 285 286 285 287 287 287 286 287 286 286 286 286 286 285 285 285 286 286 286 286 286 285 287
294 294 293 292 291 288 286 285 285 285 286 286 286 287 287 287 288 285 286 285 284 284 284 284 283 283 282 282 283 283 285 285 286 285 284 284 285 284 285 286 285 286 286
293 292 292 291 289 288 285 284 285 286 286 285 285 285 285 287 286 286 286 286 284 285 285 284 283 282 282 282 282 283 284 284 285 285 284 284 283 282 282 285 285 285 285

GFSMA_925_thetae_081.txt.gz
Theta_e
330 330 330 330 328 327 328 331 332 330 329 328 327 327 327 328 328 327 326 326 326 327 326 326 322 330 332 332 330 327 326 325 321 319 315 313 313 317 319 321 320 320 320
332 330 328 327 326 326 325 328 330 332 331 331 331 331 331 331 331 330 330 330 330 330 330 329 328 326 330 332 332 331 329 326 325 323 321 318 317 317 318 319 319 319 319
333 332 331 331 327 325 327 329 331 331 332 332 332 332 333 333 333 332 332 332 332 331 330 330 330 329 327 328 328 331 330 329 327 325 323 321 320 320 318 319 319 319 319
335 334 332 333 332 330 330 331 331 332 333 333 333 333 333 333 333 333 333 333 332 332 330 331 330 329 328 327 328 330 330 329 328 328 325 323 321 320 319 319 319 319 319
336 336 336 335 335 336 334 334 334 334 334 334 333 333 333 333 333 333 333 332 332 331 331 328 330 329 326 326 326 326 328 328 328 327 327 326 324 322 321 320 319 319 317
337 337 337 336 336 335 335 335 335 335 335 334 334 333 334 333 333 331 331 332 332 329 327 327 326 323 324 323 323 323 323 324 326 327 327 326 326 324 322 321 320 319 318
339 338 338 338 336 336 336 336 336 335 333 333 334 333 332 330 329 328 327 330 332 327 326 325 324 322 321 320 320 320 320 320 319 320 322 325 324 325 325 323 322 320 319
338 338 338 337 336 335 334 333 333 333 331 330 331 331 329 327 327 327 326 327 328 325 324 323 321 320 319 318 318 318 318 318 317 319 320 320 321 323 323 324 324 322 321
338 337 336 335 335 334 332 332 331 331 331 329 328 330 329 325 323 325 325 325 324 323 322 321 321 319 318 317 316 315 315 315 314 317 318 319 320 320 321 322 322 324 324
336 335 334 334 333 331 330 328 327 327 327 327 327 328 328 328 326 324 323 324 323 321 321 320 318 317 316 316 314 313 312 312 312 314 316 317 318 318 320 321 322 322 322
319 315 314 314 314 315 316 317 318 320 321 322 322 321 321 320 322 324 321 321 323 322 319 318 316 315 314 312 313 312 311 310 309 311 314 316 315 315 315 316 317 319 321
316 315 314 313 313 313 314 314 315 316 317 317 319 317 318 320 321 322 319 320 320 320 316 314 312 311 310 310 310 310 309 307 307 310 313 314 313 312 313 313 314 316 317
316 314 313 312 312 311 311 311 311 312 314 318 317 316 318 319 320 320 322 321 321 320 314 310 310 309 308 309 308 307 306 305 307 309 312 310 308 308 311 312 314 315 316
314 313 312 310 309 309 308 308 308 310 313 316 314 314 314 316 317 319 321 320 318 317 315 309 306 306 305 307 305 304 303 302 304 305 306 305 305 307 309 309 312 314 314
311 310 308 307 307 306 306 306 306 308 312 313 312 312 312 313 314 316 317 316 317 316 314 306 305 304 303 303 302 302 301 300 301 302 302 302 302 303 305 308 309 311 313
307 306 306 305 305 305 305 305 306 307 309 310 310 309 309 310 310 310 311 311 312 312 311 306 303 303 302 302 299 298 299 299 299 299 300 300 301 302 302 304 306 308 311
305 304 304 303 303 303 303 304 305 305 306 307 307 306 307 307 307 307 307 308 308 308 307 302 302 300 300 299 298 296 296 297 297 297 297 299 300 301 301 302 303 305 307
304 303 302 302 302 302 302 302 303 303 304 305 304 303 303 303 304 304 305 305 304 304 304 303 300 299 298 296 296 296 295 295 293 293 293 295 297 298 299 300 299 302 304
302 301 301 300 300 300 300 301 301 301 302 302 302 301 300 301 301 300 300 300 300 300 301 301 298 298 296 295 294 294 295 293 291 291 291 291 292 293 294 296 297 298 299
300 300 299 299 299 298 299 299 299 300 299 299 298 298 298 298 297 297 297 296 298 299 299 299 298 296 295 294 293 291 290 290 289 289 288 289 288 289 290 290 292 295 296
299 299 298 298 298 297 297 297 298 298 298 297 296 296 295 295 295 295 295 294 295 296 296 297 296 294 291 289 288 288 287 287 287 288 287 286 287 287 287 286 286 286 288
298 298 297 297 297 297 296 297 297 297 296 296 294 293 292 288 287 287 288 288 288 289 290 292 290 288 287 287 287 286 287 286 287 287 285 285 286 285 286 286 286 286 286
297 297 297 296 296 295 295 295 296 296 295 293 292 289 287 287 286 287 288 287 288 288 287 288 287 287 287 287 286 286 285 285 285 285 285 285 286 286 286 286 286 286 287
297 296 296 295 295 293 293 293 294 294 293 290 288 288 288 288 287 286 285 285 285 285 285 286 287 287 286 286 286 286 285 286 285 285 285 284 285 285 285 286 286 286 287
296 295 295 294 294 291 290 288 287 286 285 286 287 288 288 288 288 286 285 284 284 285 284 284 283 283 282 282 283 283 285 285 285 284 285 284 284 283 285 286 285 286 286
295 294 293 293 292 289 288 287 285 285 285 285 286 287 287 287 287 287 286 285 284 285 285 284 283 283 282 283 282 282 284 284 285 284 284 284 283 282 283 285 285 284 284

GFSMA_925_thetae_084.txt.gz
Theta_e
335 331 330 331 329 328 328 329 331 330 329 328 327 327 327 327 328 328 328 327 326 327 329 328 327 326 331 331 331 330 328 326 325 322 319 315 313 316 320 321 320 321 321
331 330 329 328 328 327 326 326 329 330 331 331 331 331 331 331 331 331 331 330 330 329 329 330 329 330 328 328 331 331 330 328 327 324 322 320 318 316 318 320 319 320 319
331 331 329 327 327 325 325 326 329 331 331 331 331 332 332 333 333 332 332 332 332 332 331 329 330 330 328 328 330 329 330 328 329 327 325 322 321 320 318 319 319 319 319
334 332 331 331 331 328 327 329 330 330 331 332 333 333 332 332 332 332 331 332 332 331 330 329 330 330 328 328 327 329 329 328 328 328 327 325 323 321 321 320 320 319 319
334 334 333 331 333 334 332 331 333 333 334 334 332 333 332 331 331 333 333 332 331 331 330 330 328 328 328 325 325 325 327 326 326 327 326 327 326 324 322 321 320 319 318
336 335 335 335 335 335 335 335 335 335 335 335 333 332 331 330 332 330 331 327 329 331 330 326 326 325 323 322 322 322 322 321 320 320 323 326 325 326 325 323 321 321 319
337 336 336 336 336 334 334 334 335 334 333 333 331 328 329 329 328 328 327 327 327 331 329 325 324 322 321 320 319 319 319 319 319 320 321 321 322 323 324 325 324 322 320
338 337 337 338 337 335 334 334 332 331 330 330 329 329 325 327 327 326 326 327 327 327 325 323 322 320 320 319 318 316 315 314 316 319 320 320 321 321 322 323 323 325 322
338 338 338 337 336 335 333 332 331 330 330 330 329 328 326 324 322 325 324 324 323 322 320 320 320 319 318 317 316 315 314 313 314 316 317 318 318 318 320 322 322 323 323
336 336 336 336 335 333 333 332 330 328 327 327 326 326 327 328 325 322 322 322 322 321 320 319 318 316 316 315 313 313 313 312 312 313 316 317 317 317 318 319 320 321 321
334 335 333 329 325 321 318 316 317 318 320 321 321 320 320 320 321 320 321 320 321 319 318 317 315 314 313 311 311 311 311 310 309 312 314 315 315 314 315 315 316 316 317
328 318 314 313 313 313 313 314 314 314 316 316 317 319 318 318 319 319 319 319 318 314 313 312 312 312 311 309 310 310 309 308 308 313 314 313 311 311 312 313 315 315 317
316 315 314 313 312 312 312 311 311 311 312 313 316 317 316 317 318 318 319 318 319 314 310 309 309 309 308 307 307 308 307 305 306 309 310 309 307 308 311 312 313 314 315
315 315 313 312 311 310 309 309 308 308 309 311 315 315 314 313 315 316 319 320 316 317 311 306 305 305 305 304 304 304 304 302 304 305 305 304 304 305 307 308 310 310 313
315 313 311 309 308 308 307 306 306 306 308 312 314 312 311 311 311 312 314 316 317 316 315 304 303 303 303 303 301 302 301 301 302 302 302 302 302 302 303 306 307 309 312
311 309 308 307 306 305 305 305 305 306 307 309 310 310 309 309 310 310 311 312 313 314 311 305 303 302 301 301 300 299 298 298 299 299 299 300 301 301 301 302 303 306 310
309 307 305 304 304 304 304 303 304 305 305 306 308 306 306 307 308 308 308 308 309 309 308 302 302 300 299 299 298 296 296 297 296 297 297 298 299 300 300 300 301 303 306
304 305 304 304 303 302 302 302 303 303 303 305 305 304 303 304 304 304 305 305 305 305 306 301 299 299 299 298 296 295 295 294 293 293 293 294 296 296 297 299 300 301 303
303 303 303 302 302 301 301 301 301 302 302 303 303 302 302 301 301 302 302 302 302 302 303 302 298 298 297 296 295 294 294 292 291 290 290 291 292 292 293 295 297 298 299
302 302 301 301 300 299 299 299 300 300 300 300 300 300 300 299 299 299 299 299 299 299 300 300 299 297 296 294 293 292 290 290 289 289 288 288 288 288 290 289 290 292 296
301 300 300 299 299 298 298 298 298 299 299 298 298 297 296 296 296 295 295 295 296 297 298 298 297 295 292 290 289 288 287 286 286 287 286 286 286 286 286 286 286 286 286
300 299 299 298 297 297 297 297 297 298 297 297 296 294 292 290 290 291 291 290 291 293 294 295 293 292 289 288 287 286 287 286 286 286 285 285 285 286 286 286 287 287 286
299 298 298 297 297 296 296 296 297 297 296 295 294 292 289 287 287 288 289 289 289 287 288 289 289 288 287 287 286 286 285 285 285 285 285 284 286 286 285 286 287 287 288
298 297 297 296 296 295 295 295 295 295 295 294 292 288 287 287 287 286 286 286 286 285 286 287 287 287 286 286 286 286 285 285 285 284 285 284 284 285 285 285 286 287 287
297 297 296 295 295 294 293 293 294 293 293 290 288 288 288 289 288 286 285 284 284 285 284 284 283 283 283 283 283 283 284 285 284 284 284 284 284 283 285 285 285 285 285
296 295 295 294 294 293 291 289 286 286 286 286 287 287 287 287 288 287 286 285 284 285 285 284 284 283 282 283 283 282 283 284 285 284 284 283 283 282 283 285 284 284 284

GFSMA_925_thetae_087.txt.gz
Theta_e
336 335 333 331 329 329 329 331 331 330 329 328 328 327 327 327 328 328 329 329 328 326 326 327 328 329 329 331 331 330 330 328 326 324 322 319 315 314 317 320 320 320 320
335 332 331 330 330 328 326 326 328 330 330 330 330 330 331 331 331 331 331 331 330 329 328 327 328 329 330 329 328 330 328 328 328 328 324 322 320 317 316 318 317 319 319
333 331 330 328 327 327 326 325 327 329 330 331 331 331 332 332 332 332 331 331 330 331 330 331 330 330 329 328 328 329 329 328 327 328 327 325 323 321 320 319 319 318 319
332 330 330 329 329 328 325 326 327 329 330 331 332 333 332 330 331 330 330 331 332 332 331 328 328 329 329 328 325 327 328 326 325 327 327 327 326 324 322 321 320 319 319
333 332 332 331 330 331 329 328 330 332 333 334 334 331 331 330 330 330 331 332 331 329 331 331 329 328 328 325 323 324 324 322 321 322 325 326 326 326 324 323 321 321 320
336 334 333 333 332 334 335 335 334 334 334 334 333 332 331 329 328 328 329 329 329 328 329 331 327 327 324 321 321 320 319 319 319 320 320 320 322 324 325 325 324 322 321
336 335 335 335 334 335 332 333 331 333 333 331 331 328 327 327 327 326 327 326 325 326 328 330 327 324 321 320 319 317 316 316 315 320 320 321 321 321 322 324 325 324 322
336 336 336 336 335 335 335 333 332 332 331 329 329 328 324 326 326 325 325 325 326 326 327 326 323 321 320 319 317 316 315 314 313 318 318 318 318 319 321 323 323 323 325
335 336 335 335 336 336 333 332 332 331 330 330 329 328 326 323 321 324 323 323 323 323 321 321 319 319 318 317 316 315 313 313 313 313 316 317 317 318 319 321 321 322 322
334 334 333 336 335 335 334 333 331 330 329 328 327 325 326 327 324 319 322 321 321 319 318 318 318 317 316 316 314 313 312 311 311 313 315 315 316 316 316 316 317 318 319
331 332 334 334 332 332 331 328 320 317 318 319 321 321 320 319 321 320 321 317 319 318 317 316 315 314 314 313 312 311 310 309 312 314 314 316 315 314 313 314 315 316 316
329 326 327 320 316 314 313 313 313 313 314 315 316 317 319 318 316 316 315 316 316 313 312 312 312 312 312 311 311 310 308 307 307 308 313 313 311 310 314 314 313 313 314
325 320 315 313 313 312 312 312 311 311 311 311 312 315 316 316 316 316 317 316 315 313 309 309 309 309 310 309 308 308 305 305 307 309 310 309 306 307 309 310 311 312 313
320 316 314 313 312 311 310 309 309 308 308 309 310 313 316 314 313 313 315 316 317 315 309 308 308 307 306 306 305 305 303 304 304 305 306 304 304 304 305 306 307 309 310
316 315 313 312 310 309 308 307 306 306 306 307 310 313 313 311 311 310 311 313 314 315 314 304 303 304 303 303 302 302 302 301 301 301 301 302 302 302 302 303 304 306 309
314 312 310 309 308 307 306 305 305 305 305 306 308 310 310 309 309 309 309 310 311 312 313 306 303 302 301 301 300 300 300 299 299 299 300 300 300 301 300 301 301 304 308
311 310 309 309 307 305 304 304 304 304 304 305 306 307 306 306 306 307 308 308 308 308 308 302 301 300 300 299 298 300 297 297 297 297 297 298 299 299 299 299 300 302 304
308 307 306 305 304 304 303 303 302 303 303 303 304 305 304 303 303 305 304 305 305 305 306 303 300 298 298 298 298 297 296 293 293 293 293 294 295 296 296 296 298 299 301
306 305 304 303 303 302 301 301 301 301 301 302 302 303 303 301 301 301 301 302 302 303 303 303 298 298 297 296 296 295 294 292 292 291 290 290 291 292 293 292 294 297 299
304 304 302 302 301 300 300 300 300 300 300 300 300 300 300 299 299 299 298 299 299 300 301 301 298 297 296 295 294 293 291 290 290 289 288 288 288 288 289 287 287 289 294
303 302 301 300 300 299 299 298 298 299 299 299 298 298 298 297 297 297 296 296 296 298 298 299 297 295 294 292 291 289 289 287 286 287 286 286 286 286 286 286 287 287 286
301 300 300 299 299 298 298 298 297 297 298 297 297 296 295 294 293 293 293 292 293 295 295 296 295 294 292 290 288 287 286 286 286 286 285 285 285 285 286 286 288 289 287
300 299 299 298 298 297 297 297 296 297 297 296 295 294 292 289 288 289 290 290 288 288 289 293 294 292 290 288 287 286 286 285 284 285 285 284 285 285 285 286 288 288 288
299 299 298 298 297 297 296 295 296 296 296 295 294 292 289 287 287 287 286 287 286 286 286 287 287 287 287 287 286 286 285 285 285 285 285 284 284 285 284 286 287 287 287
299 298 298 297 297 296 295 294 295 295 294 294 293 289 288 288 288 286 285 285 285 285 284 284 284 285 285 284 284 284 284 285 284 284 284 284 284 284 284 285 285 285 286
298 297 296 296 296 295 294 292 293 293 292 291 288 287 288 288 289 288 286 285 284 285 285 284 284 283 283 284 283 282 283 284 284 284 284 284 283 283 283 285 285 284 284

GFSMA_925_thetae_090.txt.gz
Theta_e
331 333 333 330 328 327 328 329 331 330 330 328 328 328 327 328 328 329 329 329 329 328 327 326 328 329 330 330 329 328 328 328 327 327 326 322 319 316 315 317 319 318 318
335 335 332 330 329 328 328 328 328 329 330 330 330 330 331 331 331 331 331 331 331 330 330 328 327 328 329 328 329 327 327 327 327 328 327 326 323 321 318 317 316 317 316
334 334 332 330 329 328 327 326 325 327 329 330 330 330 331 332 331 331 329 329 328 329 331 331 330 329 328 326 327 326 327 326 324 324 327 327 325 323 322 320 319 318 317
332 332 332 330 328 327 326 325 325 327 329 330 331 332 332 331 329 328 328 328 328 332 332 330 330 328 328 328 325 325 325 323 321 321 325 327 327 326 324 323 321 321 319
333 332 331 330 328 329 328 325 327 329 331 333 333 333 330 329 328 328 327 327 329 329 330 329 330 329 328 327 322 321 322 319 317 317 319 322 324 325 326 325 324 322 321
334 332 331 331 331 330 331 332 332 332 332 331 331 331 330 328 327 326 326 326 327 326 327 328 330 327 327 323 321 320 317 316 316 316 319 321 322 322 324 324 325 324 323
334 334 333 332 332 331 334 334 332 332 330 331 331 329 328 327 326 326 326 325 325 325 325 327 328 326 324 321 319 317 316 316 314 314 318 318 319 320 321 323 324 324 324
333 333 334 333 334 334 334 333 332 331 331 330 328 327 322 324 324 324 323 323 323 325 326 327 325 324 321 319 318 316 315 314 318 318 318 317 317 318 319 321 322 322 323
334 334 334 333 333 334 334 334 332 331 331 330 329 328 325 322 320 323 322 321 321 322 323 322 321 320 319 318 316 315 314 313 312 315 316 316 316 316 317 319 318 320 321
333 334 333 329 329 329 331 332 331 331 329 327 325 326 326 325 322 318 320 320 320 319 319 318 318 317 316 316 315 314 313 312 313 315 315 315 317 317 316 314 315 316 317
332 332 331 330 329 329 329 327 325 321 317 317 318 319 319 319 320 319 318 315 318 317 317 316 316 315 314 313 313 312 311 310 310 314 315 315 315 315 315 313 315 315 314
329 329 330 329 328 321 316 313 313 313 313 314 314 315 317 317 315 314 314 315 314 314 313 313 313 313 312 311 311 310 309 308 309 311 312 312 311 309 313 314 314 314 314
327 324 322 321 317 313 312 311 311 311 310 310 310 311 314 315 315 314 314 315 313 313 313 312 311 311 310 309 309 309 307 306 306 308 309 308 307 306 308 309 309 311 311
328 322 314 314 312 311 311 310 309 308 308 308 308 310 311 315 314 313 312 312 312 313 310 309 308 307 309 308 307 307 304 304 304 304 305 304 303 303 304 305 305 307 308
324 323 314 312 311 310 309 308 307 306 306 306 307 309 311 312 311 311 310 311 311 313 313 306 307 306 306 304 304 303 303 302 302 302 301 301 301 301 301 302 303 305 307
320 314 313 311 310 311 309 307 305 305 305 305 306 307 309 310 309 308 308 309 309 310 312 307 304 304 303 304 301 302 300 299 299 300 299 300 301 300 300 299 300 303 305
313 311 309 308 309 306 305 305 305 304 303 304 304 305 306 306 305 305 306 307 307 308 308 302 303 301 300 300 300 299 297 298 297 296 297 298 298 298 298 297 298 299 302
309 308 307 307 303 305 304 303 303 302 302 303 303 304 305 304 303 302 303 304 304 304 305 304 301 299 299 298 297 297 297 295 294 294 294 294 294 295 294 294 296 299 299
307 306 305 304 305 304 303 302 301 301 301 301 301 302 302 302 301 300 300 301 301 302 302 303 300 298 297 296 296 295 295 293 292 292 291 291 292 293 291 291 292 295 297
306 305 304 303 302 302 301 300 300 300 300 299 299 299 299 300 299 299 300 300 300 300 300 300 298 297 296 295 294 294 293 292 291 290 288 288 288 289 288 287 287 288 292
304 303 302 302 302 301 300 299 298 298 298 298 298 298 298 297 297 297 296 296 296 297 298 299 297 295 294 293 293 292 291 290 287 287 286 286 286 286 286 286 288 287 287
302 302 302 301 300 299 299 298 297 297 297 297 297 297 296 295 294 293 292 292 292 294 295 297 296 295 294 293 291 289 287 286 286 286 286 285 285 285 286 287 289 290 290
302 301 300 300 299 298 298 297 297 297 297 297 296 296 294 291 290 290 289 290 289 289 290 293 295 294 294 292 289 287 286 285 285 284 285 284 285 285 285 287 288 288 289
301 300 299 299 298 298 297 296 296 296 297 296 295 294 293 290 287 287 287 287 286 286 286 287 288 290 288 288 287 286 285 285 284 284 285 284 284 284 284 286 287 287 288
300 300 299 298 298 297 296 295 295 295 295 295 294 293 291 288 287 288 286 285 285 285 284 285 286 286 286 286 286 285 285 285 284 284 284 285 284 284 284 285 285 285 286
299 298 298 297 297 296 296 295 294 294 294 293 292 291 288 288 288 289 286 285 284 285 285 284 284 284 284 286 283 283 283 284 284 284 284 284 283 283 284 285 284 284 284

GFSMA_925_thetae_093.txt.gz
Theta_e
327 327 328 327 327 326 326 325 328 329 329 328 328 327 327 328 329 329 330 330 330 330 329 328 328 329 331 329 328 329 327 327 328 327 326 326 323 320 317 316 316 316 317
330 331 333 331 328 327 328 328 329 329 329 329 329 330 330 330 331 331 331 330 329 330 329 330 329 328 330 327 327 326 325 325 325 325 327 327 326 323 321 319 317 315 314
334 335 334 331 329 329 327 326 326 326 328 329 330 330 331 332 331 329 329 327 327 328 330 330 331 330 328 328 326 325 324 323 321 321 323 328 327 326 324 323 321 319 317
334 334 333 332 330 329 328 327 325 325 328 329 330 331 332 331 330 328 328 327 327 327 329 330 330 329 328 328 327 323 321 320 318 317 319 323 327 327 326 324 323 322 321
334 333 332 332 330 328 327 325 324 326 329 332 333 333 331 331 330 328 327 327 326 327 328 328 328 329 328 327 324 321 319 316 316 316 317 319 322 323 325 326 326 324 323
334 333 333 332 330 328 328 327 326 329 331 331 331 331 330 329 327 327 326 325 325 325 325 325 327 329 327 326 323 321 318 317 315 317 317 319 320 322 323 324 324 325 324
332 333 333 332 330 329 330 330 332 331 331 331 331 330 328 327 326 325 324 324 325 324 323 325 327 327 326 324 321 319 318 316 317 319 319 319 318 318 319 320 322 323 325
332 331 332 332 330 330 330 333 332 331 330 330 330 328 329 326 324 323 323 322 322 323 325 326 326 325 324 321 319 317 315 314 314 315 317 317 318 317 318 320 321 321 322
333 332 332 332 330 331 331 332 332 331 331 330 329 329 328 327 324 322 321 320 320 321 322 324 323 322 320 318 316 315 314 313 313 316 316 316 316 316 318 318 317 317 320
332 333 333 332 331 328 327 328 328 329 328 328 327 325 326 325 324 322 319 319 319 318 319 319 319 318 317 316 315 314 314 312 313 316 317 318 317 317 317 314 313 314 316
332 333 332 331 328 327 326 324 325 326 320 317 316 317 318 319 320 321 319 318 317 317 317 316 316 315 314 314 314 313 313 311 310 311 314 315 315 315 314 316 316 315 315
331 331 330 330 328 327 325 325 324 316 312 312 313 314 316 317 316 316 317 316 316 315 315 315 314 313 312 312 312 311 310 309 309 312 313 312 310 311 310 313 313 314 313
329 329 329 329 328 325 324 321 313 311 310 310 310 310 312 313 315 315 314 314 314 314 312 312 312 311 311 310 310 310 308 307 307 307 309 308 306 306 308 309 309 309 311
328 328 328 327 322 316 312 311 310 309 308 308 308 308 309 311 313 313 313 312 312 312 311 312 311 309 309 309 308 309 306 306 306 304 305 304 303 303 304 305 305 306 308
327 327 323 317 313 311 310 309 308 308 307 307 307 307 309 309 311 311 310 310 310 310 312 309 308 307 306 306 306 305 303 303 303 302 302 302 302 302 301 301 302 304 306
324 319 314 312 310 309 308 307 306 306 306 305 305 306 307 309 309 309 308 308 308 308 310 308 306 306 304 303 302 302 301 301 300 300 300 300 300 300 299 299 299 301 304
319 314 310 308 307 308 308 305 305 303 304 304 304 305 305 306 306 305 305 305 306 307 308 305 304 303 302 301 300 300 299 298 298 297 297 298 298 298 297 296 296 299 301
313 311 308 307 308 306 304 304 303 303 304 303 303 303 304 304 303 302 302 302 303 304 304 305 302 301 300 299 298 298 297 295 295 294 294 295 295 294 293 293 296 298 299
309 307 307 307 305 304 303 302 302 303 302 302 302 302 302 302 302 301 300 300 301 301 301 302 301 300 299 298 297 296 295 293 293 292 291 291 293 292 291 290 290 293 297
307 305 305 304 303 302 301 302 301 301 301 300 300 300 300 300 300 299 299 299 299 299 300 300 300 298 297 296 296 295 293 293 292 291 289 288 288 288 288 287 287 287 292
304 303 303 302 301 301 301 300 299 299 299 298 298 299 299 298 298 297 297 297 296 296 298 298 298 296 295 293 293 293 292 291 290 288 287 286 286 286 286 287 289 289 289
302 302 301 301 300 300 299 299 298 298 298 298 298 297 297 296 295 293 293 293 293 294 295 296 296 296 295 294 293 290 290 288 288 286 286 285 285 285 286 287 289 289 291
302 301 301 301 300 300 299 298 298 297 297 297 297 296 295 293 292 291 290 290 289 290 292 294 295 296 296 295 293 289 287 286 286 285 285 284 285 285 285 288 289 289 289
301 300 300 300 299 299 298 298 297 297 297 297 296 296 294 292 290 288 288 287 286 286 286 287 289 292 292 292 290 288 286 285 284 284 285 286 284 284 285 287 287 288 288
300 300 300 299 299 298 297 296 296 296 296 296 295 294 293 291 288 287 287 286 285 285 285 286 287 287 287 287 287 286 285 286 286 284 285 285 284 284 284 285 286 287 286
300 299 298 298 298 297 297 296 295 295 294 294 294 293 292 291 288 289 287 285 285 285 285 285 285 286 286 285 284 284 284 284 285 285 284 284 284 283 285 285 285 285 285

GFSMA_925_thetae_096.txt.gz
Theta_e
328 328 328 328 328 329 328 328 329 329 329 330 330 330 330 330 330 330 330 330 330 330 329 329 329 329 332 330 329 328 326 326 327 328 328 327 326 323 320 318 317 316 315
330 331 331 332 331 330 329 329 331 331 331 331 331 331 331 331 331 331 331 331 329 328 329 329 329 330 329 329 328 325 325 324 324 323 323 327 327 326 323 321 320 317 315
333 332 335 334 332 331 330 330 330 330 330 331 331 331 332 332 332 331 331 330 330 328 328 328 330 331 330 328 328 325 323 321 320 319 319 323 327 327 326 324 323 322 320
334 335 336 335 333 332 331 329 328 327 329 331 332 332 333 332 331 330 330 328 329 329 329 329 329 329 328 328 327 325 320 319 316 316 316 318 323 326 326 326 325 324 323
336 335 335 335 334 332 330 330 328 327 330 332 334 334 333 332 331 331 330 329 329 328 328 329 328 328 328 327 327 324 320 317 316 316 315 317 320 323 324 325 326 326 325
337 336 335 334 334 332 329 328 327 328 332 334 332 331 331 330 328 327 327 326 325 327 327 327 328 329 329 328 327 324 321 318 316 315 317 318 319 319 321 323 324 325 325
334 334 334 334 333 331 330 329 330 332 332 333 332 330 329 329 328 327 325 324 325 326 326 327 328 329 327 327 325 323 320 318 318 316 316 318 319 318 318 320 321 322 323
332 332 333 333 332 332 332 331 333 333 332 333 331 332 329 326 326 325 324 323 324 323 324 325 326 326 325 323 322 319 317 315 314 315 317 317 317 318 318 320 321 320 322
333 333 332 331 331 332 333 332 332 332 332 331 330 329 328 325 325 322 324 322 322 322 322 322 321 320 319 319 317 316 314 314 314 317 318 318 318 318 318 318 317 317 316
332 331 331 332 331 330 330 328 327 327 329 330 330 328 328 326 322 321 321 322 320 319 319 318 318 317 316 317 316 314 313 313 313 316 316 317 317 317 318 317 316 316 315
329 329 330 331 331 328 326 326 325 324 320 317 321 320 319 320 320 321 320 318 319 318 317 316 316 315 314 315 314 313 314 312 312 313 314 315 314 314 315 316 315 316 316
330 328 331 331 329 328 328 326 325 322 322 318 313 316 318 317 317 318 318 318 317 317 315 315 314 313 312 311 312 312 312 311 310 312 313 313 311 310 311 313 313 313 314
329 328 328 327 325 328 327 324 325 323 321 315 312 312 313 316 316 316 316 316 315 314 315 313 312 310 310 310 309 310 309 309 308 308 310 309 307 306 307 309 309 310 311
328 328 328 326 328 328 326 324 321 317 312 311 310 309 311 313 314 314 314 314 314 314 313 313 309 309 307 308 308 308 307 306 305 305 305 305 304 303 303 304 305 306 307
325 328 327 328 328 326 322 318 311 310 309 309 309 310 312 313 312 313 313 313 312 312 312 313 311 307 308 307 306 305 304 304 303 303 302 302 302 302 301 301 302 303 304
324 324 322 321 320 314 312 310 308 308 307 307 307 308 309 310 311 311 311 311 310 309 310 310 308 305 306 305 304 302 302 301 301 301 300 300 300 300 300 299 299 300 301
322 322 317 314 311 310 309 308 307 306 306 306 305 307 308 308 308 307 307 307 308 308 309 308 307 306 303 302 301 300 300 299 299 298 298 298 298 298 297 296 296 297 299
318 317 313 310 308 307 308 307 305 305 304 304 304 305 306 305 306 305 305 305 305 306 305 306 303 303 301 300 300 299 299 297 295 296 295 296 295 295 294 293 294 295 298
310 309 308 307 307 307 305 304 303 303 303 303 303 304 305 305 305 304 303 302 302 302 303 303 302 301 300 299 297 297 296 294 293 294 292 292 294 292 291 289 288 289 295
307 306 305 305 305 304 303 303 303 302 301 301 301 301 301 302 302 301 300 300 299 299 300 301 301 299 298 297 296 296 295 294 292 292 291 290 289 288 288 287 288 287 290
305 304 303 303 302 302 302 302 301 301 301 300 300 299 299 299 299 299 298 299 298 297 298 299 299 297 296 294 295 295 294 292 290 289 288 287 287 287 287 289 291 291 290
303 303 302 302 301 300 301 301 300 300 300 300 299 298 297 297 296 296 295 295 294 296 297 297 297 297 296 296 295 294 294 293 293 288 287 287 286 287 287 288 290 290 291
302 301 301 301 301 300 300 299 298 299 299 299 298 297 296 295 294 294 292 290 290 291 293 295 296 296 296 296 294 293 292 291 290 286 286 287 286 286 286 289 289 289 290
301 301 300 300 300 299 299 298 298 298 298 297 297 297 295 294 293 291 290 289 287 287 287 288 291 294 293 294 292 292 290 288 286 285 285 288 285 286 285 287 287 289 289
300 300 299 299 299 298 298 297 297 297 297 297 296 296 295 294 292 289 288 288 287 288 287 287 287 288 289 289 288 287 287 287 288 287 285 287 285 285 285 286 286 287 288
300 299 299 298 298 298 297 297 296 296 296 296 293 295 295 293 292 289 288 288 287 288 287 288 288 287 287 286 286 286 287 289 288 287 286 287 285 285 288 285 285 285 285

GFSMA_925_thetae_099.txt.gz
Theta_e
330 330 330 330 330 328 328 327 327 327 326 328 330 330 330 331 330 330 331 330 330 330 329 329 329 329 329 330 328 327 325 324 324 327 326 327 327 326 324 321 320 319 316
328 328 329 329 329 330 329 329 329 330 330 330 330 331 331 331 331 331 332 332 331 328 327 328 328 328 329 329 328 326 324 322 321 321 319 320 327 327 326 324 322 321 319
330 331 331 333 332 331 329 330 329 331 330 331 332 332 332 332 332 331 330 330 330 329 329 328 327 328 329 330 328 327 324 320 318 316 316 316 320 326 327 327 325 324 323
333 333 335 335 333 332 330 329 330 329 328 330 332 332 332 333 332 330 330 329 329 329 329 329 330 329 328 328 328 327 323 318 316 315 314 314 315 319 323 325 326 326 325
335 336 337 336 334 333 331 331 329 327 328 331 332 332 333 332 330 329 329 329 328 328 328 327 328 328 327 328 328 327 321 317 316 316 315 315 315 316 321 323 324 325 326
337 336 336 336 335 334 332 331 330 327 330 331 333 332 331 330 329 328 328 326 325 326 328 328 328 329 329 328 328 328 324 318 317 316 316 315 315 319 319 319 321 323 324
337 337 336 335 335 335 333 330 330 330 332 333 332 330 330 329 328 328 326 325 324 326 326 326 327 328 326 327 327 325 322 320 318 316 316 316 315 318 318 318 321 322 322
335 336 335 335 335 334 333 332 331 332 333 333 331 331 331 327 327 325 325 324 323 324 324 324 326 326 325 325 325 322 319 317 315 318 318 318 318 318 319 320 319 319 319
335 334 334 333 333 332 332 333 332 334 333 332 330 330 329 327 324 323 325 323 322 322 323 323 323 323 322 322 320 317 315 314 315 318 320 319 319 319 319 319 319 318 318
332 333 332 331 331 331 331 332 331 330 329 330 330 330 329 325 323 322 322 322 321 321 321 320 320 319 318 316 316 315 314 313 314 316 316 317 317 317 317 317 317 317 317
329 329 329 328 330 331 331 330 327 324 322 321 317 318 319 320 321 321 322 320 320 319 319 318 318 318 315 314 314 314 313 313 314 315 316 316 315 313 313 314 315 316 316
328 329 327 326 330 330 328 328 327 327 326 325 320 316 317 318 319 319 319 318 318 317 317 316 316 315 314 312 312 312 312 312 311 311 313 313 311 309 309 310 312 313 313
327 327 328 325 328 329 327 325 325 326 324 321 319 317 316 314 316 317 317 317 317 315 315 315 314 312 311 310 309 309 310 309 309 309 310 310 307 306 306 307 308 309 310
329 327 327 327 328 326 326 327 327 324 321 319 315 313 314 313 315 316 316 316 316 315 314 314 312 310 309 308 308 307 307 308 307 306 306 305 305 304 303 303 303 304 305
329 326 326 329 328 326 326 326 324 321 318 313 312 311 310 311 313 314 314 314 314 314 313 313 311 308 308 308 307 306 305 305 304 304 303 303 302 301 301 300 300 301 302
327 326 325 326 327 325 325 322 319 314 311 311 310 310 311 312 312 312 311 311 311 311 312 310 309 307 305 305 305 304 303 302 302 301 301 300 300 300 299 299 298 298 300
323 323 323 323 322 320 318 318 314 310 309 309 308 309 310 310 310 310 310 309 309 309 309 309 307 306 306 303 302 302 301 300 300 300 299 298 298 298 297 296 295 297 298
320 321 321 321 317 314 312 310 308 308 307 307 307 306 307 307 307 307 307 307 307 306 307 307 305 305 303 301 300 300 299 298 298 298 297 296 296 295 293 290 289 291 295
314 314 315 314 310 308 307 307 307 307 306 305 305 305 306 307 307 306 305 304 304 303 303 304 304 302 301 300 299 298 297 296 296 296 295 293 294 293 290 289 288 288 290
312 309 308 307 307 306 306 307 306 305 304 304 304 304 305 305 305 305 303 302 302 301 301 302 302 301 300 298 297 297 296 296 294 292 293 291 291 289 288 288 291 291 290
309 308 307 306 305 305 305 304 303 303 303 303 302 302 302 302 302 302 301 301 300 300 300 301 301 299 297 296 296 296 295 295 294 291 290 288 288 287 288 290 290 291 292
307 306 305 304 304 303 303 302 303 302 303 302 301 300 299 299 299 299 299 298 298 299 299 298 299 298 298 297 296 295 295 293 295 291 289 288 286 287 287 287 290 290 292
305 304 304 303 303 302 301 301 301 302 301 301 301 299 298 297 297 296 295 295 293 294 296 297 297 297 297 297 297 295 294 294 293 289 287 288 287 287 286 289 289 290 291
304 303 303 302 302 302 301 300 300 300 300 300 299 298 297 294 295 295 294 291 289 288 288 289 293 296 296 295 295 294 294 291 289 287 286 288 286 287 286 287 287 289 289
303 303 303 302 302 301 300 299 299 299 299 298 298 298 297 294 294 293 291 290 288 289 287 287 288 290 292 293 292 292 290 288 288 287 285 288 286 286 285 287 286 287 288
303 302 302 301 301 301 300 299 298 299 299 299 297 296 295 294 295 293 290 289 288 289 289 289 287 287 287 287 288 289 288 289 289 288 287 287 286 286 287 286 286 286 286

GFSMA_925_thetae_102.txt.gz
Theta_e
334 333 330 331 329 326 330 328 329 327 326 326 328 329 329 330 330 329 330 330 330 329 328 328 329 328 329 329 328 327 325 323 322 321 319 319 322 326 325 325 322 321 319
331 331 330 330 330 328 328 327 327 327 327 328 330 330 330 331 331 331 331 331 330 330 327 327 327 326 328 329 328 327 324 321 319 317 316 315 317 324 327 326 325 324 322
329 329 329 328 328 328 329 329 328 329 330 330 331 331 331 331 331 331 331 330 329 329 329 328 329 327 328 328 330 327 324 320 317 316 314 315 314 316 322 325 326 326 325
328 328 329 330 331 331 329 329 329 330 330 329 331 331 331 332 331 331 329 329 328 328 329 328 328 329 328 327 331 328 325 319 316 316 315 316 316 316 318 322 324 324 326
331 332 334 333 332 332 330 330 329 329 328 328 331 332 332 332 331 329 328 328 327 326 326 326 327 328 327 326 330 330 325 318 316 316 316 316 316 316 320 320 321 323 324
334 332 336 336 334 333 332 331 330 329 327 328 331 332 331 331 330 329 328 327 325 324 327 327 327 328 328 328 329 329 325 319 317 317 316 316 315 316 320 319 321 321 323
335 336 336 335 335 334 333 332 330 330 327 330 332 332 330 330 329 328 326 325 323 325 325 324 327 328 325 327 329 327 324 322 319 317 317 317 318 317 319 321 320 320 320
337 336 335 336 336 335 334 332 330 330 330 332 332 330 326 327 327 325 325 324 323 324 323 323 326 324 324 323 325 324 322 319 318 318 320 320 317 319 320 320 320 320 319
335 335 335 335 334 334 334 333 332 331 332 332 331 329 326 324 323 325 325 323 322 322 322 322 322 323 322 321 322 321 319 315 316 319 319 319 319 319 319 318 318 318 318
334 334 334 334 333 332 332 332 332 332 331 330 328 328 327 324 320 318 323 323 321 321 321 320 320 319 318 318 317 316 315 314 314 315 317 317 317 316 315 315 316 316 317
330 330 332 332 330 330 331 331 331 331 330 329 326 322 318 320 322 320 319 320 321 320 319 318 318 317 317 315 315 314 313 313 315 316 317 316 315 313 312 312 313 314 314
328 328 329 329 328 329 330 330 330 330 328 327 325 319 319 318 319 319 317 318 317 318 318 317 316 316 314 313 312 312 311 311 311 312 314 314 311 309 309 310 310 311 311
327 327 327 328 326 328 330 329 326 327 326 325 325 324 318 317 317 318 318 316 315 315 315 315 315 314 313 311 310 310 310 310 310 310 311 310 308 307 306 306 306 307 308
326 326 327 327 326 327 328 327 325 325 325 325 325 322 317 315 315 316 316 316 313 313 314 314 312 312 310 308 308 309 309 308 308 307 307 306 306 304 303 302 303 303 304
325 328 327 328 327 327 326 326 327 324 325 324 321 319 316 314 313 314 314 315 314 312 310 311 310 309 308 308 307 307 306 305 305 304 304 304 303 301 301 300 299 300 301
328 328 327 327 326 326 327 325 325 325 323 321 317 313 312 311 312 312 312 313 313 312 310 310 309 308 306 306 305 305 304 304 303 302 301 301 300 300 299 298 297 297 299
326 326 325 326 326 326 327 326 324 322 319 315 312 311 311 311 311 311 311 311 311 310 309 309 308 307 304 304 304 304 302 302 301 300 300 298 298 298 296 294 291 293 295
322 322 322 323 323 323 323 323 321 316 314 311 310 309 309 310 310 310 310 309 309 309 308 308 307 305 303 302 302 301 300 299 299 298 298 297 296 296 293 291 289 288 290
318 319 320 319 319 318 315 315 314 312 309 308 308 307 307 306 307 307 307 307 307 306 305 305 304 303 303 302 300 300 299 298 297 297 297 294 295 293 291 290 291 289 291
314 314 315 314 314 314 313 312 309 307 307 306 306 306 306 306 306 306 306 305 304 303 302 302 303 302 302 300 299 299 297 297 296 295 294 293 291 290 288 290 290 292 292
312 311 310 309 309 308 308 307 306 306 306 305 305 304 304 305 305 305 305 304 302 301 300 300 301 300 299 298 297 297 297 296 296 294 292 290 290 288 288 289 289 291 293
309 309 308 307 306 306 306 306 306 305 304 304 303 303 303 303 303 303 302 301 300 300 299 298 299 299 298 298 298 297 296 293 293 292 291 289 288 287 287 288 289 291 291
307 307 306 306 305 305 304 304 303 303 303 303 303 302 301 300 300 299 299 299 298 299 298 298 297 297 297 298 298 296 295 294 293 291 288 287 287 287 287 289 289 290 291
305 305 305 304 304 304 303 302 302 302 302 302 302 301 300 299 298 297 296 295 293 292 292 295 296 296 297 297 297 297 295 294 291 289 287 288 287 287 287 287 288 289 289
305 305 304 304 303 303 303 302 301 301 301 301 301 300 299 298 297 296 295 293 291 289 289 288 289 293 295 295 295 295 293 292 288 287 285 287 286 286 285 287 286 287 287
304 304 303 303 303 302 302 302 300 299 299 299 299 298 298 297 296 295 294 292 290 288 289 287 287 288 289 292 292 292 292 290 288 286 287 287 287 286 286 285 286 286 286

GFSMA_925_thetae_105.txt.gz
Theta_e
333 332 332 333 333 333 332 326 326 326 327 326 327 328 328 329 329 329 329 330 330 329 328 327 327 327 327 328 328 328 326 323 320 319 317 315 316 324 325 325 325 324 322
333 334 332 333 330 330 328 328 328 327 326 325 328 329 329 330 330 330 330 330 329 329 329 327 326 326 327 328 328 328 325 322 318 317 315 316 315 317 323 325 326 326 325
333 332 329 328 328 327 328 328 327 326 328 328 329 329 330 331 331 330 329 329 328 329 328 328 328 328 329 328 329 329 326 322 318 316 316 316 316 316 318 320 324 324 325
333 332 330 330 330 328 327 327 328 328 330 330 330 331 331 331 332 330 330 328 327 329 328 328 327 328 327 327 328 332 326 322 317 316 316 317 317 316 318 320 321 322 324
330 329 329 328 328 328 329 329 329 329 330 329 329 331 331 331 331 330 329 328 326 326 325 325 326 327 327 327 327 332 327 321 317 316 316 316 316 315 320 320 321 322 322
328 328 328 329 331 330 329 329 329 329 328 327 329 331 332 331 330 328 327 327 325 324 323 325 325 326 327 326 327 331 327 321 318 317 316 317 316 316 320 321 321 321 321
330 329 334 333 333 332 331 331 330 330 328 327 331 331 331 330 329 328 328 327 324 323 324 324 324 327 325 324 329 328 326 323 320 317 317 318 318 319 321 321 321 321 320
333 332 335 336 335 334 333 331 331 330 329 327 331 329 326 326 327 326 326 323 323 323 323 322 325 324 323 322 324 326 324 322 320 319 320 320 318 320 320 319 318 319 319
334 333 336 335 335 335 334 333 331 330 330 331 332 329 325 324 323 324 324 323 321 322 322 321 320 322 321 321 321 322 322 320 317 319 319 318 318 318 318 317 317 317 317
335 336 335 335 335 335 334 333 332 331 330 331 329 330 328 324 319 322 324 322 321 320 321 321 319 319 319 319 319 318 316 315 315 316 317 318 317 317 315 315 315 315 315
332 334 332 331 332 332 331 331 331 331 331 330 330 326 325 321 323 319 318 320 321 320 320 319 318 318 317 317 315 315 314 313 315 317 317 317 316 314 313 312 313 313 313
330 330 330 330 330 330 330 330 330 329 329 329 329 328 323 318 317 318 317 317 319 319 319 318 317 316 315 314 314 313 313 312 312 313 314 315 313 311 309 310 310 310 309
328 327 327 327 328 327 326 327 329 330 329 328 327 324 323 317 318 318 318 317 315 315 317 316 315 315 314 313 311 310 310 311 311 311 313 311 311 308 306 306 306 306 306
328 327 326 326 326 326 326 326 328 328 325 325 324 323 324 321 318 316 317 316 314 313 313 313 312 312 312 311 309 308 309 309 309 309 308 308 307 306 304 304 302 302 303
324 324 325 326 326 326 326 325 327 325 324 325 324 324 324 322 316 316 315 315 313 311 310 310 311 310 310 309 308 308 307 307 306 306 306 305 304 303 302 301 299 299 300
326 325 326 325 326 327 327 326 327 326 325 324 324 324 322 318 316 314 314 314 314 313 309 310 309 308 308 307 306 305 306 305 304 304 303 302 301 300 299 297 294 294 296
327 327 327 326 327 326 326 326 326 325 325 324 324 321 319 315 312 312 312 312 312 312 310 308 309 307 306 305 305 304 304 303 302 301 301 300 299 297 296 294 292 290 293
322 322 322 323 323 324 324 324 324 324 324 323 322 318 314 312 311 311 310 311 310 310 310 308 307 306 305 304 303 302 302 301 300 300 299 298 297 296 295 293 293 290 291
318 318 319 318 319 320 321 321 321 321 320 319 319 313 311 310 310 310 310 310 309 309 308 308 306 305 304 303 301 301 300 299 298 298 297 297 296 295 292 291 292 291 292
313 314 314 316 316 317 316 315 315 314 313 313 311 309 309 308 309 308 308 307 307 307 305 304 304 303 302 301 300 299 298 298 297 296 295 294 293 292 290 291 289 290 293
310 311 311 311 311 311 313 313 313 312 311 310 307 307 307 306 306 306 306 306 305 304 303 302 301 301 300 299 298 298 298 297 297 295 293 292 291 290 288 288 289 290 292
308 308 309 309 308 308 308 307 307 307 306 306 306 305 305 305 305 306 305 305 305 303 302 300 299 299 299 299 299 298 297 294 293 294 292 291 289 288 287 288 290 291 291
307 307 307 306 306 306 306 306 306 305 305 305 305 304 303 303 303 303 303 302 302 301 300 300 299 298 299 298 297 297 296 295 295 293 291 289 288 287 287 289 289 290 290
306 305 305 306 305 305 305 304 304 303 303 303 303 303 303 302 301 301 300 299 299 299 298 298 298 298 297 297 297 298 297 295 293 293 289 287 287 286 287 287 288 289 289
305 305 305 304 304 304 304 304 303 302 302 302 302 302 302 302 301 299 298 298 297 295 293 292 294 296 296 296 296 296 295 293 289 289 288 287 287 286 286 286 287 287 287
302 303 303 303 303 303 303 303 302 302 301 301 301 301 301 301 300 298 297 297 294 293 291 289 288 289 291 294 295 295 296 293 289 286 287 286 286 286 285 285 286 286 286

GFSMA_925_thetae_108.txt.gz
Theta_e
334 333 333 333 333 333 331 329 327 323 324 326 327 328 327 327 327 328 328 329 329 329 328 327 326 327 328 327 327 328 327 324 321 318 316 316 316 318 325 326 326 326 325
334 332 333 333 332 333 332 330 325 324 326 326 326 327 328 328 329 329 329 329 329 328 329 327 326 326 327 327 328 327 327 324 319 317 316 317 317 317 318 320 321 325 326
334 333 332 332 332 333 331 328 327 328 327 326 325 328 329 329 330 330 330 329 328 328 329 327 328 328 327 328 328 331 328 324 319 317 316 316 317 317 317 318 319 322 324
332 332 332 332 332 331 330 328 328 327 326 327 327 328 329 330 330 331 330 329 328 328 328 328 328 327 327 326 326 332 329 325 319 316 316 316 317 317 321 321 321 323 323
331 332 333 333 330 328 327 327 327 326 327 329 330 330 331 331 331 331 330 328 327 327 327 326 325 325 326 326 326 331 330 325 319 317 316 316 317 317 320 322 322 321 322
331 331 331 328 329 330 328 328 328 328 328 329 329 329 330 331 331 330 328 327 326 325 324 323 324 324 325 326 324 330 329 325 319 317 317 317 317 317 321 321 321 321 321
331 332 331 330 328 328 328 328 329 328 329 328 327 327 330 330 330 328 327 327 326 325 323 320 321 323 325 321 326 330 327 324 321 319 317 317 319 319 320 320 319 319 320
330 328 328 328 328 330 330 328 329 329 329 327 330 328 327 327 326 326 326 326 325 323 321 320 321 323 322 320 324 324 325 324 322 320 320 320 319 317 319 319 319 317 318
328 328 328 330 332 332 331 331 330 330 329 328 328 329 325 326 323 324 323 323 323 322 322 321 321 321 321 321 321 323 324 323 320 319 320 319 318 319 318 317 317 316 316
330 330 330 332 335 335 333 333 331 331 329 330 329 330 327 323 320 322 323 322 321 322 322 321 321 319 320 319 320 319 319 319 316 316 318 319 319 317 316 315 315 315 315
330 332 332 334 335 335 334 333 331 330 329 329 329 327 327 326 323 318 320 320 320 320 321 321 320 319 318 317 317 315 316 314 315 316 317 317 317 315 314 313 313 312 312
328 329 331 331 330 330 330 329 328 329 328 328 327 328 328 322 320 318 316 316 320 319 318 318 318 318 317 316 315 313 313 313 313 313 315 316 314 313 311 310 310 309 309
327 327 328 329 328 328 328 326 327 328 327 328 328 327 325 324 319 318 317 316 315 316 316 316 316 316 315 314 313 312 310 311 311 312 313 313 312 311 308 307 306 306 305
326 327 327 326 326 327 327 326 325 326 327 327 327 326 324 323 322 318 318 316 314 313 313 313 314 313 313 312 310 309 309 309 309 309 309 310 309 307 306 305 304 302 302
325 326 326 325 326 326 326 326 326 326 325 327 327 325 323 323 322 319 318 316 316 312 311 311 311 311 311 310 309 309 308 308 307 307 307 307 306 305 304 303 301 299 297
327 326 325 325 325 325 325 326 326 326 325 326 325 325 324 324 324 321 317 316 315 313 309 311 310 309 309 308 308 306 306 305 306 305 304 304 302 302 301 298 296 295 294
325 325 325 325 325 326 325 325 325 325 325 326 325 324 323 322 320 317 315 314 314 314 310 308 309 309 308 307 306 305 304 304 304 303 302 301 301 299 298 296 295 294 293
321 321 321 322 323 324 325 325 325 325 324 324 324 324 323 322 318 314 313 312 312 312 312 308 307 306 306 306 305 304 303 303 302 302 301 299 298 297 296 294 293 293 290
315 316 316 317 318 319 320 321 322 322 323 321 320 320 319 318 316 313 311 311 311 310 310 309 306 305 303 303 303 302 302 301 300 300 299 298 297 296 295 292 293 290 292
310 311 312 312 314 316 316 317 317 317 317 317 317 317 317 314 312 311 310 310 310 309 308 307 306 303 302 301 301 301 300 299 299 298 297 296 294 293 292 291 289 288 292
308 308 309 309 309 310 311 312 312 312 311 311 312 312 312 312 310 310 309 309 308 307 306 305 303 301 300 299 299 300 298 298 298 297 295 293 293 292 290 289 288 290 292
306 306 307 307 307 307 307 307 307 307 308 308 309 311 310 308 308 307 307 307 306 306 305 303 301 300 299 301 300 299 298 295 295 297 295 294 292 291 290 287 289 291 290
305 305 305 305 305 305 305 305 305 305 305 305 305 306 306 306 306 306 306 306 306 306 305 304 302 300 300 300 299 297 297 296 296 295 294 292 290 290 287 288 288 290 289
302 303 304 304 304 304 304 304 304 303 303 304 304 304 304 305 304 304 304 304 304 304 302 302 301 300 300 299 299 298 297 297 295 293 291 289 288 287 287 287 288 288 289
300 301 302 303 303 303 303 303 303 303 302 302 302 302 302 303 303 302 302 301 300 300 299 298 298 298 298 298 297 297 296 294 290 290 290 290 286 286 286 287 287 288 287
298 299 299 299 301 301 302 302 302 302 302 302 302 302 301 302 302 301 300 299 297 297 295 293 292 294 296 297 296 297 297 293 291 289 291 289 287 286 285 286 286 286 286

GFSMA_925_thetae_111.txt.gz
Theta_e
335 334 332 333 333 332 332 328 327 325 321 324 325 326 326 326 326 327 327 327 327 328 328 328 327 327 328 327 327 328 327 326 323 319 316 317 317 318 323 324 325 325 326
335 334 333 334 333 332 331 329 327 326 322 324 325 326 327 327 327 327 328 328 328 328 327 328 326 326 327 327 328 329 327 327 323 318 316 317 317 317 319 322 322 322 323
335 334 333 333 333 332 332 331 330 327 323 325 325 325 326 327 328 329 329 329 328 328 327 328 327 327 328 328 328 329 331 327 323 318 316 316 317 317 317 318 319 323 324
335 334 332 333 333 333 332 332 331 327 327 327 326 324 326 328 329 329 330 330 329 328 327 328 327 328 327 327 326 326 332 328 323 318 316 317 317 316 317 321 322 322 322
333 333 332 332 333 332 332 332 331 328 327 326 326 327 327 329 330 330 330 330 329 327 327 328 327 326 325 325 325 326 331 328 323 318 316 316 317 317 318 322 322 322 322
333 333 332 332 332 332 332 331 330 329 328 326 327 329 329 330 330 330 330 330 328 327 327 325 324 323 324 323 323 323 331 328 324 319 317 317 317 318 320 321 320 320 320
330 332 331 330 331 332 331 328 327 326 326 328 328 328 327 328 330 330 329 327 326 326 325 324 321 322 322 321 319 327 329 327 324 320 318 317 318 319 320 320 320 318 318
330 326 321 324 330 329 328 328 328 327 328 328 327 327 326 328 329 328 326 325 325 325 324 322 321 320 320 319 323 328 327 326 324 321 320 320 320 319 320 319 318 318 317
330 325 326 327 330 328 329 328 328 328 328 328 327 328 325 327 323 325 325 324 324 324 323 322 321 320 320 319 319 322 325 324 322 321 321 321 320 319 319 318 317 316 316
330 329 330 330 329 329 328 328 329 328 329 329 327 328 328 323 323 323 323 322 322 323 323 321 320 320 320 319 319 319 320 320 320 318 319 319 319 319 317 316 316 315 314
328 329 329 328 328 328 330 331 331 330 330 329 329 328 327 325 322 319 323 320 320 321 322 321 321 320 319 318 317 316 315 316 315 316 317 317 317 316 315 314 313 312 312
327 328 328 329 328 330 331 331 331 331 330 329 328 328 328 326 324 322 317 316 319 319 319 320 320 320 318 317 316 315 314 313 313 314 315 316 316 315 313 311 310 310 309
326 326 326 328 327 327 328 327 328 328 327 326 326 327 327 326 325 324 320 317 317 317 318 318 318 318 317 316 315 313 312 310 311 312 313 314 313 313 311 309 307 306 306
323 323 325 326 327 327 327 327 327 327 326 327 327 327 327 326 325 322 320 318 315 313 314 314 316 316 315 314 313 312 310 309 310 310 310 310 310 309 308 306 304 303 301
324 324 324 325 325 326 326 324 326 326 325 325 325 325 326 326 325 321 321 318 317 315 314 312 313 313 313 312 311 310 309 308 308 308 308 307 307 305 304 304 303 301 299
326 326 325 326 325 324 325 326 325 326 325 325 325 324 324 325 323 322 322 318 317 316 315 312 310 311 311 311 310 309 307 306 306 306 305 305 304 303 302 301 300 298 297
325 325 325 326 325 326 325 325 325 325 325 324 324 324 324 324 324 323 323 322 317 314 312 308 310 310 309 309 309 308 306 305 305 304 304 303 302 301 300 298 297 296 295
318 320 320 320 321 322 322 322 323 323 324 324 323 323 323 322 322 322 322 320 315 314 312 308 307 306 307 307 307 306 305 305 304 303 303 302 300 299 299 296 295 294 292
311 312 313 314 315 317 317 318 318 319 319 320 320 320 321 320 320 318 318 316 314 313 312 310 305 304 304 304 303 303 303 303 302 302 301 300 299 297 297 296 293 291 290
308 308 309 309 309 310 311 313 313 314 313 314 315 316 316 316 316 315 315 313 312 311 310 309 306 303 303 302 303 301 300 301 300 300 299 299 298 297 296 294 292 289 289
306 306 306 306 306 307 307 307 307 308 309 309 310 310 311 312 312 311 311 311 311 309 309 307 304 302 302 300 299 300 300 300 299 298 298 297 295 295 294 292 291 288 292
304 304 305 305 305 305 306 306 305 305 305 305 306 306 306 307 310 309 309 309 309 309 306 304 303 303 302 302 301 300 299 297 295 298 296 295 294 293 292 292 289 290 290
300 301 301 302 303 303 303 304 304 304 303 303 304 304 305 305 305 306 306 307 307 307 307 307 304 303 302 303 302 299 299 297 297 297 295 293 293 292 291 289 288 289 289
299 299 299 299 299 300 302 302 302 302 303 303 303 303 303 303 304 304 304 305 305 306 305 306 305 305 305 303 301 300 300 298 296 295 293 291 290 290 288 287 288 289 288
298 298 298 297 298 298 298 299 300 300 301 302 303 303 302 302 302 302 302 303 303 303 304 303 303 302 301 300 299 299 297 295 291 291 292 290 289 288 287 286 287 288 287
295 296 297 297 297 297 297 297 298 298 299 300 301 301 302 302 302 301 301 301 300 301 301 301 299 298 298 298 298 298 298 294 293 290 292 291 289 287 285 286 286 287 287

GFSMA_925_thetae_114.txt.gz
Theta_e
338 336 335 334 333 332 330 330 327 326 324 321 320 320 322 325 325 325 326 327 327 327 328 328 327 326 327 327 326 327 327 327 326 321 317 317 317 316 316 316 318 322 323
337 335 334 333 332 332 332 333 328 326 324 321 323 325 325 326 326 326 326 327 327 327 328 328 328 327 327 328 328 328 329 327 326 321 317 317 316 316 316 316 320 324 324
336 335 334 333 333 333 332 332 330 327 326 323 323 324 325 326 327 327 327 328 328 328 328 327 328 327 327 328 328 328 329 330 326 321 317 316 317 317 316 317 319 322 323
336 335 334 334 333 333 332 332 330 329 327 326 323 325 325 324 326 327 328 329 329 329 328 327 327 327 327 327 327 326 327 331 327 322 317 316 316 317 317 318 318 322 322
335 335 334 334 333 333 333 332 331 330 329 326 326 326 325 325 326 328 329 329 330 330 328 327 327 327 327 325 323 324 327 331 327 323 318 316 316 318 318 320 322 321 321
332 335 334 333 332 332 332 332 332 331 330 327 327 325 326 328 328 329 330 330 330 330 328 327 327 326 324 322 322 322 324 330 328 324 319 317 317 318 319 321 321 319 319
331 334 333 332 331 332 330 332 332 332 330 328 326 326 327 328 328 328 329 330 330 329 327 327 325 324 321 321 320 317 325 329 327 323 320 318 318 318 321 320 320 319 319
330 332 332 330 329 330 329 329 330 330 328 327 326 325 324 326 328 328 329 329 328 326 325 325 324 321 319 319 317 323 329 328 326 324 322 321 321 320 320 320 319 318 317
331 331 330 326 323 322 323 322 327 329 327 326 326 327 324 326 323 325 327 327 325 325 325 324 323 320 319 318 317 321 326 325 324 322 322 321 321 320 320 319 318 317 316
330 329 329 327 321 320 321 323 327 328 328 327 326 326 327 324 323 324 323 324 324 324 324 324 322 321 320 319 318 319 320 321 322 321 320 320 320 320 319 317 316 315 314
329 329 328 323 323 320 321 327 327 328 327 327 328 327 326 326 322 319 322 321 322 323 323 323 322 321 321 320 319 318 317 317 316 317 318 319 317 318 316 315 314 313 312
328 328 327 328 328 327 325 326 326 327 329 328 328 328 328 326 324 323 320 320 322 323 322 321 322 321 321 320 318 317 316 314 313 314 315 317 317 316 314 314 312 310 309
327 327 327 328 328 327 327 328 327 327 327 327 327 328 328 328 327 326 324 323 318 319 320 320 321 321 320 318 317 316 314 313 311 312 313 315 313 313 312 311 309 307 306
325 326 325 326 326 326 326 326 326 326 326 326 326 326 326 326 326 325 324 322 321 315 314 317 317 318 318 318 316 315 314 312 310 310 311 313 311 310 309 308 307 305 304
323 323 324 324 324 325 325 325 325 325 325 326 326 325 325 325 325 325 324 323 322 321 316 316 317 317 317 316 316 314 313 310 309 309 309 309 308 308 307 306 304 304 302
325 325 325 325 325 324 325 325 325 324 325 325 325 325 325 324 324 324 322 321 319 319 317 317 316 317 316 315 313 312 310 309 308 307 307 307 306 305 304 303 302 301 301
323 323 323 324 324 325 325 325 325 325 325 324 324 324 324 324 323 322 322 321 320 317 316 315 312 311 312 312 310 309 308 307 306 305 305 304 304 302 301 299 299 300 299
315 316 317 317 317 318 319 320 319 319 319 320 321 322 322 322 322 321 320 319 317 315 315 314 309 309 309 307 308 308 306 305 304 304 303 303 301 301 300 298 297 297 296
308 309 310 310 310 310 312 313 314 314 314 314 314 315 316 316 318 319 319 318 317 316 314 312 306 306 306 306 305 303 304 303 303 302 302 301 300 300 299 297 295 295 292
306 306 306 306 307 307 307 307 307 307 307 308 308 309 309 309 311 312 313 314 314 313 311 310 307 304 304 304 305 303 303 303 302 301 300 300 300 299 297 296 294 293 290
303 304 304 304 304 304 304 304 304 305 305 305 305 306 306 306 307 307 309 310 311 310 309 307 305 303 302 300 301 304 303 303 301 300 299 298 298 297 296 295 293 291 290
299 300 300 300 301 302 302 302 303 303 303 303 303 303 303 304 304 305 305 308 309 309 307 306 305 305 303 303 305 303 300 298 296 299 299 298 296 295 295 294 292 290 290
298 298 298 298 298 298 299 299 300 301 301 301 302 302 303 304 303 303 303 304 306 307 308 308 306 305 305 305 303 302 300 300 299 299 297 295 295 294 293 292 290 289 289
296 296 296 297 297 296 297 297 298 298 298 298 299 300 301 302 303 302 302 302 303 304 305 306 307 306 307 306 305 305 304 300 298 297 297 293 294 293 293 290 288 289 289
293 293 294 295 295 295 295 296 297 297 298 298 298 298 299 300 301 301 301 301 302 302 303 304 304 305 304 304 303 302 298 295 292 292 294 293 289 289 288 288 287 289 288
292 292 293 293 292 292 293 294 294 294 295 295 296 296 297 298 299 300 300 300 299 301 302 302 302 302 301 301 300 300 299 295 293 291 293 292 288 288 285 286 286 288 288

GFSMA_925_thetae_117.txt.gz
Theta_e
339 339 338 337 335 334 330 325 326 327 326 325 324 324 325 326 325 324 324 326 327 327 327 329 329 327 327 326 327 327 327 327 327 325 319 317 317 316 316 316 318 324 324
337 336 338 336 335 333 332 328 327 327 327 325 323 320 320 321 324 325 325 325 326 327 327 328 328 330 330 329 329 328 327 329 327 325 319 317 317 317 317 317 320 322 323
337 336 336 336 334 333 332 331 331 331 328 325 322 322 324 324 325 326 326 325 327 327 327 327 327 328 329 328 328 329 329 329 330 326 321 317 317 317 317 319 320 322 323
335 337 335 335 334 333 332 331 333 333 329 327 325 322 323 324 325 325 326 327 328 328 328 328 327 327 327 327 327 327 328 328 330 327 323 318 317 317 318 320 321 322 322
327 335 336 334 333 333 333 332 332 331 330 328 327 324 323 325 324 324 326 327 328 329 329 329 328 327 327 327 327 323 327 329 330 328 323 318 317 317 318 319 320 320 320
326 329 334 334 333 333 333 333 332 329 330 330 329 326 326 325 325 326 326 328 329 329 329 329 328 327 327 327 324 320 321 329 328 328 323 319 318 317 318 320 321 320 320
328 329 331 333 333 332 332 332 331 328 329 330 329 327 327 325 326 327 328 329 329 330 330 330 327 327 326 324 319 318 316 326 327 327 324 321 319 319 320 320 320 319 319
328 328 330 332 333 332 332 331 330 328 328 328 328 325 328 327 327 327 328 327 328 329 329 328 327 326 324 321 317 316 320 328 328 326 324 322 321 322 322 321 320 318 318
327 328 328 329 331 331 330 330 325 327 326 325 326 327 329 330 325 326 326 326 327 327 327 326 325 325 323 320 319 318 321 327 327 326 325 323 322 322 321 321 319 318 317
328 328 327 328 330 330 330 327 324 325 326 325 325 325 326 326 328 328 323 325 325 325 326 325 325 325 324 321 319 318 320 324 325 325 324 323 322 322 322 320 318 316 315
328 327 327 327 329 326 326 326 326 323 320 321 323 325 325 325 324 322 328 325 324 325 326 325 324 325 324 323 320 319 319 319 320 321 321 321 320 321 321 319 316 314 313
328 328 327 329 329 326 321 321 321 321 323 321 322 323 325 325 324 322 323 325 325 325 325 324 323 323 324 322 321 320 319 317 316 315 317 319 319 319 319 316 314 313 311
327 327 328 328 327 326 322 321 322 324 325 325 326 325 325 326 325 325 324 325 324 324 323 322 323 323 322 322 321 319 319 317 315 313 315 317 317 318 315 313 312 311 308
327 327 327 327 326 326 326 325 324 324 325 325 325 325 326 326 326 325 325 324 326 323 321 321 323 321 320 321 320 318 317 317 315 312 311 315 316 314 312 310 310 308 306
326 326 325 326 326 326 326 326 326 325 325 325 325 325 325 325 325 325 325 323 323 325 325 320 317 319 320 319 319 318 317 316 313 311 310 312 313 311 309 308 307 305 304
323 324 324 323 323 323 324 325 325 325 325 324 325 324 324 324 324 324 323 323 322 322 323 320 320 319 319 317 317 317 316 312 311 309 309 310 309 307 307 306 304 303 302
320 321 321 321 322 323 323 324 324 324 324 324 324 324 323 323 323 323 323 322 321 319 319 320 317 316 316 315 314 314 312 311 310 309 307 306 306 305 304 303 301 301 301
312 312 312 312 314 315 315 317 316 316 317 317 317 318 318 318 318 319 320 320 319 318 317 317 315 314 312 312 314 312 310 310 309 307 306 305 304 303 302 301 300 299 298
306 307 307 307 307 307 308 307 308 308 310 310 310 310 310 310 311 313 314 314 315 316 316 315 314 311 308 309 307 307 307 307 307 307 305 303 303 302 301 300 298 297 296
304 304 304 304 304 304 304 305 305 305 305 305 305 305 305 305 305 307 308 309 311 311 312 312 310 306 305 305 304 304 303 304 305 305 306 304 302 301 300 299 297 296 295
300 300 300 300 300 301 301 302 302 302 302 302 303 303 303 303 303 303 303 304 306 308 309 308 307 305 303 303 302 303 302 302 303 305 304 302 300 299 299 298 297 296 293
297 297 297 297 296 297 298 298 298 298 299 299 299 299 300 301 302 303 303 303 303 305 307 307 307 306 305 304 302 303 303 300 298 302 303 301 300 298 298 297 296 294 292
295 295 296 296 296 296 296 297 297 297 297 297 297 298 297 298 299 300 300 301 302 302 304 306 306 306 306 305 305 301 301 301 302 302 300 296 296 296 297 296 295 293 291
292 293 293 293 293 293 295 295 294 294 295 295 296 296 296 297 296 298 299 300 300 300 301 303 305 306 306 306 306 304 302 300 299 300 297 296 295 293 295 294 293 291 291
292 292 292 292 292 292 293 292 291 291 292 292 292 293 294 295 296 297 298 299 299 300 300 301 301 302 304 305 305 303 300 296 294 293 295 296 291 289 291 290 291 290 290
290 290 288 289 290 289 289 290 290 290 290 290 290 290 291 292 294 294 295 296 297 298 299 299 300 300 301 302 302 303 302 297 293 292 294 293 289 290 289 287 288 288 290